Darstellungsparameter: Aktuell verwendete Einstellungen:
Skalierung der Graphiken ... ?
xyx+y,   Skalierungsfaktor:      Skalierung: Modus: x, Faktor: 1
Darstellungszeitraum ... ?
Vom - - bis: - -   Zeitraum: 18.12.2019 - 31.12.2019
Min/Max/Avg-Anzeige ... ?
Zeige MMA aktuell
Zeige MMA Monat
Zeige MMA alles
Zeige --A aktuell
Zeige --A Monat
Zeige --A alles
Keine MMA-Anzeige
MMA:
Average (ber die Originaldaten)
MMA-Basis: 18.12.2019 - 31.12.2019
Quicknavigation für Darstellung... ?
Tage:      1T, 2T, 3T, 5T -1T -2T -3T -5T +1T +2T +3T +5T
Wochen: 1W, 2W, 3W -1W -2W -3W +1W +2W +3W
Monate: 1M, 3M, 6M -1M -3M -6M +1M +3M +6M
Jahre:    1J, 3J, 5J, 10J -1J -3J -5J -10J +1J +3J +5J +10J
Nutze für die Darstellung ... ?
Originaldaten oder Mittelwerte auf ...
Stundenbasis Tagesbasis Wochenbasis
Monatsbasis Jahresbasis      Datenbasis: Original-Daten
Darstellen als:
Statistik (Auto) Statistik J:M      Darstellung:
Zur Graphik,    zurück zur Übersicht aller Sensoren.
 
Tabellarische Datenbersicht: ?
 
Sensor: Nr:Datum:Temp:Feuchte:
Aussen-T/F 1 18-12-2019 00:02:17 10.4 C 35 %
2 18-12-2019 00:12:17 10.4 C 34 %
3 18-12-2019 00:22:17 10.5 C 34 %
4 18-12-2019 00:32:18 10.9 C 31 %
5 18-12-2019 00:42:18 11 C 30 %
6 18-12-2019 00:52:17 11 C 30 %
7 18-12-2019 01:02:17 10.8 C 30 %
8 18-12-2019 01:12:17 11 C 29 %
9 18-12-2019 01:22:17 11.1 C 29 %
10 18-12-2019 01:32:18 10.9 C 30 %
11 18-12-2019 01:42:18 10.4 C 30 %
12 18-12-2019 01:52:17 10.8 C 30 %
13 18-12-2019 02:02:17 11.1 C 30 %
14 18-12-2019 02:12:17 11.1 C 29 %
15 18-12-2019 02:22:17 11.2 C 30 %
16 18-12-2019 02:32:17 11.3 C 29 %
17 18-12-2019 02:42:18 10.9 C 30 %
18 18-12-2019 02:52:17 10.9 C 31 %
19 18-12-2019 03:02:17 10.6 C 33 %
20 18-12-2019 03:12:17 10.3 C 35 %
21 18-12-2019 03:22:18 10.3 C 37 %
22 18-12-2019 03:32:17 10.1 C 37 %
23 18-12-2019 03:42:17 10 C 38 %
24 18-12-2019 03:52:18 10.1 C 38 %
25 18-12-2019 04:02:18 10 C 38 %
Sensor: Nr:Datum:Temp:Feuchte:
Aussen-T/F 26 18-12-2019 04:12:18 9.9 C 38 %
27 18-12-2019 04:22:17 9.8 C 35 %
28 18-12-2019 04:32:18 9.6 C 34 %
29 18-12-2019 04:42:18 9.5 C 33 %
30 18-12-2019 04:52:17 9.3 C 33 %
31 18-12-2019 05:02:18 9.2 C 33 %
32 18-12-2019 05:12:18 9.1 C 33 %
33 18-12-2019 05:22:17 8.8 C 35 %
34 18-12-2019 05:32:17 8.7 C 36 %
35 18-12-2019 05:42:17 8.2 C 36 %
36 18-12-2019 05:52:17 8.2 C 39 %
37 18-12-2019 06:02:18 8.1 C 39 %
38 18-12-2019 06:12:18 8 C 37 %
39 18-12-2019 06:22:17 8 C 37 %
40 18-12-2019 06:32:18 7.9 C 37 %
41 18-12-2019 06:42:18 7.5 C 37 %
42 18-12-2019 06:52:17 7.4 C 39 %
43 18-12-2019 07:02:17 7.2 C 40 %
44 18-12-2019 07:12:17 7.3 C 40 %
45 18-12-2019 07:22:17 7.3 C 40 %
46 18-12-2019 07:32:17 7.1 C 39 %
47 18-12-2019 07:42:17 6.8 C 40 %
48 18-12-2019 07:52:17 6.9 C 41 %
49 18-12-2019 08:02:17 6.7 C 41 %
50 18-12-2019 08:12:17 6.5 C 41 %
Sensor: Nr:Datum:Temp:Feuchte:
Aussen-T/F 51 18-12-2019 08:22:17 6.5 C 41 %
52 18-12-2019 08:32:17 6.3 C 41 %
53 18-12-2019 08:42:17 6.4 C 42 %
54 18-12-2019 08:52:17 6.6 C 42 %
55 18-12-2019 09:02:17 6.5 C 41 %
56 18-12-2019 09:12:17 6.1 C 40 %
57 18-12-2019 09:22:17 6 C 41 %
58 18-12-2019 09:32:17 6.5 C 42 %
59 18-12-2019 09:42:17 6.7 C 42 %
60 18-12-2019 09:52:17 6.9 C 41 %
61 18-12-2019 10:02:17 7 C 40 %
62 18-12-2019 10:12:18 7.1 C 40 %
63 18-12-2019 10:22:17 7.5 C 38 %
64 18-12-2019 10:32:17 7.5 C 36 %
65 18-12-2019 10:42:17 7.4 C 36 %
66 18-12-2019 10:52:17 6.9 C 38 %
67 18-12-2019 11:02:17 6.8 C 38 %
68 18-12-2019 11:12:17 6.8 C 38 %
69 18-12-2019 11:22:17 6.6 C 38 %
70 18-12-2019 11:32:18 6.7 C 39 %
71 18-12-2019 11:42:18 6.9 C 38 %
72 18-12-2019 11:52:17 7.6 C 35 %
73 18-12-2019 12:02:17 8.1 C 33 %
74 18-12-2019 12:12:17 8 C 32 %
75 18-12-2019 12:22:17 8.3 C 31 %
Sensor: Nr:Datum:Temp:Feuchte:
Aussen-T/F 76 18-12-2019 12:32:17 8.6 C 30 %
77 18-12-2019 12:42:17 8.8 C 29 %
78 18-12-2019 12:52:17 8.7 C 29 %
79 18-12-2019 13:02:17 8.4 C 30 %
80 18-12-2019 13:12:17 8.2 C 30 %
81 18-12-2019 13:22:17 7.9 C 31 %
82 18-12-2019 13:32:18 7.8 C 32 %
83 18-12-2019 13:42:18 7.7 C 33 %
84 18-12-2019 13:52:17 7.8 C 32 %
85 18-12-2019 14:02:18 7.8 C 33 %
86 18-12-2019 14:12:18 7.7 C 33 %
87 18-12-2019 14:22:17 7.5 C 34 %
88 18-12-2019 14:32:17 7.3 C 35 %
89 18-12-2019 14:42:17 7.2 C 35 %
90 18-12-2019 14:52:17 7.2 C 35 %
91 18-12-2019 15:02:17 7.2 C 35 %
92 18-12-2019 15:12:17 7 C 36 %
93 18-12-2019 15:22:17 7 C 36 %
94 18-12-2019 15:32:17 6.7 C 37 %
95 18-12-2019 15:42:17 6.8 C 37 %
96 18-12-2019 15:52:17 6.7 C 36 %
97 18-12-2019 16:02:17 6.6 C 36 %
98 18-12-2019 16:12:17 6.5 C 36 %
99 18-12-2019 16:22:17 6.4 C 36 %
100 18-12-2019 16:32:17 6 C 36 %
Sensor: Nr:Datum:Temp:Feuchte:
Aussen-T/F 101 18-12-2019 16:42:17 5.8 C 37 %
102 18-12-2019 16:52:17 5.7 C 39 %
103 18-12-2019 17:02:17 5.3 C 38 %
104 18-12-2019 17:12:17 4.9 C 40 %
105 18-12-2019 17:22:17 5 C 42 %
106 18-12-2019 17:32:17 4.4 C 41 %
107 18-12-2019 17:42:17 4.2 C 42 %
108 18-12-2019 17:52:18 4.1 C 42 %
109 18-12-2019 18:02:17 4.1 C 43 %
110 18-12-2019 18:12:17 4.1 C 43 %
111 18-12-2019 18:22:17 4.4 C 43 %
112 18-12-2019 18:32:17 4.5 C 43 %
113 18-12-2019 18:42:17 4.3 C 42 %
114 18-12-2019 18:52:17 4.6 C 43 %
115 18-12-2019 19:02:17 5 C 42 %
116 18-12-2019 19:12:17 4.7 C 42 %
117 18-12-2019 19:22:17 4.3 C 42 %
118 18-12-2019 19:32:18 4.9 C 43 %
119 18-12-2019 19:42:18 4.7 C 42 %
120 18-12-2019 19:52:17 4.6 C 42 %
121 18-12-2019 20:02:17 5 C 42 %
122 18-12-2019 20:12:17 5 C 41 %
123 18-12-2019 20:22:17 4.5 C 41 %
124 18-12-2019 20:32:17 4.5 C 41 %
125 18-12-2019 20:42:18 4.1 C 41 %
Sensor: Nr:Datum:Temp:Feuchte:
Aussen-T/F 126 18-12-2019 20:52:17 3.9 C 42 %
127 18-12-2019 21:02:17 3.7 C 43 %
128 18-12-2019 21:12:17 3.6 C 42 %
129 18-12-2019 21:22:17 3.6 C 43 %
130 18-12-2019 21:32:17 3.7 C 43 %
131 18-12-2019 21:42:17 3.6 C 43 %
132 18-12-2019 21:52:17 3.4 C 43 %
133 18-12-2019 22:02:17 3.1 C 43 %
134 18-12-2019 22:12:17 3.1 C 43 %
135 18-12-2019 22:22:17 2.7 C 43 %
136 18-12-2019 22:32:17 2.6 C 43 %
137 18-12-2019 22:42:17 2.5 C 43 %
138 18-12-2019 22:52:17 2.4 C 43 %
139 18-12-2019 23:02:17 2.4 C 43 %
140 18-12-2019 23:12:17 2.3 C 43 %
141 18-12-2019 23:22:18 2.3 C 43 %
142 18-12-2019 23:32:17 2 C 43 %
143 18-12-2019 23:42:17 2 C 43 %
144 18-12-2019 23:52:17 2 C 43 %
145 19-12-2019 00:02:18 2.3 C 44 %
146 19-12-2019 00:12:18 2 C 43 %
147 19-12-2019 00:22:17 2 C 43 %
148 19-12-2019 00:32:17 2.1 C 43 %
149 19-12-2019 00:42:17 2.4 C 44 %
150 19-12-2019 00:52:18 2.3 C 43 %
Sensor: Nr:Datum:Temp:Feuchte:
Aussen-T/F 151 19-12-2019 01:02:17 2.1 C 43 %
152 19-12-2019 01:12:17 2 C 43 %
153 19-12-2019 01:22:17 2 C 43 %
154 19-12-2019 01:32:18 1.6 C 44 %
155 19-12-2019 01:42:18 1.9 C 44 %
156 19-12-2019 01:52:17 2.3 C 43 %
157 19-12-2019 02:02:17 2.2 C 43 %
158 19-12-2019 02:12:17 2 C 43 %
159 19-12-2019 02:22:17 2 C 43 %
160 19-12-2019 02:32:18 2 C 43 %
161 19-12-2019 02:42:18 1.8 C 44 %
162 19-12-2019 02:52:17 2.1 C 43 %
163 19-12-2019 03:02:18 1.5 C 44 %
164 19-12-2019 03:12:18 1.6 C 44 %
165 19-12-2019 03:22:17 1.6 C 44 %
166 19-12-2019 03:32:17 1.8 C 44 %
167 19-12-2019 03:42:17 1.7 C 44 %
168 19-12-2019 03:52:17 1.7 C 44 %
169 19-12-2019 04:02:17 1.6 C 44 %
170 19-12-2019 04:12:17 1.5 C 44 %
171 19-12-2019 04:22:18 1.5 C 44 %
172 19-12-2019 04:32:17 1.5 C 44 %
173 19-12-2019 04:42:17 1.4 C 44 %
174 19-12-2019 04:52:18 1.6 C 44 %
175 19-12-2019 05:02:17 1.4 C 44 %
Sensor: Nr:Datum:Temp:Feuchte:
Aussen-T/F 176 19-12-2019 05:12:17 1.5 C 44 %
177 19-12-2019 05:22:17 1.4 C 44 %
178 19-12-2019 05:32:17 1.3 C 44 %
179 19-12-2019 05:42:17 1.3 C 44 %
180 19-12-2019 05:52:17 1.1 C 44 %
181 19-12-2019 06:02:17 1.1 C 44 %
182 19-12-2019 06:12:17 1.2 C 44 %
183 19-12-2019 06:22:17 1 C 44 %
184 19-12-2019 06:32:17 1.1 C 44 %
185 19-12-2019 06:42:18 1 C 43 %
186 19-12-2019 06:52:17 0.7 C 45 %
187 19-12-2019 07:02:17 1 C 44 %
188 19-12-2019 07:12:17 0.9 C 45 %
189 19-12-2019 07:22:17 1.7 C 44 %
190 19-12-2019 07:32:17 3.5 C 43 %
191 19-12-2019 07:42:18 3.2 C 42 %
192 19-12-2019 07:52:17 3.1 C 42 %
193 19-12-2019 08:02:18 4.6 C 42 %
194 19-12-2019 08:12:18 3.8 C 42 %
195 19-12-2019 08:22:17 3.7 C 42 %
196 19-12-2019 08:32:18 4.6 C 41 %
197 19-12-2019 08:42:18 4 C 41 %
198 19-12-2019 08:52:17 3.3 C 41 %
199 19-12-2019 09:02:17 4 C 41 %
200 19-12-2019 09:12:17 4.4 C 41 %
Sensor: Nr:Datum:Temp:Feuchte:
Aussen-T/F 201 19-12-2019 09:22:17 4.1 C 41 %
202 19-12-2019 09:32:17 4.6 C 41 %
203 19-12-2019 09:42:17 4.4 C 41 %
204 19-12-2019 09:52:17 4.5 C 41 %
205 19-12-2019 10:02:17 4.7 C 41 %
206 19-12-2019 10:12:17 4.9 C 41 %
207 19-12-2019 10:22:17 5.2 C 41 %
208 19-12-2019 10:32:17 7 C 40 %
209 19-12-2019 10:42:17 7.2 C 40 %
210 19-12-2019 10:52:18 6.7 C 40 %
211 19-12-2019 11:02:17 6.4 C 39 %
212 19-12-2019 11:12:17 6.3 C 39 %
213 19-12-2019 11:22:17 6.3 C 40 %
214 19-12-2019 11:32:17 6.4 C 40 %
215 19-12-2019 11:42:17 6.6 C 40 %
216 19-12-2019 11:52:18 6.7 C 40 %
217 19-12-2019 12:02:17 6.6 C 40 %
218 19-12-2019 12:12:17 6.7 C 40 %
219 19-12-2019 12:22:17 6.7 C 40 %
220 19-12-2019 12:32:17 7 C 39 %
221 19-12-2019 12:42:17 7 C 39 %
222 19-12-2019 12:52:17 7.1 C 39 %
223 19-12-2019 13:02:17 7.3 C 39 %
224 19-12-2019 13:12:17 7.1 C 38 %
225 19-12-2019 13:22:17 7.2 C 39 %
Sensor: Nr:Datum:Temp:Feuchte:
Aussen-T/F 226 19-12-2019 13:32:17 7.2 C 39 %
227 19-12-2019 13:42:17 7.3 C 38 %
228 19-12-2019 13:52:17 7.3 C 38 %
229 19-12-2019 14:02:17 7.3 C 38 %
230 19-12-2019 14:12:17 7.1 C 38 %
231 19-12-2019 14:22:17 7.1 C 38 %
232 19-12-2019 14:32:17 7.2 C 38 %
233 19-12-2019 14:42:17 7.3 C 37 %
234 19-12-2019 14:52:17 7.9 C 36 %
235 19-12-2019 15:02:17 8.1 C 34 %
236 19-12-2019 15:12:17 8.1 C 33 %
237 19-12-2019 15:22:17 8.4 C 32 %
238 19-12-2019 15:32:18 8.6 C 32 %
239 19-12-2019 15:42:18 8.7 C 31 %
240 19-12-2019 15:52:17 8.8 C 31 %
241 19-12-2019 16:02:17 8.7 C 30 %
242 19-12-2019 16:12:17 8.3 C 31 %
243 19-12-2019 16:22:18 8.1 C 31 %
244 19-12-2019 16:32:17 7.9 C 32 %
245 19-12-2019 16:42:17 7.9 C 31 %
246 19-12-2019 16:52:17 7.6 C 32 %
247 19-12-2019 17:02:17 7.4 C 32 %
248 19-12-2019 17:12:17 6 C 35 %
249 19-12-2019 17:22:17 5.7 C 37 %
250 19-12-2019 17:32:17 5.5 C 39 %
Sensor: Nr:Datum:Temp:Feuchte:
Aussen-T/F 251 19-12-2019 17:42:17 5 C 39 %
252 19-12-2019 17:52:17 4.9 C 41 %
253 19-12-2019 18:02:17 5.2 C 42 %
254 19-12-2019 18:12:18 4.9 C 42 %
255 19-12-2019 18:22:17 5.2 C 42 %
256 19-12-2019 18:32:17 5 C 41 %
257 19-12-2019 18:42:17 5 C 41 %
258 19-12-2019 18:52:18 5.8 C 42 %
259 19-12-2019 19:02:17 5.7 C 41 %
260 19-12-2019 19:12:17 5.2 C 39 %
261 19-12-2019 19:22:18 4.7 C 40 %
262 19-12-2019 19:32:17 4.9 C 42 %
263 19-12-2019 19:42:17 4.7 C 42 %
264 19-12-2019 19:52:17 4.8 C 42 %
265 19-12-2019 20:02:17 5 C 42 %
266 19-12-2019 20:12:17 5 C 41 %
267 19-12-2019 20:22:17 4.8 C 42 %
268 19-12-2019 20:32:17 5.1 C 42 %
269 19-12-2019 20:42:17 6 C 41 %
270 19-12-2019 20:52:17 6 C 38 %
271 19-12-2019 21:02:17 5.8 C 38 %
272 19-12-2019 21:12:18 5.8 C 39 %
273 19-12-2019 21:22:17 5.7 C 39 %
274 19-12-2019 21:32:17 5.8 C 40 %
275 19-12-2019 21:42:17 6 C 40 %
Sensor: Nr:Datum:Temp:Feuchte:
Aussen-T/F 276 19-12-2019 21:52:17 5.7 C 40 %
277 19-12-2019 22:02:17 5.6 C 40 %
278 19-12-2019 22:12:17 5.8 C 41 %
279 19-12-2019 22:22:18 6.2 C 41 %
280 19-12-2019 22:32:18 5.9 C 40 %
281 19-12-2019 22:42:18 5.1 C 38 %
282 19-12-2019 22:52:17 5 C 41 %
283 19-12-2019 23:02:17 5.4 C 43 %
284 19-12-2019 23:12:17 5.5 C 42 %
285 19-12-2019 23:22:17 5.5 C 42 %
286 19-12-2019 23:32:17 5.4 C 42 %
287 19-12-2019 23:42:17 5.4 C 42 %
288 19-12-2019 23:52:17 5.1 C 41 %
289 20-12-2019 00:02:17 4.8 C 42 %
290 20-12-2019 00:12:17 4.3 C 41 %
291 20-12-2019 00:22:17 4 C 41 %
292 20-12-2019 00:32:17 3.9 C 43 %
293 20-12-2019 00:42:17 3.7 C 42 %
294 20-12-2019 00:52:17 3.4 C 43 %
295 20-12-2019 01:02:17 3.1 C 42 %
296 20-12-2019 01:12:17 3 C 43 %
297 20-12-2019 01:22:17 3.3 C 44 %
298 20-12-2019 01:32:17 3.1 C 43 %
299 20-12-2019 01:42:17 3.1 C 43 %
300 20-12-2019 01:52:17 2.8 C 44 %
Sensor: Nr:Datum:Temp:Feuchte:
Aussen-T/F 301 20-12-2019 02:02:17 2.8 C 44 %
302 20-12-2019 02:12:17 2.6 C 44 %
303 20-12-2019 02:22:17 2.5 C 44 %
304 20-12-2019 02:32:18 3.2 C 44 %
305 20-12-2019 02:42:18 3.4 C 44 %
306 20-12-2019 02:52:17 3.8 C 44 %
307 20-12-2019 03:02:17 4.7 C 42 %
308 20-12-2019 03:12:17 4.2 C 41 %
309 20-12-2019 03:22:17 4.6 C 41 %
310 20-12-2019 03:32:17 4.4 C 40 %
311 20-12-2019 03:42:17 4.4 C 40 %
312 20-12-2019 03:52:17 4.6 C 41 %
313 20-12-2019 04:02:17 4.4 C 40 %
314 20-12-2019 04:12:17 4.2 C 40 %
315 20-12-2019 04:22:17 4 C 41 %
316 20-12-2019 04:32:18 4.8 C 42 %
317 20-12-2019 04:42:18 4.5 C 41 %
318 20-12-2019 04:52:17 4.7 C 40 %
319 20-12-2019 05:02:17 4.7 C 40 %
320 20-12-2019 05:12:17 5.3 C 38 %
321 20-12-2019 05:22:17 5.2 C 36 %
322 20-12-2019 05:32:17 5.3 C 36 %
323 20-12-2019 05:42:17 5.4 C 35 %
324 20-12-2019 05:52:18 5.5 C 35 %
325 20-12-2019 06:02:18 5.2 C 35 %
Sensor: Nr:Datum:Temp:Feuchte:
Aussen-T/F 326 20-12-2019 06:12:18 5.3 C 35 %
327 20-12-2019 06:22:17 5.6 C 35 %
328 20-12-2019 06:32:17 6 C 32 %
329 20-12-2019 06:42:17 6 C 31 %
330 20-12-2019 06:52:17 5.7 C 32 %
331 20-12-2019 07:02:17 5.8 C 31 %
332 20-12-2019 07:12:17 5.9 C 31 %
333 20-12-2019 07:22:17 6.1 C 31 %
334 20-12-2019 07:32:17 5.9 C 33 %
335 20-12-2019 07:42:17 6.4 C 31 %
336 20-12-2019 07:52:17 6.8 C 30 %
337 20-12-2019 08:02:17 7.1 C 27 %
338 20-12-2019 08:12:17 6.4 C 31 %
339 20-12-2019 08:22:17 6.4 C 32 %
340 20-12-2019 08:32:18 6.5 C 32 %
341 20-12-2019 08:42:18 6.3 C 32 %
342 20-12-2019 08:52:17 6.3 C 33 %
343 20-12-2019 09:02:17 6.5 C 33 %
344 20-12-2019 09:12:17 6.7 C 31 %
345 20-12-2019 09:22:17 6.5 C 33 %
346 20-12-2019 09:32:17 6.4 C 35 %
347 20-12-2019 09:42:17 6.5 C 35 %
348 20-12-2019 09:52:17 6.5 C 34 %
349 20-12-2019 10:02:17 6.2 C 31 %
350 20-12-2019 10:12:17 6 C 33 %
Sensor: Nr:Datum:Temp:Feuchte:
Aussen-T/F 351 20-12-2019 10:22:17 5.7 C 35 %
352 20-12-2019 10:32:17 5.8 C 40 %
353 20-12-2019 10:42:17 5.9 C 42 %
354 20-12-2019 10:52:17 6 C 42 %
355 20-12-2019 11:02:17 6.1 C 42 %
356 20-12-2019 11:12:17 6 C 42 %
357 20-12-2019 11:22:17 6.3 C 42 %
358 20-12-2019 11:32:17 6.5 C 42 %
359 20-12-2019 11:42:17 6.7 C 41 %
360 20-12-2019 11:52:17 6.8 C 40 %
361 20-12-2019 12:02:18 7 C 39 %
362 20-12-2019 12:12:18 7.3 C 39 %
363 20-12-2019 12:22:18 7.5 C 39 %
364 20-12-2019 12:32:17 7.7 C 39 %
365 20-12-2019 12:42:18 8 C 39 %
366 20-12-2019 12:52:17 8.1 C 38 %
367 20-12-2019 13:02:18 8.1 C 39 %
368 20-12-2019 13:12:18 8.2 C 39 %
369 20-12-2019 13:22:17 8.3 C 37 %
370 20-12-2019 13:32:17 8.4 C 36 %
371 20-12-2019 13:42:17 8.6 C 37 %
372 20-12-2019 13:52:17 8.5 C 36 %
373 20-12-2019 14:02:17 8.6 C 36 %
374 20-12-2019 14:12:17 8.6 C 35 %
375 20-12-2019 14:22:17 8.7 C 36 %
Sensor: Nr:Datum:Temp:Feuchte:
Aussen-T/F 376 20-12-2019 14:32:17 8.7 C 36 %
377 20-12-2019 14:42:17 8.5 C 35 %
378 20-12-2019 14:52:18 8.3 C 36 %
379 20-12-2019 15:02:17 8.2 C 37 %
380 20-12-2019 15:12:17 8.3 C 38 %
381 20-12-2019 15:22:17 8.3 C 39 %
382 20-12-2019 15:32:17 8.2 C 40 %
383 20-12-2019 15:42:17 8.3 C 41 %
384 20-12-2019 15:52:17 8.2 C 40 %
385 20-12-2019 16:02:17 8.2 C 40 %
386 20-12-2019 16:12:18 8.3 C 40 %
387 20-12-2019 16:22:17 8.3 C 41 %
388 20-12-2019 16:32:17 8.4 C 41 %
389 20-12-2019 16:42:17 8.4 C 41 %
390 20-12-2019 16:52:18 8.6 C 41 %
391 20-12-2019 17:02:17 9 C 41 %
392 20-12-2019 17:12:18 9 C 40 %
393 20-12-2019 17:22:17 9.1 C 36 %
394 20-12-2019 17:32:17 8.7 C 38 %
395 20-12-2019 17:42:17 8.8 C 37 %
396 20-12-2019 17:52:18 8.7 C 38 %
397 20-12-2019 18:02:17 8.9 C 37 %
398 20-12-2019 18:12:17 8.9 C 36 %
399 20-12-2019 18:22:17 8.9 C 37 %
400 20-12-2019 18:32:17 8.9 C 37 %
Sensor: Nr:Datum:Temp:Feuchte:
Aussen-T/F 401 20-12-2019 18:42:17 9.7 C 33 %
402 20-12-2019 18:52:18 9.5 C 31 %
403 20-12-2019 19:02:17 9.8 C 30 %
404 20-12-2019 19:12:17 10.1 C 28 %
405 20-12-2019 19:22:17 9.9 C 29 %
406 20-12-2019 19:32:17 9.8 C 29 %
407 20-12-2019 19:42:17 10 C 27 %
408 20-12-2019 19:52:18 9.7 C 29 %
409 20-12-2019 20:02:18 9.6 C 28 %
410 20-12-2019 20:12:18 9.5 C 28 %
411 20-12-2019 20:22:17 9.5 C 27 %
412 20-12-2019 20:32:18 9 C 28 %
413 20-12-2019 20:42:18 9 C 27 %
414 20-12-2019 20:52:17 8.9 C 28 %
415 20-12-2019 21:02:18 8.5 C 28 %
416 20-12-2019 21:12:18 8.6 C 28 %
417 20-12-2019 21:22:17 8.9 C 27 %
418 20-12-2019 21:32:17 8.7 C 27 %
419 20-12-2019 21:42:17 8.3 C 28 %
420 20-12-2019 21:52:17 8.3 C 28 %
421 20-12-2019 22:02:17 8.3 C 28 %
422 20-12-2019 22:12:17 8.1 C 28 %
423 20-12-2019 22:22:17 8.7 C 27 %
424 20-12-2019 22:32:17 8.9 C 26 %
425 20-12-2019 22:42:17 8.7 C 27 %
Sensor: Nr:Datum:Temp:Feuchte:
Aussen-T/F 426 20-12-2019 22:52:17 8.7 C 27 %
427 20-12-2019 23:02:17 8.5 C 27 %
428 20-12-2019 23:12:17 8.4 C 27 %
429 20-12-2019 23:22:17 8.2 C 28 %
430 20-12-2019 23:32:17 8 C 28 %
431 20-12-2019 23:42:17 8.3 C 27 %
432 20-12-2019 23:52:18 8.1 C 27 %
433 21-12-2019 00:02:17 7.9 C 28 %
434 21-12-2019 00:12:17 7.7 C 28 %
435 21-12-2019 00:22:17 7.5 C 30 %
436 21-12-2019 00:32:17 7.5 C 30 %
437 21-12-2019 00:42:17 7.2 C 30 %
438 21-12-2019 00:52:18 7 C 30 %
439 21-12-2019 01:02:17 6.9 C 32 %
440 21-12-2019 01:12:17 7.3 C 31 %
441 21-12-2019 01:22:17 7.4 C 31 %
442 21-12-2019 01:32:17 7.3 C 32 %
443 21-12-2019 01:42:17 7.5 C 31 %
444 21-12-2019 01:52:17 7.5 C 32 %
445 21-12-2019 02:02:17 7.9 C 30 %
446 21-12-2019 02:12:17 8 C 29 %
447 21-12-2019 02:22:17 8.2 C 28 %
448 21-12-2019 02:32:18 7.8 C 30 %
449 21-12-2019 02:42:18 7.8 C 30 %
450 21-12-2019 02:52:17 7.8 C 30 %
Sensor: Nr:Datum:Temp:Feuchte:
Aussen-T/F 451 21-12-2019 03:02:17 7.5 C 30 %
452 21-12-2019 03:12:17 7.5 C 31 %
453 21-12-2019 03:22:17 7.4 C 31 %
454 21-12-2019 03:32:18 7.3 C 31 %
455 21-12-2019 03:42:18 7.1 C 31 %
456 21-12-2019 03:52:17 7.1 C 32 %
457 21-12-2019 04:02:17 6.9 C 33 %
458 21-12-2019 04:12:17 6.7 C 36 %
459 21-12-2019 04:22:17 6.4 C 37 %
460 21-12-2019 04:32:18 6 C 38 %
461 21-12-2019 04:42:18 5.9 C 38 %
462 21-12-2019 04:52:17 5.7 C 40 %
463 21-12-2019 05:02:17 6 C 40 %
464 21-12-2019 05:12:17 5.6 C 39 %
465 21-12-2019 05:22:17 5.4 C 38 %
466 21-12-2019 05:32:18 5.4 C 38 %
467 21-12-2019 05:42:18 5.1 C 38 %
468 21-12-2019 05:52:17 5.3 C 40 %
469 21-12-2019 06:02:17 4.9 C 41 %
470 21-12-2019 06:12:17 4.8 C 41 %
471 21-12-2019 06:22:18 4.3 C 40 %
472 21-12-2019 06:32:17 4.3 C 42 %
473 21-12-2019 06:42:17 5 C 40 %
474 21-12-2019 06:52:18 3.8 C 41 %
475 21-12-2019 07:02:17 3.8 C 43 %
Sensor: Nr:Datum:Temp:Feuchte:
Aussen-T/F 476 21-12-2019 07:12:18 3.5 C 42 %
477 21-12-2019 07:22:17 3.4 C 43 %
478 21-12-2019 07:32:17 3.3 C 43 %
479 21-12-2019 07:42:17 3 C 42 %
480 21-12-2019 07:52:17 3 C 43 %
481 21-12-2019 08:02:17 3.1 C 44 %
482 21-12-2019 08:12:17 3.6 C 44 %
483 21-12-2019 08:22:17 3.7 C 44 %
484 21-12-2019 08:32:17 3.9 C 43 %
485 21-12-2019 08:42:17 4.6 C 43 %
486 21-12-2019 08:52:17 4.9 C 42 %
487 21-12-2019 09:02:17 5 C 39 %
488 21-12-2019 09:12:17 4.5 C 38 %
489 21-12-2019 09:22:17 4.4 C 38 %
490 21-12-2019 09:32:17 4.4 C 39 %
491 21-12-2019 09:42:17 4.6 C 40 %
492 21-12-2019 09:52:17 4.6 C 38 %
493 21-12-2019 10:02:17 4.8 C 38 %
494 21-12-2019 10:12:17 4.8 C 37 %
495 21-12-2019 10:22:17 5.1 C 37 %
496 21-12-2019 10:32:17 5.2 C 36 %
497 21-12-2019 10:42:17 5.1 C 37 %
498 21-12-2019 10:52:17 5.2 C 37 %
499 21-12-2019 11:02:17 5.3 C 37 %
500 21-12-2019 11:12:17 5.3 C 37 %
Sensor: Nr:Datum:Temp:Feuchte:
Aussen-T/F 501 21-12-2019 11:22:17 5.4 C 37 %
502 21-12-2019 11:32:17 5.8 C 37 %
503 21-12-2019 11:42:17 5.9 C 37 %
504 21-12-2019 11:52:17 5.8 C 37 %
505 21-12-2019 12:02:17 5.8 C 36 %
506 21-12-2019 12:12:17 6.2 C 36 %
507 21-12-2019 12:22:17 6.2 C 35 %
508 21-12-2019 12:32:17 7 C 32 %
509 21-12-2019 12:42:17 6.8 C 33 %
510 21-12-2019 12:52:17 8 C 30 %
511 21-12-2019 13:02:17 7.8 C 30 %
512 21-12-2019 13:12:17 7.1 C 30 %
513 21-12-2019 13:22:17 6.9 C 31 %
514 21-12-2019 13:32:17 7.2 C 30 %
515 21-12-2019 13:42:17 8 C 28 %
516 21-12-2019 13:52:18 7.7 C 28 %
517 21-12-2019 14:02:17 8.3 C 27 %
518 21-12-2019 14:12:17 8.8 C 26 %
519 21-12-2019 14:22:17 8.2 C 27 %
520 21-12-2019 14:32:18 8.2 C 27 %
521 21-12-2019 14:42:18 8.5 C 27 %
522 21-12-2019 14:52:17 8.8 C 26 %
523 21-12-2019 15:02:18 9 C 25 %
524 21-12-2019 15:12:18 8.7 C 26 %
525 21-12-2019 15:22:18 8.8 C 25 %
Sensor: Nr:Datum:Temp:Feuchte:
Aussen-T/F 526 21-12-2019 15:32:17 8.7 C 25 %
527 21-12-2019 15:42:17 8 C 26 %
528 21-12-2019 15:52:17 7.5 C 28 %
529 21-12-2019 16:02:17 7.7 C 27 %
530 21-12-2019 16:12:17 7.6 C 29 %
531 21-12-2019 16:22:17 7.4 C 30 %
532 21-12-2019 16:32:17 7.4 C 30 %
533 21-12-2019 16:42:17 7.7 C 28 %
534 21-12-2019 16:52:17 7.9 C 27 %
535 21-12-2019 17:02:17 7.6 C 29 %
536 21-12-2019 17:12:17 7.3 C 30 %
537 21-12-2019 17:22:17 7.2 C 30 %
538 21-12-2019 17:32:17 7.3 C 30 %
539 21-12-2019 17:42:17 7.3 C 29 %
540 21-12-2019 17:52:17 7.2 C 29 %
541 21-12-2019 18:02:17 7.6 C 27 %
542 21-12-2019 18:12:17 7.6 C 27 %
543 21-12-2019 18:22:17 7.6 C 26 %
544 21-12-2019 18:32:18 7.9 C 25 %
545 21-12-2019 18:42:18 7.7 C 26 %
546 21-12-2019 18:52:17 7.5 C 26 %
547 21-12-2019 19:02:17 7.3 C 27 %
548 21-12-2019 19:12:17 7 C 27 %
549 21-12-2019 19:22:17 7 C 27 %
550 21-12-2019 19:32:17 6.9 C 30 %
Sensor: Nr:Datum:Temp:Feuchte:
Aussen-T/F 551 21-12-2019 19:42:17 6.8 C 30 %
552 21-12-2019 19:52:17 7 C 27 %
553 21-12-2019 20:02:17 7.1 C 26 %
554 21-12-2019 20:12:17 7.1 C 26 %
555 21-12-2019 20:22:17 7.1 C 26 %
556 21-12-2019 20:32:17 6.9 C 28 %
557 21-12-2019 20:42:17 7 C 27 %
558 21-12-2019 20:52:17 6.8 C 27 %
559 21-12-2019 21:02:18 6.4 C 29 %
560 21-12-2019 21:12:18 6.1 C 30 %
561 21-12-2019 21:22:17 6.1 C 31 %
562 21-12-2019 21:32:17 6.3 C 31 %
563 21-12-2019 21:42:17 5.9 C 31 %
564 21-12-2019 21:52:18 5.1 C 34 %
565 21-12-2019 22:02:18 4.9 C 36 %
566 21-12-2019 22:12:18 5.2 C 34 %
567 21-12-2019 22:22:17 5.7 C 30 %
568 21-12-2019 22:32:17 6.1 C 27 %
569 21-12-2019 22:42:17 6.1 C 27 %
570 21-12-2019 22:52:17 6 C 27 %
571 21-12-2019 23:02:17 5.8 C 27 %
572 21-12-2019 23:12:17 5.8 C 27 %
573 21-12-2019 23:22:17 6.3 C 26 %
574 21-12-2019 23:32:18 6.5 C 25 %
575 21-12-2019 23:42:18 6.7 C 25 %
Sensor: Nr:Datum:Temp:Feuchte:
Aussen-T/F 576 21-12-2019 23:52:17 6.3 C 26 %
577 22-12-2019 00:02:17 6.8 C 26 %
578 22-12-2019 00:12:17 6.9 C 26 %
579 22-12-2019 00:22:17 6.8 C 26 %
580 22-12-2019 00:32:17 6.8 C 26 %
581 22-12-2019 00:42:17 6.7 C 27 %
582 22-12-2019 00:52:17 6.3 C 30 %
583 22-12-2019 01:02:17 6.2 C 30 %
584 22-12-2019 01:12:18 5.8 C 35 %
585 22-12-2019 01:22:17 5.8 C 36 %
586 22-12-2019 01:32:17 5.8 C 39 %
587 22-12-2019 01:42:17 5.7 C 40 %
588 22-12-2019 01:52:17 5.7 C 40 %
589 22-12-2019 02:02:17 5.7 C 38 %
590 22-12-2019 02:12:18 5.7 C 38 %
591 22-12-2019 02:22:17 5.8 C 38 %
592 22-12-2019 02:32:17 5.9 C 37 %
593 22-12-2019 02:42:17 5.9 C 36 %
594 22-12-2019 02:52:18 6 C 35 %
595 22-12-2019 03:02:17 6.1 C 35 %
596 22-12-2019 03:12:17 6.2 C 34 %
597 22-12-2019 03:22:17 6.2 C 35 %
598 22-12-2019 03:32:17 6.2 C 34 %
599 22-12-2019 03:42:17 6.1 C 35 %
600 22-12-2019 03:52:17 6.2 C 35 %
Sensor: Nr:Datum:Temp:Feuchte:
Aussen-T/F 601 22-12-2019 04:02:18 6.2 C 35 %
602 22-12-2019 04:12:18 6 C 35 %
603 22-12-2019 04:22:17 6.2 C 34 %
604 22-12-2019 04:32:17 6.2 C 34 %
605 22-12-2019 04:42:17 6.3 C 33 %
606 22-12-2019 04:52:17 6.3 C 33 %
607 22-12-2019 05:02:17 6.2 C 34 %
608 22-12-2019 05:12:17 5.8 C 34 %
609 22-12-2019 05:22:17 5.4 C 36 %
610 22-12-2019 05:32:17 5.7 C 40 %
611 22-12-2019 05:42:17 6.1 C 38 %
612 22-12-2019 05:52:17 5.5 C 35 %
613 22-12-2019 06:02:17 5.1 C 39 %
614 22-12-2019 06:12:17 5.3 C 41 %
615 22-12-2019 06:22:17 4.9 C 41 %
616 22-12-2019 06:32:17 5.4 C 42 %
617 22-12-2019 06:42:17 5.9 C 41 %
618 22-12-2019 06:52:17 6.2 C 39 %
619 22-12-2019 07:02:17 6.2 C 38 %
620 22-12-2019 07:12:17 6 C 38 %
621 22-12-2019 07:22:17 5.7 C 38 %
622 22-12-2019 07:32:17 5.4 C 39 %
623 22-12-2019 07:42:17 6 C 42 %
624 22-12-2019 07:52:17 6.1 C 41 %
625 22-12-2019 08:02:18 6.3 C 41 %
Sensor: Nr:Datum:Temp:Feuchte:
Aussen-T/F 626 22-12-2019 08:12:18 6.2 C 40 %
627 22-12-2019 08:22:17 5.9 C 40 %
628 22-12-2019 08:32:17 5.8 C 41 %
629 22-12-2019 08:42:17 6.3 C 41 %
630 22-12-2019 08:52:18 6.2 C 39 %
631 22-12-2019 09:02:17 6 C 39 %
632 22-12-2019 09:12:17 6.2 C 40 %
633 22-12-2019 09:22:17 6.4 C 39 %
634 22-12-2019 09:32:17 6.3 C 39 %
635 22-12-2019 09:42:17 6.8 C 39 %
636 22-12-2019 09:52:17 7 C 37 %
637 22-12-2019 10:02:17 7.1 C 37 %
638 22-12-2019 10:12:17 7.9 C 33 %
639 22-12-2019 10:22:17 8.1 C 33 %
640 22-12-2019 10:32:17 8.8 C 30 %
641 22-12-2019 10:42:17 9 C 29 %
642 22-12-2019 10:52:17 9.3 C 28 %
643 22-12-2019 11:02:17 9.5 C 28 %
644 22-12-2019 11:12:17 10 C 26 %
645 22-12-2019 11:22:17 10 C 26 %
646 22-12-2019 11:32:18 10.4 C 26 %
647 22-12-2019 11:42:18 10.2 C 26 %
648 22-12-2019 11:52:17 10.4 C 26 %
649 22-12-2019 12:02:17 10.5 C 25 %
650 22-12-2019 12:12:17 10.5 C 26 %
Sensor: Nr:Datum:Temp:Feuchte:
Aussen-T/F 651 22-12-2019 12:22:17 10.5 C 25 %
652 22-12-2019 12:32:17 10.7 C 26 %
653 22-12-2019 12:42:17 10.8 C 26 %
654 22-12-2019 12:52:17 11.2 C 25 %
655 22-12-2019 13:02:17 11.1 C 25 %
656 22-12-2019 13:12:17 10.8 C 25 %
657 22-12-2019 13:22:17 10.7 C 25 %
658 22-12-2019 13:32:17 10.7 C 25 %
659 22-12-2019 13:42:17 10.7 C 25 %
660 22-12-2019 13:52:17 10.8 C 25 %
661 22-12-2019 14:02:17 11.1 C 23 %
662 22-12-2019 14:12:17 11 C 23 %
663 22-12-2019 14:22:17 10.8 C 23 %
664 22-12-2019 14:32:17 10.9 C 23 %
665 22-12-2019 14:42:17 10.8 C 23 %
666 22-12-2019 14:52:17 10.7 C 25 %
667 22-12-2019 15:02:17 10.6 C 25 %
668 22-12-2019 15:12:17 10.3 C 25 %
669 22-12-2019 15:22:17 10.1 C 25 %
670 22-12-2019 15:32:17 9.9 C 26 %
671 22-12-2019 15:42:17 9.7 C 26 %
672 22-12-2019 15:52:18 9.6 C 25 %
673 22-12-2019 16:02:18 9.6 C 25 %
674 22-12-2019 16:12:18 9.3 C 25 %
675 22-12-2019 16:22:17 8.9 C 26 %
Sensor: Nr:Datum:Temp:Feuchte:
Aussen-T/F 676 22-12-2019 16:32:17 8.3 C 26 %
677 22-12-2019 16:42:17 8.4 C 27 %
678 22-12-2019 16:52:17 7.9 C 28 %
679 22-12-2019 17:02:18 7.5 C 30 %
680 22-12-2019 17:12:18 7.5 C 30 %
681 22-12-2019 17:22:17 7.4 C 30 %
682 22-12-2019 17:32:17 7.5 C 29 %
683 22-12-2019 17:42:17 7.5 C 28 %
684 22-12-2019 17:52:17 7.2 C 28 %
685 22-12-2019 18:02:17 7.2 C 30 %
686 22-12-2019 18:12:17 7.1 C 30 %
687 22-12-2019 18:22:17 7.3 C 30 %
688 22-12-2019 18:32:17 7.4 C 29 %
689 22-12-2019 18:42:17 7.5 C 29 %
690 22-12-2019 18:52:17 7.2 C 29 %
691 22-12-2019 19:02:17 7.1 C 30 %
692 22-12-2019 19:12:17 7 C 31 %
693 22-12-2019 19:22:17 7 C 32 %
694 22-12-2019 19:32:17 7.1 C 31 %
695 22-12-2019 19:42:17 7.5 C 30 %
696 22-12-2019 19:52:17 8 C 27 %
697 22-12-2019 20:02:17 7.9 C 27 %
698 22-12-2019 20:12:17 8.1 C 26 %
699 22-12-2019 20:22:17 8.3 C 25 %
700 22-12-2019 20:32:17 8.2 C 25 %
Sensor: Nr:Datum:Temp:Feuchte:
Aussen-T/F 701 22-12-2019 20:42:17 8 C 25 %
702 22-12-2019 20:52:17 8 C 25 %
703 22-12-2019 21:02:17 8.1 C 25 %
704 22-12-2019 21:12:17 8.1 C 25 %
705 22-12-2019 21:22:17 7.8 C 25 %
706 22-12-2019 21:32:17 8.1 C 25 %
707 22-12-2019 21:42:17 7.8 C 26 %
708 22-12-2019 21:52:17 7.7 C 26 %
709 22-12-2019 22:02:17 7.9 C 26 %
710 22-12-2019 22:12:17 7.6 C 26 %
711 22-12-2019 22:22:17 7.5 C 26 %
712 22-12-2019 22:32:17 7.1 C 27 %
713 22-12-2019 22:42:17 6.9 C 28 %
714 22-12-2019 22:52:17 6.7 C 29 %
715 22-12-2019 23:02:17 6.2 C 31 %
716 22-12-2019 23:12:17 6.4 C 31 %
717 22-12-2019 23:22:17 6.6 C 31 %
718 22-12-2019 23:32:17 6.6 C 31 %
719 22-12-2019 23:42:17 6.7 C 31 %
720 22-12-2019 23:52:17 6.7 C 31 %
721 23-12-2019 00:02:17 6.6 C 32 %
722 23-12-2019 00:12:17 6.5 C 31 %
723 23-12-2019 00:22:17 6.4 C 32 %
724 23-12-2019 00:32:17 6.6 C 31 %
725 23-12-2019 00:42:17 7 C 30 %
Sensor: Nr:Datum:Temp:Feuchte:
Aussen-T/F 726 23-12-2019 00:52:17 6.9 C 30 %
727 23-12-2019 01:02:17 6.8 C 30 %
728 23-12-2019 01:12:17 7.1 C 28 %
729 23-12-2019 01:22:17 7 C 28 %
730 23-12-2019 01:32:17 7.1 C 28 %
731 23-12-2019 01:42:17 7.4 C 27 %
732 23-12-2019 01:52:17 7.4 C 27 %
733 23-12-2019 02:02:17 6.8 C 29 %
734 23-12-2019 02:12:17 6.5 C 30 %
735 23-12-2019 02:22:17 6.8 C 29 %
736 23-12-2019 02:32:17 6.9 C 29 %
737 23-12-2019 02:42:17 7.3 C 28 %
738 23-12-2019 02:52:17 6.9 C 30 %
739 23-12-2019 03:02:17 6.8 C 31 %
740 23-12-2019 03:12:17 6.4 C 31 %
741 23-12-2019 03:22:17 6.5 C 30 %
742 23-12-2019 03:32:17 7 C 28 %
743 23-12-2019 03:42:17 6.6 C 29 %
744 23-12-2019 03:52:17 7 C 28 %
745 23-12-2019 04:02:17 6.9 C 30 %
746 23-12-2019 04:12:17 7.1 C 28 %
747 23-12-2019 04:22:17 6.8 C 30 %
748 23-12-2019 04:32:17 6.9 C 31 %
749 23-12-2019 04:42:17 6.5 C 31 %
750 23-12-2019 04:52:17 6.1 C 31 %
Sensor: Nr:Datum:Temp:Feuchte:
Aussen-T/F 751 23-12-2019 05:02:17 6.4 C 32 %
752 23-12-2019 05:12:17 7 C 30 %
753 23-12-2019 05:22:17 7.1 C 30 %
754 23-12-2019 05:32:17 7 C 30 %
755 23-12-2019 05:42:17 6.8 C 31 %
756 23-12-2019 05:52:17 6.3 C 32 %
757 23-12-2019 06:02:18 6.3 C 34 %
758 23-12-2019 06:12:18 6.6 C 33 %
759 23-12-2019 06:22:17 6.9 C 31 %
760 23-12-2019 06:32:18 7.1 C 30 %
761 23-12-2019 06:42:18 6.9 C 31 %
762 23-12-2019 06:52:17 6.9 C 31 %
763 23-12-2019 07:02:17 6.8 C 32 %
764 23-12-2019 07:12:17 6.8 C 34 %
765 23-12-2019 07:22:17 6.8 C 32 %
766 23-12-2019 07:32:17 7.1 C 30 %
767 23-12-2019 07:42:17 7.4 C 29 %
768 23-12-2019 07:52:17 7.1 C 30 %
769 23-12-2019 08:02:17 7.3 C 30 %
770 23-12-2019 08:12:17 7.4 C 28 %
771 23-12-2019 08:22:17 7.5 C 28 %
772 23-12-2019 08:32:18 7.5 C 28 %
773 23-12-2019 08:42:18 7.6 C 28 %
774 23-12-2019 08:52:17 7.6 C 27 %
775 23-12-2019 09:02:17 7.6 C 27 %
Sensor: Nr:Datum:Temp:Feuchte:
Aussen-T/F 776 23-12-2019 09:12:18 7.7 C 27 %
777 23-12-2019 09:22:17 7.8 C 27 %
778 23-12-2019 09:32:18 7.8 C 27 %
779 23-12-2019 09:42:18 7.8 C 27 %
780 23-12-2019 09:52:18 7.9 C 26 %
781 23-12-2019 10:02:17 7.3 C 30 %
782 23-12-2019 10:12:18 7 C 33 %
783 23-12-2019 10:22:17 7 C 35 %
784 23-12-2019 10:32:18 6.8 C 35 %
785 23-12-2019 10:42:18 6.9 C 34 %
786 23-12-2019 10:52:17 7.4 C 30 %
787 23-12-2019 11:02:18 7.8 C 28 %
788 23-12-2019 11:12:18 8.1 C 28 %
789 23-12-2019 11:22:17 8.4 C 26 %
790 23-12-2019 11:32:18 8.3 C 26 %
791 23-12-2019 11:42:18 8.6 C 26 %
792 23-12-2019 11:52:17 8.9 C 25 %
793 23-12-2019 12:02:18 9.1 C 25 %
794 23-12-2019 12:12:18 9.1 C 25 %
795 23-12-2019 12:22:17 8.9 C 25 %
796 23-12-2019 12:32:17 9 C 25 %
797 23-12-2019 12:42:17 9.3 C 25 %
798 23-12-2019 12:52:17 8.4 C 26 %
799 23-12-2019 13:02:17 8.4 C 26 %
800 23-12-2019 13:12:17 8.3 C 27 %
Sensor: Nr:Datum:Temp:Feuchte:
Aussen-T/F 801 23-12-2019 13:22:17 8.2 C 27 %
802 23-12-2019 13:32:18 8.1 C 29 %
803 23-12-2019 13:42:18 8.2 C 28 %
804 23-12-2019 13:52:17 8.5 C 28 %
805 23-12-2019 14:02:17 8.9 C 27 %
806 23-12-2019 14:12:17 8.9 C 26 %
807 23-12-2019 14:22:18 9 C 25 %
808 23-12-2019 14:32:17 9.1 C 25 %
809 23-12-2019 14:42:17 9.1 C 25 %
810 23-12-2019 14:52:17 8.9 C 25 %
811 23-12-2019 15:02:18 8.7 C 26 %
812 23-12-2019 15:12:18 9.1 C 25 %
813 23-12-2019 15:22:17 9.1 C 25 %
814 23-12-2019 15:32:17 9 C 25 %
815 23-12-2019 15:42:17 9 C 25 %
816 23-12-2019 15:52:17 8.8 C 25 %
817 23-12-2019 16:02:17 8.8 C 25 %
818 23-12-2019 16:12:17 8.6 C 26 %
819 23-12-2019 16:22:18 8.5 C 25 %
820 23-12-2019 16:32:17 8.4 C 25 %
821 23-12-2019 16:42:17 8.5 C 25 %
822 23-12-2019 16:52:18 8.5 C 25 %
823 23-12-2019 17:02:17 8.2 C 25 %
824 23-12-2019 17:12:17 8.4 C 25 %
825 23-12-2019 17:22:17 8 C 25 %
Sensor: Nr:Datum:Temp:Feuchte:
Aussen-T/F 826 23-12-2019 17:32:17 7.9 C 25 %
827 23-12-2019 17:42:18 7.8 C 25 %
828 23-12-2019 17:52:17 7.8 C 25 %
829 23-12-2019 18:02:17 7.9 C 25 %
830 23-12-2019 18:12:17 8 C 23 %
831 23-12-2019 18:22:17 7.9 C 23 %
832 23-12-2019 18:32:17 7.9 C 25 %
833 23-12-2019 18:42:17 7.6 C 25 %
834 23-12-2019 18:52:17 7.5 C 26 %
835 23-12-2019 19:02:17 7.3 C 26 %
836 23-12-2019 19:12:17 6.7 C 29 %
837 23-12-2019 19:22:17 6.4 C 30 %
838 23-12-2019 19:32:17 7.4 C 26 %
839 23-12-2019 19:42:17 7 C 26 %
840 23-12-2019 19:52:17 7 C 27 %
841 23-12-2019 20:02:17 7 C 28 %
842 23-12-2019 20:12:17 6.5 C 30 %
843 23-12-2019 20:22:17 6.8 C 30 %
844 23-12-2019 20:32:18 6.8 C 30 %
845 23-12-2019 20:42:18 6.9 C 30 %
846 23-12-2019 20:52:17 6.9 C 30 %
847 23-12-2019 21:02:18 6.7 C 30 %
848 23-12-2019 21:12:18 7.1 C 28 %
849 23-12-2019 21:22:17 7 C 28 %
850 23-12-2019 21:32:17 6.7 C 31 %
Sensor: Nr:Datum:Temp:Feuchte:
Aussen-T/F 851 23-12-2019 21:42:17 6.5 C 31 %
852 23-12-2019 21:52:17 6.5 C 32 %
853 23-12-2019 22:02:18 6.4 C 31 %
854 23-12-2019 22:12:18 5.8 C 32 %
855 23-12-2019 22:22:17 5.4 C 37 %
856 23-12-2019 22:32:17 5.7 C 33 %
857 23-12-2019 22:42:17 5.3 C 34 %
858 23-12-2019 22:52:17 5.5 C 34 %
859 23-12-2019 23:02:17 5.4 C 33 %
860 23-12-2019 23:12:17 5.5 C 32 %
861 23-12-2019 23:22:18 5.4 C 30 %
862 23-12-2019 23:32:17 5.8 C 30 %
863 23-12-2019 23:42:17 4.8 C 33 %
864 23-12-2019 23:52:17 4.8 C 36 %
865 24-12-2019 00:02:17 5.6 C 35 %
866 24-12-2019 00:12:17 5.8 C 32 %
867 24-12-2019 00:22:17 5.7 C 32 %
868 24-12-2019 00:32:18 6 C 32 %
869 24-12-2019 00:42:18 6.1 C 31 %
870 24-12-2019 00:52:17 6.3 C 31 %
871 24-12-2019 01:02:17 5.6 C 32 %
872 24-12-2019 01:12:17 5.9 C 32 %
873 24-12-2019 01:22:17 6.1 C 30 %
874 24-12-2019 01:32:17 6.3 C 30 %
875 24-12-2019 01:42:17 5.9 C 31 %
Sensor: Nr:Datum:Temp:Feuchte:
Aussen-T/F 876 24-12-2019 01:52:17 5.7 C 33 %
877 24-12-2019 02:02:17 5.7 C 35 %
878 24-12-2019 02:12:17 5.8 C 35 %
879 24-12-2019 02:22:17 5.6 C 35 %
880 24-12-2019 02:32:18 5.5 C 36 %
881 24-12-2019 02:42:18 5.5 C 36 %
882 24-12-2019 02:52:17 6.6 C 30 %
883 24-12-2019 03:02:18 6.7 C 29 %
884 24-12-2019 03:12:18 6.3 C 30 %
885 24-12-2019 03:22:17 5.7 C 31 %
886 24-12-2019 03:32:17 5.5 C 31 %
887 24-12-2019 03:42:17 5.7 C 31 %
888 24-12-2019 03:52:17 5 C 32 %
889 24-12-2019 04:02:17 5 C 38 %
890 24-12-2019 04:12:17 5.2 C 37 %
891 24-12-2019 04:22:17 5.2 C 36 %
892 24-12-2019 04:32:17 4.8 C 37 %
893 24-12-2019 04:42:17 4.8 C 39 %
894 24-12-2019 04:52:17 5.3 C 38 %
895 24-12-2019 05:02:18 5.4 C 35 %
896 24-12-2019 05:12:18 5.2 C 35 %
897 24-12-2019 05:22:17 4.7 C 37 %
898 24-12-2019 05:32:18 5 C 37 %
899 24-12-2019 05:42:18 4.6 C 36 %
900 24-12-2019 05:52:17 4.9 C 37 %
Sensor: Nr:Datum:Temp:Feuchte:
Aussen-T/F 901 24-12-2019 06:02:18 4.3 C 36 %
902 24-12-2019 06:12:18 4.6 C 39 %
903 24-12-2019 06:22:17 4.6 C 38 %
904 24-12-2019 06:32:17 4.6 C 39 %
905 24-12-2019 06:42:17 4.5 C 38 %
906 24-12-2019 06:52:17 4.5 C 39 %
907 24-12-2019 07:02:17 4.8 C 37 %
908 24-12-2019 07:12:17 5 C 36 %
909 24-12-2019 07:22:17 5.4 C 34 %
910 24-12-2019 07:32:17 5.6 C 33 %
911 24-12-2019 07:42:17 5.6 C 32 %
912 24-12-2019 07:52:17 5.8 C 32 %
913 24-12-2019 08:02:17 5.8 C 31 %
914 24-12-2019 08:12:17 6 C 30 %
915 24-12-2019 08:22:17 6.2 C 29 %
916 24-12-2019 08:32:17 6.2 C 30 %
917 24-12-2019 08:42:17 6.3 C 30 %
918 24-12-2019 08:52:18 6.4 C 30 %
919 24-12-2019 09:02:17 6.5 C 29 %
920 24-12-2019 09:12:17 6.8 C 29 %
921 24-12-2019 09:22:17 6.8 C 28 %
922 24-12-2019 09:32:17 6.8 C 29 %
923 24-12-2019 09:42:17 6.8 C 28 %
924 24-12-2019 09:52:17 6.5 C 30 %
925 24-12-2019 10:02:17 6.4 C 30 %
Sensor: Nr:Datum:Temp:Feuchte:
Aussen-T/F 926 24-12-2019 10:12:17 6.2 C 31 %
927 24-12-2019 10:22:17 6.2 C 33 %
928 24-12-2019 10:32:17 6.3 C 37 %
929 24-12-2019 10:42:17 6.8 C 37 %
930 24-12-2019 10:52:17 6.7 C 33 %
931 24-12-2019 11:02:17 6.8 C 35 %
932 24-12-2019 11:12:17 6.9 C 34 %
933 24-12-2019 11:22:17 7.5 C 32 %
934 24-12-2019 11:32:17 8 C 30 %
935 24-12-2019 11:42:17 8.2 C 29 %
936 24-12-2019 11:52:18 8 C 29 %
937 24-12-2019 12:02:17 7.8 C 30 %
938 24-12-2019 12:12:17 7.6 C 30 %
939 24-12-2019 12:22:17 8 C 28 %
940 24-12-2019 12:32:17 8.2 C 27 %
941 24-12-2019 12:42:17 8.4 C 27 %
942 24-12-2019 12:52:18 8.9 C 27 %
943 24-12-2019 13:02:17 9.2 C 25 %
944 24-12-2019 13:12:17 9.3 C 25 %
945 24-12-2019 13:22:17 9.3 C 25 %
946 24-12-2019 13:32:17 9.2 C 26 %
947 24-12-2019 13:42:17 9.3 C 26 %
948 24-12-2019 13:52:17 9.3 C 26 %
949 24-12-2019 14:02:18 9.4 C 25 %
950 24-12-2019 14:12:18 9.5 C 25 %
Sensor: Nr:Datum:Temp:Feuchte:
Aussen-T/F 951 24-12-2019 14:22:17 9.6 C 25 %
952 24-12-2019 14:32:18 9.7 C 25 %
953 24-12-2019 14:42:18 9.3 C 26 %
954 24-12-2019 14:52:17 9.2 C 27 %
955 24-12-2019 15:02:18 9.1 C 27 %
956 24-12-2019 15:12:18 9.5 C 26 %
957 24-12-2019 15:22:17 9.8 C 25 %
958 24-12-2019 15:32:17 10 C 22 %
959 24-12-2019 15:42:17 10.1 C 20 %
960 24-12-2019 15:52:17 10.5 C 20 %
961 24-12-2019 16:02:17 10.1 C 20 %
962 24-12-2019 16:12:17 10 C 20 %
963 24-12-2019 16:22:17 10.2 C 20 %
964 24-12-2019 16:32:17 9.8 C 20 %
965 24-12-2019 16:42:17 9.7 C 21 %
966 24-12-2019 16:52:17 10.1 C 20 %
967 24-12-2019 17:02:17 9.8 C 20 %
968 24-12-2019 17:12:17 9.4 C 20 %
969 24-12-2019 17:22:18 9.6 C 20 %
970 24-12-2019 17:32:17 8.8 C 20 %
971 24-12-2019 17:42:17 9.1 C 20 %
972 24-12-2019 17:52:17 9.3 C 20 %
973 24-12-2019 18:02:17 9 C 20 %
974 24-12-2019 18:12:17 8.5 C 26 %
975 24-12-2019 18:22:17 8.9 C 25 %
Sensor: Nr:Datum:Temp:Feuchte:
Aussen-T/F 976 24-12-2019 18:32:17 8.2 C 28 %
977 24-12-2019 18:42:17 7.8 C 31 %
978 24-12-2019 18:52:17 7.5 C 35 %
979 24-12-2019 19:02:17 7.6 C 31 %
980 24-12-2019 19:12:17 7.3 C 31 %
981 24-12-2019 19:22:17 6.7 C 35 %
982 24-12-2019 19:32:17 6.5 C 40 %
983 24-12-2019 19:42:17 6.5 C 36 %
984 24-12-2019 19:52:17 6.2 C 36 %
985 24-12-2019 20:02:17 6.7 C 35 %
986 24-12-2019 20:12:17 7.3 C 30 %
987 24-12-2019 20:22:17 7.2 C 32 %
988 24-12-2019 20:32:18 7.1 C 30 %
989 24-12-2019 20:42:18 7.3 C 31 %
990 24-12-2019 20:52:17 7.3 C 30 %
991 24-12-2019 21:02:17 7.1 C 31 %
992 24-12-2019 21:12:17 7.7 C 30 %
993 24-12-2019 21:22:17 7.4 C 30 %
994 24-12-2019 21:32:17 7.6 C 30 %
995 24-12-2019 21:42:17 7.9 C 29 %
996 24-12-2019 21:52:17 8.1 C 28 %
997 24-12-2019 22:02:17 8.6 C 26 %
998 24-12-2019 22:12:17 8.5 C 26 %
999 24-12-2019 22:22:17 8.3 C 26 %
1000 24-12-2019 22:32:17 8.4 C 26 %
Sensor: Nr:Datum:Temp:Feuchte:
Aussen-T/F 1001 24-12-2019 22:42:17 8.2 C 27 %
1002 24-12-2019 22:52:17 8 C 28 %
1003 24-12-2019 23:02:17 8.4 C 27 %
1004 24-12-2019 23:12:17 8.4 C 27 %
1005 24-12-2019 23:22:17 8.4 C 27 %
1006 24-12-2019 23:32:17 8.5 C 27 %
1007 24-12-2019 23:42:17 8.5 C 27 %
1008 24-12-2019 23:52:17 8.4 C 27 %
1009 25-12-2019 00:02:17 8.4 C 27 %
1010 25-12-2019 00:12:17 8.4 C 27 %
1011 25-12-2019 00:22:17 8.4 C 28 %
1012 25-12-2019 00:32:17 8.3 C 28 %
1013 25-12-2019 00:42:18 8.2 C 29 %
1014 25-12-2019 00:52:17 8.2 C 29 %
1015 25-12-2019 01:02:17 7.8 C 32 %
1016 25-12-2019 01:12:17 7.7 C 33 %
1017 25-12-2019 01:22:17 7.5 C 35 %
1018 25-12-2019 01:32:18 7.3 C 35 %
1019 25-12-2019 01:42:18 7.5 C 35 %
1020 25-12-2019 01:52:17 7.6 C 33 %
1021 25-12-2019 02:02:17 7.7 C 32 %
1022 25-12-2019 02:12:17 8 C 31 %
1023 25-12-2019 02:22:17 7.9 C 31 %
1024 25-12-2019 02:32:18 7.9 C 31 %
1025 25-12-2019 02:42:18 7.9 C 31 %
Sensor: Nr:Datum:Temp:Feuchte:
Aussen-T/F 1026 25-12-2019 02:52:17 7.9 C 31 %
1027 25-12-2019 03:02:17 7.8 C 31 %
1028 25-12-2019 03:12:17 7.9 C 32 %
1029 25-12-2019 03:22:17 8.1 C 31 %
1030 25-12-2019 03:32:17 8.3 C 30 %
1031 25-12-2019 03:42:17 8.2 C 30 %
1032 25-12-2019 03:52:18 8.2 C 30 %
1033 25-12-2019 04:02:17 7.9 C 34 %
1034 25-12-2019 04:12:17 8 C 34 %
1035 25-12-2019 04:22:18 7.9 C 35 %
1036 25-12-2019 04:32:17 7.9 C 36 %
1037 25-12-2019 04:42:17 7.9 C 38 %
1038 25-12-2019 04:52:17 7.9 C 36 %
1039 25-12-2019 05:02:17 7.9 C 37 %
1040 25-12-2019 05:12:17 7.8 C 37 %
1041 25-12-2019 05:22:18 7.6 C 38 %
1042 25-12-2019 05:32:17 8 C 36 %
1043 25-12-2019 05:42:17 7.9 C 35 %
1044 25-12-2019 05:52:17 7.5 C 35 %
1045 25-12-2019 06:02:18 7.5 C 35 %
1046 25-12-2019 06:12:18 7.2 C 36 %
1047 25-12-2019 06:22:17 7.2 C 37 %
1048 25-12-2019 06:32:18 7.3 C 37 %
1049 25-12-2019 06:42:18 7.3 C 36 %
1050 25-12-2019 06:52:17 7.1 C 39 %
Sensor: Nr:Datum:Temp:Feuchte:
Aussen-T/F 1051 25-12-2019 07:02:18 7.3 C 33 %
1052 25-12-2019 07:12:18 7.1 C 32 %
1053 25-12-2019 07:22:17 6.9 C 35 %
1054 25-12-2019 07:32:18 6.8 C 38 %
1055 25-12-2019 07:42:18 6.9 C 38 %
1056 25-12-2019 07:52:17 7 C 35 %
1057 25-12-2019 08:02:18 6.8 C 32 %
1058 25-12-2019 08:12:18 6.4 C 32 %
1059 25-12-2019 08:22:17 6.2 C 33 %
1060 25-12-2019 08:32:17 6.2 C 32 %
1061 25-12-2019 08:42:17 6.5 C 32 %
1062 25-12-2019 08:52:17 6.7 C 31 %
1063 25-12-2019 09:02:17 6.9 C 30 %
1064 25-12-2019 09:12:17 6.9 C 30 %
1065 25-12-2019 09:22:18 6.8 C 30 %
1066 25-12-2019 09:32:17 7.3 C 28 %
1067 25-12-2019 09:42:17 7.3 C 27 %
1068 25-12-2019 09:52:17 7.3 C 27 %
1069 25-12-2019 10:02:17 7.1 C 29 %
1070 25-12-2019 10:12:17 7.3 C 27 %
1071 25-12-2019 10:22:18 7.6 C 26 %
1072 25-12-2019 10:32:17 7.7 C 26 %
1073 25-12-2019 10:42:17 7.8 C 25 %
1074 25-12-2019 10:52:17 7.5 C 26 %
1075 25-12-2019 11:02:17 7.5 C 26 %
Sensor: Nr:Datum:Temp:Feuchte:
Aussen-T/F 1076 25-12-2019 11:12:17 7.5 C 26 %
1077 25-12-2019 11:22:17 7.7 C 26 %
1078 25-12-2019 11:32:17 7.4 C 26 %
1079 25-12-2019 11:42:17 7.4 C 27 %
1080 25-12-2019 11:52:18 7.1 C 28 %
1081 25-12-2019 12:02:17 7.1 C 29 %
1082 25-12-2019 12:12:17 7.6 C 27 %
1083 25-12-2019 12:22:17 7.6 C 27 %
1084 25-12-2019 12:32:17 7.7 C 27 %
1085 25-12-2019 12:42:17 7.8 C 27 %
1086 25-12-2019 12:52:18 7.6 C 27 %
1087 25-12-2019 13:02:17 7.1 C 29 %
1088 25-12-2019 13:12:17 7 C 31 %
1089 25-12-2019 13:22:18 6.9 C 31 %
1090 25-12-2019 13:32:17 7.1 C 30 %
1091 25-12-2019 13:42:17 7 C 30 %
1092 25-12-2019 13:52:17 6.9 C 30 %
1093 25-12-2019 14:02:17 7.1 C 30 %
1094 25-12-2019 14:12:17 7.4 C 29 %
1095 25-12-2019 14:22:18 7.6 C 28 %
1096 25-12-2019 14:32:17 7.7 C 29 %
1097 25-12-2019 14:42:17 7.6 C 29 %
1098 25-12-2019 14:52:17 7.1 C 31 %
1099 25-12-2019 15:02:17 7.1 C 32 %
1100 25-12-2019 15:12:17 7.1 C 30 %
Sensor: Nr:Datum:Temp:Feuchte:
Aussen-T/F 1101 25-12-2019 15:22:18 7.1 C 31 %
1102 25-12-2019 15:32:17 7.4 C 30 %
1103 25-12-2019 15:42:17 7.3 C 31 %
1104 25-12-2019 15:52:17 7.2 C 30 %
1105 25-12-2019 16:02:17 7.2 C 30 %
1106 25-12-2019 16:12:17 6.9 C 31 %
1107 25-12-2019 16:22:17 6.8 C 32 %
1108 25-12-2019 16:32:17 6.7 C 35 %
1109 25-12-2019 16:42:17 6.9 C 32 %
1110 25-12-2019 16:52:17 6.9 C 31 %
1111 25-12-2019 17:02:17 6.8 C 30 %
1112 25-12-2019 17:12:17 6.7 C 30 %
1113 25-12-2019 17:22:18 6.6 C 31 %
1114 25-12-2019 17:32:17 6.2 C 31 %
1115 25-12-2019 17:42:17 5.7 C 35 %
1116 25-12-2019 17:52:18 5.9 C 35 %
1117 25-12-2019 18:02:17 6 C 33 %
1118 25-12-2019 18:12:17 6.1 C 32 %
1119 25-12-2019 18:22:17 6.2 C 33 %
1120 25-12-2019 18:32:17 6.2 C 33 %
1121 25-12-2019 18:42:17 6.2 C 32 %
1122 25-12-2019 18:52:17 6.2 C 32 %
1123 25-12-2019 19:02:17 6 C 33 %
1124 25-12-2019 19:12:17 5.9 C 33 %
1125 25-12-2019 19:22:17 6.1 C 32 %
Sensor: Nr:Datum:Temp:Feuchte:
Aussen-T/F 1126 25-12-2019 19:32:18 6.1 C 32 %
1127 25-12-2019 19:42:18 6 C 33 %
1128 25-12-2019 19:52:17 5.9 C 33 %
1129 25-12-2019 20:02:17 5.8 C 35 %
1130 25-12-2019 20:12:17 5.9 C 35 %
1131 25-12-2019 20:22:18 5.9 C 34 %
1132 25-12-2019 20:32:17 5.8 C 34 %
1133 25-12-2019 20:42:17 5.6 C 37 %
1134 25-12-2019 20:52:17 5.5 C 38 %
1135 25-12-2019 21:02:18 5.5 C 38 %
1136 25-12-2019 21:12:18 5.4 C 40 %
1137 25-12-2019 21:22:17 5.3 C 41 %
1138 25-12-2019 21:32:17 5.3 C 43 %
1139 25-12-2019 21:42:17 5.3 C 42 %
1140 25-12-2019 21:52:17 5.2 C 42 %
1141 25-12-2019 22:02:18 5.2 C 42 %
1142 25-12-2019 22:12:18 5.1 C 43 %
1143 25-12-2019 22:22:17 5.2 C 42 %
1144 25-12-2019 22:32:18 5.1 C 41 %
1145 25-12-2019 22:42:18 5.1 C 42 %
1146 25-12-2019 22:52:17 5.2 C 42 %
1147 25-12-2019 23:02:18 5.2 C 42 %
1148 25-12-2019 23:12:18 5.2 C 42 %
1149 25-12-2019 23:22:17 5.2 C 42 %
1150 25-12-2019 23:32:17 5.1 C 42 %
Sensor: Nr:Datum:Temp:Feuchte:
Aussen-T/F 1151 25-12-2019 23:42:17 4.7 C 42 %
1152 25-12-2019 23:52:17 4.5 C 42 %
1153 26-12-2019 00:02:17 4.6 C 43 %
1154 26-12-2019 00:12:18 4 C 42 %
1155 26-12-2019 00:22:17 3.6 C 42 %
1156 26-12-2019 00:32:18 3.9 C 44 %
1157 26-12-2019 00:42:18 3.9 C 44 %
1158 26-12-2019 00:52:17 4.1 C 43 %
1159 26-12-2019 01:02:18 4.4 C 43 %
1160 26-12-2019 01:12:18 4.3 C 43 %
1161 26-12-2019 01:22:17 4.3 C 43 %
1162 26-12-2019 01:32:17 4.4 C 43 %
1163 26-12-2019 01:42:17 4.4 C 43 %
1164 26-12-2019 01:52:17 4.3 C 42 %
1165 26-12-2019 02:02:18 4.3 C 42 %
1166 26-12-2019 02:12:18 4.4 C 42 %
1167 26-12-2019 02:22:17 4.2 C 42 %
1168 26-12-2019 02:32:17 4 C 42 %
1169 26-12-2019 02:42:17 4 C 42 %
1170 26-12-2019 02:52:17 4.2 C 42 %
1171 26-12-2019 03:02:18 4.2 C 42 %
1172 26-12-2019 03:12:18 4.1 C 42 %
1173 26-12-2019 03:22:17 4.1 C 42 %
1174 26-12-2019 03:32:17 4.1 C 42 %
1175 26-12-2019 03:42:17 4.1 C 42 %
Sensor: Nr:Datum:Temp:Feuchte:
Aussen-T/F 1176 26-12-2019 03:52:17 3.9 C 43 %
1177 26-12-2019 04:02:17 3.6 C 42 %
1178 26-12-2019 04:12:17 3.6 C 42 %
1179 26-12-2019 04:22:18 3.4 C 42 %
1180 26-12-2019 04:32:17 3 C 42 %
1181 26-12-2019 04:42:17 3.1 C 42 %
1182 26-12-2019 04:52:17 3.1 C 43 %
1183 26-12-2019 05:02:17 3.3 C 43 %
1184 26-12-2019 05:12:17 3.5 C 43 %
1185 26-12-2019 05:22:17 3.4 C 43 %
1186 26-12-2019 05:32:18 3.5 C 43 %
1187 26-12-2019 05:42:18 3.4 C 43 %
1188 26-12-2019 05:52:17 3.5 C 43 %
1189 26-12-2019 06:02:17 3.6 C 43 %
1190 26-12-2019 06:12:18 3.6 C 43 %
1191 26-12-2019 06:22:17 3.5 C 43 %
1192 26-12-2019 06:32:18 3.6 C 43 %
1193 26-12-2019 06:42:18 3.5 C 43 %
1194 26-12-2019 06:52:17 3.5 C 43 %
1195 26-12-2019 07:02:18 3.5 C 43 %
1196 26-12-2019 07:12:18 3.5 C 43 %
1197 26-12-2019 07:22:17 3.4 C 43 %
1198 26-12-2019 07:32:17 3.4 C 43 %
1199 26-12-2019 07:42:17 3.4 C 43 %
1200 26-12-2019 07:52:17 3.4 C 43 %
Sensor: Nr:Datum:Temp:Feuchte:
Aussen-T/F 1201 26-12-2019 08:02:18 3.4 C 43 %
1202 26-12-2019 08:12:18 3.4 C 43 %
1203 26-12-2019 08:22:17 3.5 C 43 %
1204 26-12-2019 08:32:17 3.4 C 43 %
1205 26-12-2019 08:42:17 3.4 C 43 %
1206 26-12-2019 08:52:17 3.5 C 43 %
1207 26-12-2019 09:02:17 3.5 C 43 %
1208 26-12-2019 09:12:17 3.5 C 43 %
1209 26-12-2019 09:22:17 3.4 C 42 %
1210 26-12-2019 09:32:17 3.5 C 43 %
1211 26-12-2019 09:42:17 3.6 C 42 %
1212 26-12-2019 09:52:18 3.6 C 42 %
1213 26-12-2019 10:02:17 3.6 C 42 %
1214 26-12-2019 10:12:17 3.6 C 42 %
1215 26-12-2019 10:22:18 3.8 C 42 %
1216 26-12-2019 10:32:17 4 C 41 %
1217 26-12-2019 10:42:17 4.3 C 41 %
1218 26-12-2019 10:52:18 4.5 C 41 %
1219 26-12-2019 11:02:17 4.7 C 41 %
1220 26-12-2019 11:12:17 4.8 C 41 %
1221 26-12-2019 11:22:17 5 C 40 %
1222 26-12-2019 11:32:17 5.4 C 40 %
1223 26-12-2019 11:42:17 5.5 C 39 %
1224 26-12-2019 11:52:17 5.6 C 37 %
1225 26-12-2019 12:02:17 5.7 C 36 %
Sensor: Nr:Datum:Temp:Feuchte:
Aussen-T/F 1226 26-12-2019 12:12:17 5.7 C 36 %
1227 26-12-2019 12:22:17 5.7 C 35 %
1228 26-12-2019 12:32:18 5.9 C 35 %
1229 26-12-2019 12:42:18 6 C 35 %
1230 26-12-2019 12:52:17 6 C 36 %
1231 26-12-2019 13:02:18 5.9 C 36 %
1232 26-12-2019 13:12:18 5.9 C 37 %
1233 26-12-2019 13:22:17 5.8 C 36 %
1234 26-12-2019 13:32:18 5.8 C 36 %
1235 26-12-2019 13:42:18 5.7 C 36 %
1236 26-12-2019 13:52:17 5.7 C 36 %
1237 26-12-2019 14:02:18 5.7 C 36 %
1238 26-12-2019 14:12:18 5.8 C 35 %
1239 26-12-2019 14:22:17 6 C 35 %
1240 26-12-2019 14:32:17 6 C 35 %
1241 26-12-2019 14:42:17 5.7 C 35 %
1242 26-12-2019 14:52:17 5.6 C 36 %
1243 26-12-2019 15:02:17 5.5 C 36 %
1244 26-12-2019 15:12:17 5.4 C 36 %
1245 26-12-2019 15:22:17 5.1 C 38 %
1246 26-12-2019 15:32:17 5 C 37 %
1247 26-12-2019 15:42:17 4.8 C 39 %
1248 26-12-2019 15:52:18 4.8 C 39 %
1249 26-12-2019 16:02:17 4.7 C 38 %
1250 26-12-2019 16:12:17 4.6 C 39 %
Sensor: Nr:Datum:Temp:Feuchte:
Aussen-T/F 1251 26-12-2019 16:22:17 4.5 C 40 %
1252 26-12-2019 16:32:17 4.4 C 41 %
1253 26-12-2019 16:42:18 4.4 C 40 %
1254 26-12-2019 16:53:17 4.3 C 41 %
1255 26-12-2019 17:02:17 4.4 C 40 %
1256 26-12-2019 17:12:17 4.3 C 40 %
1257 26-12-2019 17:22:17 4.3 C 40 %
1258 26-12-2019 17:32:17 4.4 C 40 %
1259 26-12-2019 17:42:17 4.1 C 40 %
1260 26-12-2019 17:52:17 4.1 C 40 %
1261 26-12-2019 18:02:17 4 C 40 %
1262 26-12-2019 18:12:17 4 C 41 %
1263 26-12-2019 18:22:17 4.1 C 41 %
1264 26-12-2019 18:32:17 4.1 C 41 %
1265 26-12-2019 18:42:18 4.1 C 40 %
1266 26-12-2019 18:53:17 4.1 C 40 %
1267 26-12-2019 19:02:17 4 C 40 %
1268 26-12-2019 19:12:17 4 C 41 %
1269 26-12-2019 19:23:17 4 C 41 %
1270 26-12-2019 19:32:17 3.8 C 41 %
1271 26-12-2019 19:42:17 4 C 41 %
1272 26-12-2019 19:53:17 3.8 C 41 %
1273 26-12-2019 20:02:17 3.8 C 42 %
1274 26-12-2019 20:12:17 3.9 C 42 %
1275 26-12-2019 20:23:17 4 C 41 %
Sensor: Nr:Datum:Temp:Feuchte:
Aussen-T/F 1276 26-12-2019 20:32:17 4.1 C 40 %
1277 26-12-2019 20:42:17 4.2 C 39 %
1278 26-12-2019 20:53:17 4.1 C 38 %
1279 26-12-2019 21:02:17 4.3 C 37 %
1280 26-12-2019 21:12:17 4.2 C 38 %
1281 26-12-2019 21:23:17 4.1 C 38 %
1282 26-12-2019 21:32:18 4.1 C 38 %
1283 26-12-2019 21:42:18 4.2 C 37 %
1284 26-12-2019 21:52:17 4.3 C 37 %
1285 26-12-2019 22:02:18 4.1 C 39 %
1286 26-12-2019 22:12:18 4.1 C 41 %
1287 26-12-2019 22:22:17 4.1 C 41 %
1288 26-12-2019 22:33:17 4.1 C 41 %
1289 26-12-2019 22:43:17 4.1 C 42 %
1290 26-12-2019 22:52:17 4.1 C 42 %
1291 26-12-2019 23:03:17 4.1 C 43 %
1292 26-12-2019 23:13:17 4.1 C 43 %
1293 26-12-2019 23:23:17 4 C 43 %
1294 26-12-2019 23:32:17 4 C 43 %
1295 26-12-2019 23:42:17 4 C 42 %
1296 26-12-2019 23:53:17 4 C 42 %
1297 27-12-2019 00:02:17 4 C 42 %
1298 27-12-2019 00:12:17 4 C 42 %
1299 27-12-2019 00:23:17 4 C 42 %
1300 27-12-2019 00:32:17 4 C 42 %
Sensor: Nr:Datum:Temp:Feuchte:
Aussen-T/F 1301 27-12-2019 00:42:18 4.1 C 42 %
1302 27-12-2019 00:53:17 4.1 C 42 %
1303 27-12-2019 01:03:18 4.1 C 42 %
1304 27-12-2019 01:13:18 4.1 C 42 %
1305 27-12-2019 01:23:17 4.1 C 42 %
1306 27-12-2019 01:33:17 4.1 C 42 %
1307 27-12-2019 01:43:17 4.1 C 42 %
1308 27-12-2019 01:53:18 4.1 C 42 %
1309 27-12-2019 02:03:17 4.1 C 42 %
1310 27-12-2019 02:13:17 4.1 C 42 %
1311 27-12-2019 02:23:17 4.1 C 42 %
1312 27-12-2019 02:33:18 4.1 C 42 %
1313 27-12-2019 02:43:19 4.1 C 42 %
1314 27-12-2019 02:53:17 4.2 C 42 %
1315 27-12-2019 03:03:17 4.3 C 42 %
1316 27-12-2019 03:13:17 4.2 C 42 %
1317 27-12-2019 03:23:17 4.3 C 42 %
1318 27-12-2019 03:33:17 4.3 C 42 %
1319 27-12-2019 03:43:18 4.3 C 42 %
1320 27-12-2019 03:53:17 4.3 C 42 %
1321 27-12-2019 04:03:17 4.3 C 42 %
1322 27-12-2019 04:13:17 4.3 C 42 %
1323 27-12-2019 04:23:17 4.3 C 42 %
1324 27-12-2019 04:33:17 4.3 C 42 %
1325 27-12-2019 04:43:17 4.3 C 42 %
Sensor: Nr:Datum:Temp:Feuchte:
Aussen-T/F 1326 27-12-2019 04:53:18 4.4 C 42 %
1327 27-12-2019 05:03:17 4.4 C 42 %
1328 27-12-2019 05:13:17 4.4 C 42 %
1329 27-12-2019 05:23:17 4.4 C 42 %
1330 27-12-2019 05:33:17 4.3 C 42 %
1331 27-12-2019 05:43:17 4.4 C 42 %
1332 27-12-2019 05:53:17 4.4 C 42 %
1333 27-12-2019 06:03:17 4.4 C 42 %
1334 27-12-2019 06:13:17 4.4 C 42 %
1335 27-12-2019 06:23:17 4.4 C 42 %
1336 27-12-2019 06:33:17 4.4 C 42 %
1337 27-12-2019 06:43:17 4.4 C 42 %
1338 27-12-2019 06:53:17 4.4 C 42 %
1339 27-12-2019 07:03:17 4.5 C 42 %
1340 27-12-2019 07:13:17 4.4 C 42 %
1341 27-12-2019 07:23:18 4.4 C 42 %
1342 27-12-2019 07:33:17 4.4 C 42 %
1343 27-12-2019 07:43:17 4.4 C 42 %
1344 27-12-2019 07:53:17 4.3 C 42 %
1345 27-12-2019 08:03:17 4.3 C 42 %
1346 27-12-2019 08:13:17 4.3 C 42 %
1347 27-12-2019 08:23:17 4.3 C 42 %
1348 27-12-2019 08:33:17 4.3 C 42 %
1349 27-12-2019 08:43:17 4.3 C 42 %
1350 27-12-2019 08:53:18 4.3 C 42 %
Sensor: Nr:Datum:Temp:Feuchte:
Aussen-T/F 1351 27-12-2019 09:03:17 4.4 C 42 %
1352 27-12-2019 09:13:17 4.4 C 42 %
1353 27-12-2019 09:23:17 4.3 C 42 %
1354 27-12-2019 09:33:17 4.5 C 42 %
1355 27-12-2019 09:43:17 4.6 C 42 %
1356 27-12-2019 09:53:17 4.8 C 41 %
1357 27-12-2019 10:03:17 4.9 C 41 %
1358 27-12-2019 10:13:17 4.8 C 40 %
1359 27-12-2019 10:23:17 4.8 C 40 %
1360 27-12-2019 10:33:18 4.9 C 40 %
1361 27-12-2019 10:43:18 4.9 C 40 %
1362 27-12-2019 10:53:17 5 C 38 %
1363 27-12-2019 11:03:18 5 C 38 %
1364 27-12-2019 11:13:18 5.1 C 37 %
1365 27-12-2019 11:23:17 5.1 C 37 %
1366 27-12-2019 11:33:17 5.2 C 36 %
1367 27-12-2019 11:43:17 5.7 C 33 %
1368 27-12-2019 11:53:17 6 C 31 %
1369 27-12-2019 12:03:17 6.1 C 31 %
1370 27-12-2019 12:13:17 5.9 C 31 %
1371 27-12-2019 12:23:17 5.9 C 31 %
1372 27-12-2019 12:33:17 6 C 31 %
1373 27-12-2019 12:43:17 6 C 31 %
1374 27-12-2019 12:53:17 5.9 C 31 %
1375 27-12-2019 13:03:17 5.7 C 31 %
Sensor: Nr:Datum:Temp:Feuchte:
Aussen-T/F 1376 27-12-2019 13:13:17 5.7 C 31 %
1377 27-12-2019 13:23:17 5.6 C 31 %
1378 27-12-2019 13:33:17 5.7 C 31 %
1379 27-12-2019 13:43:17 5.7 C 30 %
1380 27-12-2019 13:53:17 5.8 C 30 %
1381 27-12-2019 14:03:18 5.9 C 30 %
1382 27-12-2019 14:13:18 6.1 C 29 %
1383 27-12-2019 14:23:18 5.9 C 29 %
1384 27-12-2019 14:33:17 6 C 30 %
1385 27-12-2019 14:43:17 5.9 C 28 %
1386 27-12-2019 14:53:18 5.8 C 26 %
1387 27-12-2019 15:03:17 5.7 C 27 %
1388 27-12-2019 15:13:17 5.7 C 28 %
1389 27-12-2019 15:23:18 5.6 C 29 %
1390 27-12-2019 15:33:17 5.6 C 29 %
1391 27-12-2019 15:43:17 5.4 C 30 %
1392 27-12-2019 15:53:17 5.3 C 31 %
1393 27-12-2019 16:03:17 5.1 C 33 %
1394 27-12-2019 16:13:17 4.9 C 33 %
1395 27-12-2019 16:23:17 4.9 C 33 %
1396 27-12-2019 16:33:17 4.8 C 34 %
1397 27-12-2019 16:43:17 4.7 C 33 %
1398 27-12-2019 16:53:17 4.6 C 34 %
1399 27-12-2019 17:03:17 4.5 C 34 %
1400 27-12-2019 17:13:17 4.5 C 35 %
Sensor: Nr:Datum:Temp:Feuchte:
Aussen-T/F 1401 27-12-2019 17:23:17 4.5 C 33 %
1402 27-12-2019 17:33:18 4.5 C 34 %
1403 27-12-2019 17:43:18 4.5 C 34 %
1404 27-12-2019 17:53:17 4.4 C 34 %
1405 27-12-2019 18:03:18 4.4 C 33 %
1406 27-12-2019 18:13:18 4.4 C 33 %
1407 27-12-2019 18:23:17 4.4 C 32 %
1408 27-12-2019 18:33:18 4.4 C 34 %
1409 27-12-2019 18:43:18 4.3 C 34 %
1410 27-12-2019 18:53:17 4.2 C 33 %
1411 27-12-2019 19:03:17 4.2 C 33 %
1412 27-12-2019 19:13:17 4.2 C 33 %
1413 27-12-2019 19:23:17 4.3 C 32 %
1414 27-12-2019 19:33:17 4.2 C 33 %
1415 27-12-2019 19:43:17 4.1 C 34 %
1416 27-12-2019 19:53:18 3.9 C 35 %
1417 27-12-2019 20:03:17 3.8 C 34 %
1418 27-12-2019 20:13:17 4 C 32 %
1419 27-12-2019 20:23:17 4 C 32 %
1420 27-12-2019 20:33:18 4 C 32 %
1421 27-12-2019 20:43:18 4 C 31 %
1422 27-12-2019 20:53:17 4.1 C 31 %
1423 27-12-2019 21:03:18 4.1 C 31 %
1424 27-12-2019 21:13:18 4 C 31 %
1425 27-12-2019 21:23:17 4 C 31 %
Sensor: Nr:Datum:Temp:Feuchte:
Aussen-T/F 1426 27-12-2019 21:33:18 3.9 C 33 %
1427 27-12-2019 21:43:18 3.9 C 32 %
1428 27-12-2019 21:53:17 3.7 C 32 %
1429 27-12-2019 22:03:17 3.6 C 32 %
1430 27-12-2019 22:13:17 3.3 C 32 %
1431 27-12-2019 22:23:17 3.2 C 32 %
1432 27-12-2019 22:33:17 2.7 C 33 %
1433 27-12-2019 22:43:17 2.2 C 34 %
1434 27-12-2019 22:53:17 2 C 35 %
1435 27-12-2019 23:03:18 1.7 C 38 %
1436 27-12-2019 23:13:18 1.3 C 39 %
1437 27-12-2019 23:23:17 1.2 C 41 %
1438 27-12-2019 23:33:17 0.9 C 42 %
1439 27-12-2019 23:43:17 0.8 C 41 %
1440 27-12-2019 23:53:17 0.7 C 41 %
1441 28-12-2019 00:03:17 0.5 C 40 %
1442 28-12-2019 00:13:17 0.4 C 41 %
1443 28-12-2019 00:23:18 0.4 C 41 %
1444 28-12-2019 00:33:17 0.3 C 41 %
1445 28-12-2019 00:43:17 0.3 C 41 %
1446 28-12-2019 00:53:17 0.2 C 40 %
1447 28-12-2019 01:03:17 0.1 C 40 %
1448 28-12-2019 01:13:17 -0.2 C 43 %
1449 28-12-2019 01:23:17 -0.5 C 43 %
1450 28-12-2019 01:33:17 -0.3 C 44 %
Sensor: Nr:Datum:Temp:Feuchte:
Aussen-T/F 1451 28-12-2019 01:43:17 -0.7 C 42 %
1452 28-12-2019 01:53:17 -1.1 C 43 %
1453 28-12-2019 02:03:17 -1.3 C 45 %
1454 28-12-2019 02:13:17 -1.5 C 44 %
1455 28-12-2019 02:23:17 -1.7 C 44 %
1456 28-12-2019 02:33:18 -1.5 C 45 %
1457 28-12-2019 02:43:18 -1.5 C 45 %
1458 28-12-2019 02:53:17 -1.6 C 45 %
1459 28-12-2019 03:03:17 -1.9 C 45 %
1460 28-12-2019 03:13:18 -1.7 C 45 %
1461 28-12-2019 03:23:17 -2.1 C 45 %
1462 28-12-2019 03:33:17 -2.1 C 45 %
1463 28-12-2019 03:43:17 -2.1 C 45 %
1464 28-12-2019 03:53:18 -2.4 C 45 %
1465 28-12-2019 04:03:17 -2.4 C 45 %
1466 28-12-2019 04:13:17 -2.4 C 45 %
1467 28-12-2019 04:23:17 -2.3 C 45 %
1468 28-12-2019 04:33:17 -2.4 C 45 %
1469 28-12-2019 04:43:18 -2.3 C 45 %
1470 28-12-2019 04:53:17 -2.4 C 45 %
1471 28-12-2019 05:03:18 -2.6 C 44 %
1472 28-12-2019 05:13:18 -2.7 C 44 %
1473 28-12-2019 05:23:17 -2.5 C 45 %
1474 28-12-2019 05:33:18 -2.5 C 45 %
1475 28-12-2019 05:43:18 -2.1 C 45 %
Sensor: Nr:Datum:Temp:Feuchte:
Aussen-T/F 1476 28-12-2019 05:53:17 -2.3 C 45 %
1477 28-12-2019 06:03:17 -1.8 C 45 %
1478 28-12-2019 06:13:18 -2.1 C 44 %
1479 28-12-2019 06:23:17 -2.2 C 43 %
1480 28-12-2019 06:33:17 -2 C 44 %
1481 28-12-2019 06:43:18 -1.9 C 44 %
1482 28-12-2019 06:53:17 -2.1 C 43 %
1483 28-12-2019 07:03:18 -2 C 43 %
1484 28-12-2019 07:13:18 -2.3 C 43 %
1485 28-12-2019 07:23:17 -2.8 C 42 %
1486 28-12-2019 07:33:17 -2.3 C 43 %
1487 28-12-2019 07:43:17 -2.4 C 43 %
1488 28-12-2019 07:53:17 -2.2 C 44 %
1489 28-12-2019 08:03:17 -2.6 C 43 %
1490 28-12-2019 08:13:17 -3 C 42 %
1491 28-12-2019 08:23:18 -3.1 C 42 %
1492 28-12-2019 08:33:17 -3.2 C 42 %
1493 28-12-2019 08:43:17 -3.2 C 42 %
1494 28-12-2019 08:53:17 -2.9 C 43 %
1495 28-12-2019 09:03:18 -2.9 C 43 %
1496 28-12-2019 09:13:18 -2.8 C 43 %
1497 28-12-2019 09:23:17 -2.7 C 43 %
1498 28-12-2019 09:33:17 -2.5 C 43 %
1499 28-12-2019 09:43:17 -1.9 C 45 %
1500 28-12-2019 09:53:17 -1.7 C 45 %
Sensor: Nr:Datum:Temp:Feuchte:
Aussen-T/F 1501 28-12-2019 10:03:17 -1.6 C 45 %
1502 28-12-2019 10:13:17 -1.4 C 45 %
1503 28-12-2019 10:23:17 -1.5 C 45 %
1504 28-12-2019 10:33:18 -1.3 C 45 %
1505 28-12-2019 10:43:18 -1.3 C 45 %
1506 28-12-2019 10:53:17 -1.1 C 45 %
1507 28-12-2019 11:03:18 -1 C 44 %
1508 28-12-2019 11:13:18 -0.9 C 44 %
1509 28-12-2019 11:23:17 -0.6 C 44 %
1510 28-12-2019 11:33:17 -0.5 C 43 %
1511 28-12-2019 11:43:18 -0.3 C 42 %
1512 28-12-2019 11:53:17 -0.2 C 42 %
1513 28-12-2019 12:03:17 -0.2 C 41 %
1514 28-12-2019 12:13:17 0 C 41 %
1515 28-12-2019 12:23:17 0.2 C 41 %
1516 28-12-2019 12:33:17 0.3 C 41 %
1517 28-12-2019 12:43:18 0.4 C 40 %
1518 28-12-2019 12:53:17 0.5 C 40 %
1519 28-12-2019 13:03:18 0.7 C 40 %
1520 28-12-2019 13:13:18 0.8 C 40 %
1521 28-12-2019 13:23:17 0.8 C 40 %
1522 28-12-2019 13:33:17 0.9 C 40 %
1523 28-12-2019 13:43:17 0.8 C 40 %
1524 28-12-2019 13:53:17 0.6 C 40 %
1525 28-12-2019 14:03:17 0.6 C 41 %
Sensor: Nr:Datum:Temp:Feuchte:
Aussen-T/F 1526 28-12-2019 14:13:17 0.7 C 41 %
1527 28-12-2019 14:23:17 0.8 C 40 %
1528 28-12-2019 14:33:17 0.7 C 40 %
1529 28-12-2019 14:43:17 0.6 C 40 %
1530 28-12-2019 14:53:17 0.5 C 40 %
1531 28-12-2019 15:03:17 0.5 C 40 %
1532 28-12-2019 15:13:18 0.5 C 40 %
1533 28-12-2019 15:23:17 0.2 C 40 %
1534 28-12-2019 15:33:17 0.4 C 40 %
1535 28-12-2019 15:43:17 0.3 C 39 %
1536 28-12-2019 15:53:18 0.4 C 39 %
1537 28-12-2019 16:03:17 0.3 C 38 %
1538 28-12-2019 16:13:17 0.2 C 38 %
1539 28-12-2019 16:23:17 0 C 39 %
1540 28-12-2019 16:33:17 0 C 39 %
1541 28-12-2019 16:43:17 -0.1 C 38 %
1542 28-12-2019 16:53:17 -0.3 C 39 %
1543 28-12-2019 17:03:17 -0.4 C 39 %
1544 28-12-2019 17:13:17 -0.4 C 40 %
1545 28-12-2019 17:23:17 -0.5 C 40 %
1546 28-12-2019 17:33:18 -0.6 C 40 %
1547 28-12-2019 17:43:18 -0.7 C 41 %
1548 28-12-2019 17:53:17 -1.3 C 41 %
1549 28-12-2019 18:03:17 -1.2 C 44 %
1550 28-12-2019 18:13:17 -1.1 C 43 %
Sensor: Nr:Datum:Temp:Feuchte:
Aussen-T/F 1551 28-12-2019 18:23:17 -1.1 C 43 %
1552 28-12-2019 18:33:17 -0.9 C 43 %
1553 28-12-2019 18:43:17 -1.2 C 43 %
1554 28-12-2019 18:53:17 -0.9 C 43 %
1555 28-12-2019 19:03:17 -1.2 C 42 %
1556 28-12-2019 19:13:18 -1.7 C 42 %
1557 28-12-2019 19:23:17 -1.9 C 43 %
1558 28-12-2019 19:33:18 -1.9 C 44 %
1559 28-12-2019 19:43:18 -1.9 C 44 %
1560 28-12-2019 19:53:17 -1.8 C 44 %
1561 28-12-2019 20:03:17 -1.9 C 44 %
1562 28-12-2019 20:13:17 -1.7 C 45 %
1563 28-12-2019 20:23:17 -1.2 C 45 %
1564 28-12-2019 20:33:18 -1.2 C 43 %
1565 28-12-2019 20:43:18 -1.4 C 43 %
1566 28-12-2019 20:53:18 -1.2 C 44 %
1567 28-12-2019 21:03:17 -1.6 C 43 %
1568 28-12-2019 21:13:17 -1.3 C 44 %
1569 28-12-2019 21:23:17 -1.4 C 41 %
1570 28-12-2019 21:33:17 -1.8 C 41 %
1571 28-12-2019 21:43:18 -1.6 C 43 %
1572 28-12-2019 21:53:17 -1.7 C 42 %
1573 28-12-2019 22:03:18 -1.7 C 42 %
1574 28-12-2019 22:13:18 -2.2 C 41 %
1575 28-12-2019 22:23:17 -2.3 C 42 %
Sensor: Nr:Datum:Temp:Feuchte:
Aussen-T/F 1576 28-12-2019 22:33:17 -2.3 C 42 %
1577 28-12-2019 22:43:17 -2.5 C 42 %
1578 28-12-2019 22:53:17 -2.2 C 43 %
1579 28-12-2019 23:03:17 -2.5 C 42 %
1580 28-12-2019 23:13:17 -2.3 C 43 %
1581 28-12-2019 23:23:17 -2.3 C 43 %
1582 28-12-2019 23:33:17 -2.7 C 42 %
1583 28-12-2019 23:43:17 -2.6 C 43 %
1584 28-12-2019 23:53:17 -2.9 C 42 %
1585 29-12-2019 00:03:18 -2.6 C 43 %
1586 29-12-2019 00:13:18 -2.9 C 43 %
1587 29-12-2019 00:23:17 -3.1 C 42 %
1588 29-12-2019 00:33:17 -3.2 C 43 %
1589 29-12-2019 00:43:17 -3.1 C 43 %
1590 29-12-2019 00:53:17 -3.1 C 43 %
1591 29-12-2019 01:03:17 -3.3 C 42 %
1592 29-12-2019 01:13:17 -3.3 C 43 %
1593 29-12-2019 01:23:17 -3.5 C 42 %
1594 29-12-2019 01:33:17 -3.7 C 42 %
1595 29-12-2019 01:43:17 -3 C 44 %
1596 29-12-2019 01:53:17 -3.5 C 42 %
1597 29-12-2019 02:03:17 -3.7 C 41 %
1598 29-12-2019 02:13:17 -3.8 C 42 %
1599 29-12-2019 02:23:17 -3.3 C 43 %
1600 29-12-2019 02:33:17 -3.7 C 41 %
Sensor: Nr:Datum:Temp:Feuchte:
Aussen-T/F 1601 29-12-2019 02:43:17 -3.7 C 42 %
1602 29-12-2019 02:53:18 -3.8 C 41 %
1603 29-12-2019 03:03:17 -4 C 41 %
1604 29-12-2019 03:13:17 -4 C 42 %
1605 29-12-2019 03:23:17 -4 C 41 %
1606 29-12-2019 03:33:17 -4.1 C 41 %
1607 29-12-2019 03:43:17 -4.1 C 41 %
1608 29-12-2019 03:53:18 -4 C 42 %
1609 29-12-2019 04:03:17 -4.2 C 41 %
1610 29-12-2019 04:13:17 -3.9 C 42 %
1611 29-12-2019 04:23:17 -4.1 C 41 %
1612 29-12-2019 04:33:17 -4.1 C 41 %
1613 29-12-2019 04:43:17 -4.4 C 41 %
1614 29-12-2019 04:53:17 -4.2 C 41 %
1615 29-12-2019 05:03:17 -4.3 C 41 %
1616 29-12-2019 05:13:17 -4.5 C 41 %
1617 29-12-2019 05:23:17 -4.5 C 41 %
1618 29-12-2019 05:33:18 -4.4 C 41 %
1619 29-12-2019 05:43:18 -4.5 C 41 %
1620 29-12-2019 05:53:17 -4.7 C 41 %
1621 29-12-2019 06:03:17 -4.6 C 41 %
1622 29-12-2019 06:13:17 -4.7 C 41 %
1623 29-12-2019 06:23:17 -4.8 C 41 %
1624 29-12-2019 06:33:17 -4.8 C 41 %
1625 29-12-2019 06:43:17 -4.8 C 41 %
Sensor: Nr:Datum:Temp:Feuchte:
Aussen-T/F 1626 29-12-2019 06:53:17 -4.8 C 41 %
1627 29-12-2019 07:03:17 -4.9 C 41 %
1628 29-12-2019 07:13:17 -4.9 C 41 %
1629 29-12-2019 07:23:17 -5 C 41 %
1630 29-12-2019 07:33:17 -4.5 C 42 %
1631 29-12-2019 07:43:17 -4.7 C 41 %
1632 29-12-2019 07:53:17 -4.7 C 41 %
1633 29-12-2019 08:03:17 -4.4 C 42 %
1634 29-12-2019 08:13:17 -4.3 C 42 %
1635 29-12-2019 08:23:18 -3.9 C 43 %
1636 29-12-2019 08:33:17 -4.1 C 41 %
1637 29-12-2019 08:43:17 -4.3 C 41 %
1638 29-12-2019 08:53:17 -4.5 C 40 %
1639 29-12-2019 09:03:17 -4.1 C 42 %
1640 29-12-2019 09:13:17 -3.9 C 42 %
1641 29-12-2019 09:23:18 -4 C 41 %
1642 29-12-2019 09:33:17 -4.1 C 41 %
1643 29-12-2019 09:43:17 -4 C 41 %
1644 29-12-2019 09:53:17 -4 C 41 %
1645 29-12-2019 10:03:18 -4 C 40 %
1646 29-12-2019 10:13:18 -3.9 C 41 %
1647 29-12-2019 10:23:17 -3.5 C 42 %
1648 29-12-2019 10:33:17 -3.3 C 42 %
1649 29-12-2019 10:43:17 -3.1 C 42 %
1650 29-12-2019 10:53:17 -2.6 C 43 %
Sensor: Nr:Datum:Temp:Feuchte:
Aussen-T/F 1651 29-12-2019 11:03:17 -2.1 C 43 %
1652 29-12-2019 11:13:17 -1.8 C 42 %
1653 29-12-2019 11:23:17 -1.4 C 43 %
1654 29-12-2019 11:33:17 -1.3 C 42 %
1655 29-12-2019 11:43:18 -0.8 C 43 %
1656 29-12-2019 11:53:17 -0.4 C 42 %
1657 29-12-2019 12:03:18 -0.5 C 41 %
1658 29-12-2019 12:13:18 -0.3 C 41 %
1659 29-12-2019 12:23:17 0.1 C 40 %
1660 29-12-2019 12:33:17 0.3 C 40 %
1661 29-12-2019 12:43:17 0.5 C 40 %
1662 29-12-2019 12:53:17 0.4 C 40 %
1663 29-12-2019 13:03:17 0.7 C 38 %
1664 29-12-2019 13:13:17 1 C 37 %
1665 29-12-2019 13:23:17 1 C 37 %
1666 29-12-2019 13:33:18 1.4 C 36 %
1667 29-12-2019 13:43:18 1.4 C 38 %
1668 29-12-2019 13:53:17 1.5 C 37 %
1669 29-12-2019 14:03:17 1.5 C 36 %
1670 29-12-2019 14:13:17 1.4 C 37 %
1671 29-12-2019 14:23:17 1.7 C 36 %
1672 29-12-2019 14:33:18 1.9 C 36 %
1673 29-12-2019 14:43:18 2.2 C 34 %
1674 29-12-2019 14:53:17 2.1 C 33 %
1675 29-12-2019 15:03:17 1.9 C 34 %
Sensor: Nr:Datum:Temp:Feuchte:
Aussen-T/F 1676 29-12-2019 15:13:18 2 C 31 %
1677 29-12-2019 15:23:17 2 C 27 %
1678 29-12-2019 15:33:17 1.9 C 30 %
1679 29-12-2019 15:43:17 1.5 C 32 %
1680 29-12-2019 15:53:18 1.1 C 32 %
1681 29-12-2019 16:03:17 0.5 C 35 %
1682 29-12-2019 16:13:17 0.2 C 38 %
1683 29-12-2019 16:23:17 0.2 C 39 %
1684 29-12-2019 16:33:18 -0.3 C 39 %
1685 29-12-2019 16:43:18 -0.1 C 40 %
1686 29-12-2019 16:53:17 -0.2 C 40 %
1687 29-12-2019 17:03:17 -0.2 C 40 %
1688 29-12-2019 17:13:17 -0.3 C 39 %
1689 29-12-2019 17:23:17 -0.3 C 37 %
1690 29-12-2019 17:33:17 -0.3 C 37 %
1691 29-12-2019 17:43:17 -0.1 C 36 %
1692 29-12-2019 17:53:17 -0.2 C 38 %
1693 29-12-2019 18:03:17 -0.1 C 37 %
1694 29-12-2019 18:13:17 0.1 C 37 %
1695 29-12-2019 18:23:17 0.2 C 36 %
1696 29-12-2019 18:33:17 -0.2 C 38 %
1697 29-12-2019 18:43:17 -0.5 C 40 %
1698 29-12-2019 18:53:17 -0.8 C 40 %
1699 29-12-2019 19:03:17 -0.5 C 41 %
1700 29-12-2019 19:13:17 -0.7 C 38 %
Sensor: Nr:Datum:Temp:Feuchte:
Aussen-T/F 1701 29-12-2019 19:23:18 -0.6 C 37 %
1702 29-12-2019 19:33:18 -0.6 C 35 %
1703 29-12-2019 19:43:18 -1 C 35 %
1704 29-12-2019 19:53:17 -1.1 C 36 %
1705 29-12-2019 20:03:18 -0.9 C 34 %
1706 29-12-2019 20:13:18 -1.2 C 36 %
1707 29-12-2019 20:23:17 -0.7 C 35 %
1708 29-12-2019 20:33:17 -1.3 C 37 %
1709 29-12-2019 20:43:17 -0.9 C 39 %
1710 29-12-2019 20:53:17 -1.5 C 39 %
1711 29-12-2019 21:03:17 -1.2 C 38 %
1712 29-12-2019 21:13:17 -1.8 C 37 %
1713 29-12-2019 21:23:17 -1.8 C 40 %
1714 29-12-2019 21:33:18 -1.8 C 41 %
1715 29-12-2019 21:43:18 -2.1 C 42 %
1716 29-12-2019 21:53:17 -2.3 C 42 %
1717 29-12-2019 22:03:17 -2.2 C 43 %
1718 29-12-2019 22:13:17 -2.1 C 43 %
1719 29-12-2019 22:23:17 -2.4 C 42 %
1720 29-12-2019 22:33:17 -2.7 C 42 %
1721 29-12-2019 22:43:18 -2.7 C 43 %
1722 29-12-2019 22:53:17 -2.7 C 43 %
1723 29-12-2019 23:03:17 -2.8 C 43 %
1724 29-12-2019 23:13:17 -2.7 C 44 %
1725 29-12-2019 23:23:17 -2.8 C 43 %
Sensor: Nr:Datum:Temp:Feuchte:
Aussen-T/F 1726 29-12-2019 23:33:18 -3 C 43 %
1727 29-12-2019 23:43:18 -3 C 43 %
1728 29-12-2019 23:53:17 -3 C 42 %
1729 30-12-2019 00:03:17 -3 C 42 %
1730 30-12-2019 00:13:17 -3.1 C 41 %
1731 30-12-2019 00:23:17 -3.1 C 41 %
1732 30-12-2019 00:33:17 -3 C 42 %
1733 30-12-2019 00:43:17 -3.2 C 42 %
1734 30-12-2019 00:53:17 -3.2 C 42 %
1735 30-12-2019 01:03:17 -3.2 C 42 %
1736 30-12-2019 01:13:18 -3.1 C 44 %
1737 30-12-2019 01:23:17 -3.1 C 43 %
1738 30-12-2019 01:33:18 -3.2 C 42 %
1739 30-12-2019 01:43:18 -3.4 C 42 %
1740 30-12-2019 01:53:17 -3.5 C 42 %
1741 30-12-2019 02:03:17 -3.2 C 43 %
1742 30-12-2019 02:13:17 -3.4 C 43 %
1743 30-12-2019 02:23:17 -3.4 C 43 %
1744 30-12-2019 02:33:18 -3.4 C 43 %
1745 30-12-2019 02:43:18 -3.4 C 43 %
1746 30-12-2019 02:53:17 -3.4 C 43 %
1747 30-12-2019 03:03:17 -3.3 C 43 %
1748 30-12-2019 03:13:17 -3.4 C 43 %
1749 30-12-2019 03:23:17 -3.1 C 43 %
1750 30-12-2019 03:33:18 -3.2 C 43 %
Sensor: Nr:Datum:Temp:Feuchte:
Aussen-T/F 1751 30-12-2019 03:43:18 -3.3 C 43 %
1752 30-12-2019 03:53:17 -3.5 C 43 %
1753 30-12-2019 04:03:17 -3.7 C 42 %
1754 30-12-2019 04:13:17 -3.8 C 42 %
1755 30-12-2019 04:23:17 -3.8 C 42 %
1756 30-12-2019 04:33:17 -3.9 C 42 %
1757 30-12-2019 04:43:17 -3.9 C 42 %
1758 30-12-2019 04:53:17 -4 C 42 %
1759 30-12-2019 05:03:17 -3.9 C 42 %
1760 30-12-2019 05:13:17 -3.8 C 42 %
1761 30-12-2019 05:23:17 -3.9 C 42 %
1762 30-12-2019 05:33:17 -3.7 C 43 %
1763 30-12-2019 05:43:17 -3.8 C 43 %
1764 30-12-2019 05:53:18 -4 C 42 %
1765 30-12-2019 06:03:17 -4 C 42 %
1766 30-12-2019 06:13:17 -4 C 42 %
1767 30-12-2019 06:23:17 -3.9 C 42 %
1768 30-12-2019 06:33:17 -3.7 C 43 %
1769 30-12-2019 06:43:17 -3.9 C 42 %
1770 30-12-2019 06:53:17 -4 C 42 %
1771 30-12-2019 07:03:17 -4 C 42 %
1772 30-12-2019 07:13:17 -4.2 C 41 %
1773 30-12-2019 07:23:17 -4.4 C 42 %
1774 30-12-2019 07:33:18 -4.4 C 41 %
1775 30-12-2019 07:43:18 -4.4 C 42 %
Sensor: Nr:Datum:Temp:Feuchte:
Aussen-T/F 1776 30-12-2019 07:53:17 -4.2 C 42 %
1777 30-12-2019 08:03:17 -4.4 C 41 %
1778 30-12-2019 08:13:17 -4.3 C 42 %
1779 30-12-2019 08:23:17 -4.4 C 42 %
1780 30-12-2019 08:33:17 -4.5 C 41 %
1781 30-12-2019 08:43:17 -4 C 43 %
1782 30-12-2019 08:53:17 -4.2 C 41 %
1783 30-12-2019 09:03:18 -4.1 C 42 %
1784 30-12-2019 09:13:18 -3.9 C 42 %
1785 30-12-2019 09:23:17 -3.8 C 42 %
1786 30-12-2019 09:33:17 -3.6 C 43 %
1787 30-12-2019 09:43:17 -3.7 C 42 %
1788 30-12-2019 09:53:17 -3.7 C 42 %
1789 30-12-2019 10:03:17 -3.5 C 42 %
1790 30-12-2019 10:13:17 -3.3 C 43 %
1791 30-12-2019 10:23:17 -3.3 C 42 %
1792 30-12-2019 10:33:17 -3.3 C 42 %
1793 30-12-2019 10:43:17 -3 C 43 %
1794 30-12-2019 10:53:17 -2.9 C 42 %
1795 30-12-2019 11:03:17 -2.9 C 42 %
1796 30-12-2019 11:13:17 -2.8 C 42 %
1797 30-12-2019 11:23:17 -2.4 C 43 %
1798 30-12-2019 11:33:17 -2.1 C 42 %
1799 30-12-2019 11:43:17 -2 C 41 %
1800 30-12-2019 11:53:18 -2.1 C 40 %
Sensor: Nr:Datum:Temp:Feuchte:
Aussen-T/F 1801 30-12-2019 12:03:17 -1.7 C 41 %
1802 30-12-2019 12:13:17 -1.5 C 40 %
1803 30-12-2019 12:23:17 -1.6 C 40 %
1804 30-12-2019 12:33:17 -1.4 C 41 %
1805 30-12-2019 12:43:17 -0.7 C 39 %
1806 30-12-2019 12:53:17 -0.8 C 39 %
1807 30-12-2019 13:03:17 -0.8 C 38 %
1808 30-12-2019 13:13:17 -1 C 40 %
1809 30-12-2019 13:23:17 -1 C 41 %
1810 30-12-2019 13:33:17 -1 C 42 %
1811 30-12-2019 13:43:17 -0.6 C 42 %
1812 30-12-2019 13:53:17 -0.2 C 41 %
1813 30-12-2019 14:03:17 0.3 C 37 %
1814 30-12-2019 14:13:17 0.1 C 35 %
1815 30-12-2019 14:23:17 0.6 C 35 %
1816 30-12-2019 14:33:17 0.5 C 35 %
1817 30-12-2019 14:43:17 1 C 32 %
1818 30-12-2019 14:53:17 0.6 C 35 %
1819 30-12-2019 15:03:17 0.9 C 36 %
1820 30-12-2019 15:13:17 1.1 C 33 %
1821 30-12-2019 15:23:17 0.6 C 35 %
1822 30-12-2019 15:33:18 0.6 C 36 %
1823 30-12-2019 15:43:18 0.7 C 35 %
1824 30-12-2019 15:53:17 1.6 C 32 %
1825 30-12-2019 16:03:18 1.7 C 32 %
Sensor: Nr:Datum:Temp:Feuchte:
Aussen-T/F 1826 30-12-2019 16:13:18 1.9 C 31 %
1827 30-12-2019 16:23:18 1.6 C 33 %
1828 30-12-2019 16:33:17 1.1 C 35 %
1829 30-12-2019 16:43:17 0.8 C 37 %
1830 30-12-2019 16:53:17 0.6 C 40 %
1831 30-12-2019 17:03:17 0.7 C 40 %
1832 30-12-2019 17:13:17 0.7 C 40 %
1833 30-12-2019 17:23:18 0.6 C 40 %
1834 30-12-2019 17:33:17 0.5 C 40 %
1835 30-12-2019 17:43:17 0.5 C 40 %
1836 30-12-2019 17:53:17 0.5 C 37 %
1837 30-12-2019 18:03:17 0.3 C 36 %
1838 30-12-2019 18:13:17 -0.3 C 36 %
1839 30-12-2019 18:23:18 -0.7 C 37 %
1840 30-12-2019 18:33:18 -0.4 C 36 %
1841 30-12-2019 18:43:18 -0.2 C 36 %
1842 30-12-2019 18:53:17 -0.6 C 34 %
1843 30-12-2019 19:03:17 -1.3 C 36 %
1844 30-12-2019 19:13:17 -1 C 36 %
1845 30-12-2019 19:23:18 -1.4 C 36 %
1846 30-12-2019 19:33:17 -1.4 C 39 %
1847 30-12-2019 19:43:17 -0.4 C 33 %
1848 30-12-2019 19:53:18 0 C 32 %
1849 30-12-2019 20:03:17 -0.3 C 31 %
1850 30-12-2019 20:13:17 -1.2 C 32 %
Sensor: Nr:Datum:Temp:Feuchte:
Aussen-T/F 1851 30-12-2019 20:23:17 -1.6 C 35 %
1852 30-12-2019 20:33:17 -1.6 C 36 %
1853 30-12-2019 20:43:17 -1.7 C 36 %
1854 30-12-2019 20:53:17 -1.5 C 37 %
1855 30-12-2019 21:03:17 -1.9 C 37 %
1856 30-12-2019 21:13:17 -0.8 C 35 %
1857 30-12-2019 21:23:17 -1.1 C 35 %
1858 30-12-2019 21:33:17 -0.9 C 35 %
1859 30-12-2019 21:43:17 -0.8 C 36 %
1860 30-12-2019 21:53:17 -1.1 C 33 %
1861 30-12-2019 22:03:17 -1.5 C 35 %
1862 30-12-2019 22:13:17 -1.7 C 35 %
1863 30-12-2019 22:23:17 -1.7 C 35 %
1864 30-12-2019 22:33:17 -2.3 C 35 %
1865 30-12-2019 22:43:17 -1.8 C 35 %
1866 30-12-2019 22:53:17 -2 C 36 %
1867 30-12-2019 23:03:17 -2.3 C 36 %
1868 30-12-2019 23:13:17 -1.5 C 36 %
1869 30-12-2019 23:23:17 -0.9 C 32 %
1870 30-12-2019 23:33:17 -0.3 C 31 %
1871 30-12-2019 23:43:17 -0.9 C 31 %
1872 30-12-2019 23:53:17 -1 C 31 %
1873 31-12-2019 00:03:17 -1.2 C 32 %
1874 31-12-2019 00:13:18 -1.4 C 34 %
1875 31-12-2019 00:23:17 -1.6 C 36 %
Sensor: Nr:Datum:Temp:Feuchte:
Aussen-T/F 1876 31-12-2019 00:33:18 -1.2 C 35 %
1877 31-12-2019 00:43:18 -1.5 C 35 %
1878 31-12-2019 00:53:17 -1.5 C 36 %
1879 31-12-2019 01:03:17 -1.5 C 36 %
1880 31-12-2019 01:13:17 -0.8 C 34 %
1881 31-12-2019 01:23:18 -1.3 C 34 %
1882 31-12-2019 01:33:17 -1.6 C 37 %
1883 31-12-2019 01:43:17 -2 C 37 %
1884 31-12-2019 01:53:17 -2.3 C 38 %
1885 31-12-2019 02:03:17 -2.5 C 40 %
1886 31-12-2019 02:13:17 -2.7 C 40 %
1887 31-12-2019 02:23:18 -2.8 C 41 %
1888 31-12-2019 02:33:17 -3 C 41 %
1889 31-12-2019 02:43:17 -2.9 C 43 %
1890 31-12-2019 02:53:17 -2 C 45 %
1891 31-12-2019 03:03:17 -1.7 C 42 %
1892 31-12-2019 03:13:18 -2 C 40 %
1893 31-12-2019 03:23:17 -2.4 C 40 %
1894 31-12-2019 03:33:18 -2.5 C 41 %
1895 31-12-2019 03:43:18 -2.9 C 41 %
1896 31-12-2019 03:53:17 -2.8 C 42 %
1897 31-12-2019 04:03:17 -2.6 C 43 %
1898 31-12-2019 04:13:17 -3.1 C 42 %
1899 31-12-2019 04:23:17 -3.2 C 42 %
1900 31-12-2019 04:33:17 -3.3 C 42 %
Sensor: Nr:Datum:Temp:Feuchte:
Aussen-T/F 1901 31-12-2019 04:43:18 -3.3 C 42 %
1902 31-12-2019 04:53:17 -3.2 C 43 %
1903 31-12-2019 05:03:17 -3.3 C 42 %
1904 31-12-2019 05:13:17 -3.6 C 42 %
1905 31-12-2019 05:23:17 -3.4 C 43 %
1906 31-12-2019 05:33:17 -3.1 C 44 %
1907 31-12-2019 05:43:17 -3 C 44 %
1908 31-12-2019 05:53:17 -2.9 C 44 %
1909 31-12-2019 06:03:17 -3.1 C 43 %
1910 31-12-2019 06:13:17 -3.3 C 43 %
1911 31-12-2019 06:23:17 -3.2 C 43 %
1912 31-12-2019 06:33:17 -3.3 C 43 %
1913 31-12-2019 06:43:17 -3.4 C 43 %
1914 31-12-2019 06:53:18 -3.2 C 44 %
1915 31-12-2019 07:03:17 -3.2 C 44 %
1916 31-12-2019 07:13:17 -3 C 44 %
1917 31-12-2019 07:23:17 -3.1 C 44 %
1918 31-12-2019 07:33:17 -3 C 44 %
1919 31-12-2019 07:43:17 -2.6 C 45 %
1920 31-12-2019 07:53:18 -2.1 C 45 %
1921 31-12-2019 08:03:17 -2 C 45 %
1922 31-12-2019 08:13:17 -2 C 45 %
1923 31-12-2019 08:23:17 -1.3 C 45 %
1924 31-12-2019 08:33:17 -1 C 44 %
1925 31-12-2019 08:43:17 -1 C 43 %
Sensor: Nr:Datum:Temp:Feuchte:
Aussen-T/F 1926 31-12-2019 08:53:17 -1.1 C 42 %
1927 31-12-2019 09:03:17 -1 C 43 %
1928 31-12-2019 09:13:17 -0.9 C 44 %
1929 31-12-2019 09:23:17 -1.1 C 42 %
1930 31-12-2019 09:33:17 -1.1 C 42 %
1931 31-12-2019 09:43:17 -1.1 C 42 %
1932 31-12-2019 09:53:17 -0.9 C 43 %
1933 31-12-2019 10:03:17 -0.6 C 44 %
1934 31-12-2019 10:13:17 -0.2 C 43 %
1935 31-12-2019 10:23:17 0.1 C 41 %
1936 31-12-2019 10:33:17 0.3 C 40 %
1937 31-12-2019 10:43:17 0.3 C 38 %
1938 31-12-2019 10:53:18 0.5 C 40 %
1939 31-12-2019 11:03:17 0.8 C 41 %
1940 31-12-2019 11:13:17 0.7 C 41 %
1941 31-12-2019 11:23:17 1.2 C 40 %
1942 31-12-2019 11:33:17 1.1 C 38 %
1943 31-12-2019 11:43:17 1.5 C 40 %
1944 31-12-2019 11:53:17 1.5 C 40 %
1945 31-12-2019 12:03:18 1.8 C 31 %
1946 31-12-2019 12:13:18 2.4 C 35 %
1947 31-12-2019 12:23:17 2.6 C 33 %
1948 31-12-2019 12:33:18 2.4 C 32 %
1949 31-12-2019 12:43:18 2.8 C 30 %
1950 31-12-2019 12:53:17 2.3 C 29 %
Sensor: Nr:Datum:Temp:Feuchte:
Aussen-T/F 1951 31-12-2019 13:03:18 2.4 C 28 %
1952 31-12-2019 13:13:18 2.4 C 27 %
1953 31-12-2019 13:23:17 2.8 C 27 %
1954 31-12-2019 13:33:17 2.8 C 26 %
1955 31-12-2019 13:43:17 3.3 C 26 %
1956 31-12-2019 13:53:17 2.9 C 26 %
1957 31-12-2019 14:03:18 2.7 C 27 %
1958 31-12-2019 14:13:18 2.9 C 27 %
1959 31-12-2019 14:23:17 3.1 C 26 %
1960 31-12-2019 14:33:17 3.4 C 26 %
1961 31-12-2019 14:43:17 3.2 C 26 %
1962 31-12-2019 14:53:17 3 C 26 %
1963 31-12-2019 15:03:17 2.8 C 27 %
1964 31-12-2019 15:13:17 2.9 C 27 %
1965 31-12-2019 15:23:18 3 C 27 %
1966 31-12-2019 15:33:17 3 C 27 %
1967 31-12-2019 15:43:17 2.9 C 28 %
1968 31-12-2019 15:53:17 2.7 C 29 %
1969 31-12-2019 16:03:17 2.1 C 30 %
1970 31-12-2019 16:13:17 0.9 C 35 %
1971 31-12-2019 16:23:18 0.6 C 38 %
1972 31-12-2019 16:33:17 0.3 C 40 %
1973 31-12-2019 16:43:17 0.2 C 39 %
1974 31-12-2019 16:53:18 0.2 C 40 %
1975 31-12-2019 17:03:17 -0.1 C 41 %
Sensor: Nr:Datum:Temp:Feuchte:
Aussen-T/F 1976 31-12-2019 17:13:17 -0.4 C 41 %
1977 31-12-2019 17:23:17 -0.3 C 40 %
1978 31-12-2019 17:33:17 -0.3 C 41 %
1979 31-12-2019 17:43:17 -0.6 C 43 %
1980 31-12-2019 17:53:18 -0.7 C 43 %
1981 31-12-2019 18:03:17 -1.1 C 43 %
1982 31-12-2019 18:13:17 -1.2 C 45 %
1983 31-12-2019 18:23:17 -0.9 C 45 %
1984 31-12-2019 18:33:17 -0.8 C 45 %
1985 31-12-2019 18:43:17 -0.4 C 46 %
1986 31-12-2019 18:53:18 -0.4 C 46 %
1987 31-12-2019 19:03:17 -0.3 C 45 %
1988 31-12-2019 19:13:17 -0.1 C 46 %
1989 31-12-2019 19:23:18 0 C 45 %
1990 31-12-2019 19:33:17 0.1 C 45 %
1991 31-12-2019 19:43:17 0.2 C 45 %
1992 31-12-2019 19:53:17 0.4 C 45 %
1993 31-12-2019 20:03:18 0.5 C 45 %
1994 31-12-2019 20:13:18 0.5 C 45 %
1995 31-12-2019 20:23:17 0.4 C 45 %
1996 31-12-2019 20:33:17 0.4 C 45 %
1997 31-12-2019 20:43:17 0.3 C 43 %
1998 31-12-2019 20:53:17 0.2 C 43 %
1999 31-12-2019 21:03:17 0.2 C 43 %
2000 31-12-2019 21:13:17 0.4 C 44 %
Sensor: Nr:Datum:Temp:Feuchte:
Aussen-T/F 2001 31-12-2019 21:23:18 0.4 C 44 %
2002 31-12-2019 21:33:17 0.5 C 44 %
2003 31-12-2019 21:43:17 0.6 C 43 %
2004 31-12-2019 21:53:17 0.5 C 43 %
2005 31-12-2019 22:03:17 0.6 C 42 %
2006 31-12-2019 22:13:17 0.5 C 42 %
2007 31-12-2019 22:23:18 0.2 C 41 %
2008 31-12-2019 22:33:17 0 C 41 %
2009 31-12-2019 22:43:17 -0.2 C 42 %
2010 31-12-2019 22:53:17 -0.4 C 43 %
2011 31-12-2019 23:03:17 -0.3 C 44 %
2012 31-12-2019 23:13:17 -0.1 C 45 %
2013 31-12-2019 23:23:18 0 C 45 %
2014 31-12-2019 23:33:17 0 C 45 %
2015 31-12-2019 23:43:17 0.4 C 45 %
2016 31-12-2019 23:53:18 0.3 C 45 %
Sensor: Nr:Datum:Temp:Feuchte:
G-T/H 1 18-12-2019 00:02:17 11 C 76 %
2 18-12-2019 00:12:17 11 C 76 %
3 18-12-2019 00:22:17 11 C 76 %
4 18-12-2019 00:32:18 11 C 76 %
5 18-12-2019 00:42:18 11 C 76 %
6 18-12-2019 00:52:17 11 C 76 %
7 18-12-2019 01:02:17 11 C 76 %
8 18-12-2019 01:12:17 11 C 76 %
9 18-12-2019 01:22:17 11 C 76 %
10 18-12-2019 01:32:18 11 C 76 %
11 18-12-2019 01:42:18 11 C 76 %
12 18-12-2019 01:52:17 11 C 76 %
13 18-12-2019 02:02:17 11 C 76 %
14 18-12-2019 02:12:17 11 C 76 %
15 18-12-2019 02:22:17 11.1 C 76 %
16 18-12-2019 02:32:17 11 C 76 %
17 18-12-2019 02:42:18 11 C 76 %
18 18-12-2019 02:52:17 11.1 C 76 %
19 18-12-2019 03:02:17 11 C 76 %
20 18-12-2019 03:12:17 11.1 C 76 %
21 18-12-2019 03:22:18 11.1 C 76 %
22 18-12-2019 03:32:17 11.1 C 76 %
23 18-12-2019 03:42:17 11.1 C 76 %
24 18-12-2019 03:52:18 11.1 C 76 %
25 18-12-2019 04:02:18 11.1 C 76 %
Sensor: Nr:Datum:Temp:Feuchte:
G-T/H 26 18-12-2019 04:12:18 11.1 C 76 %
27 18-12-2019 04:22:17 11.1 C 76 %
28 18-12-2019 04:32:18 11.1 C 76 %
29 18-12-2019 04:42:18 11.1 C 76 %
30 18-12-2019 04:52:17 11.1 C 76 %
31 18-12-2019 05:02:18 11.1 C 76 %
32 18-12-2019 05:12:18 11.1 C 76 %
33 18-12-2019 05:22:17 11.1 C 76 %
34 18-12-2019 05:32:17 11.1 C 76 %
35 18-12-2019 05:42:17 11.1 C 76 %
36 18-12-2019 05:52:17 11.1 C 76 %
37 18-12-2019 06:02:18 11.1 C 76 %
38 18-12-2019 06:12:18 11.1 C 76 %
39 18-12-2019 06:22:17 11.1 C 76 %
40 18-12-2019 06:32:18 11.1 C 76 %
41 18-12-2019 06:42:18 11.1 C 76 %
42 18-12-2019 06:52:17 11.1 C 76 %
43 18-12-2019 07:02:17 11.1 C 76 %
44 18-12-2019 07:12:17 11.1 C 76 %
45 18-12-2019 07:22:17 11.1 C 76 %
46 18-12-2019 07:32:17 11.1 C 76 %
47 18-12-2019 07:42:17 11.1 C 76 %
48 18-12-2019 07:52:17 11.1 C 76 %
49 18-12-2019 08:02:17 11.1 C 76 %
50 18-12-2019 08:12:17 11.1 C 76 %
Sensor: Nr:Datum:Temp:Feuchte:
G-T/H 51 18-12-2019 08:22:17 11.1 C 76 %
52 18-12-2019 08:32:17 11.1 C 76 %
53 18-12-2019 08:42:17 11.1 C 76 %
54 18-12-2019 08:52:17 11.1 C 76 %
55 18-12-2019 09:02:17 11.1 C 76 %
56 18-12-2019 09:12:17 11.1 C 76 %
57 18-12-2019 09:22:17 11.1 C 76 %
58 18-12-2019 09:32:17 11.1 C 76 %
59 18-12-2019 09:42:17 11.1 C 76 %
60 18-12-2019 09:52:17 11.1 C 76 %
61 18-12-2019 10:02:17 11.1 C 76 %
62 18-12-2019 10:12:18 11.1 C 76 %
63 18-12-2019 10:22:17 11.1 C 76 %
64 18-12-2019 10:32:17 11.1 C 76 %
65 18-12-2019 10:42:17 11.1 C 76 %
66 18-12-2019 10:52:17 11.1 C 76 %
67 18-12-2019 11:02:17 11.1 C 76 %
68 18-12-2019 11:12:17 11.1 C 76 %
69 18-12-2019 11:22:17 11.1 C 76 %
70 18-12-2019 11:32:18 11 C 76 %
71 18-12-2019 11:42:18 11.1 C 76 %
72 18-12-2019 11:52:17 11 C 76 %
73 18-12-2019 12:02:17 11.1 C 76 %
74 18-12-2019 12:12:17 11.1 C 76 %
75 18-12-2019 12:22:17 11.1 C 76 %
Sensor: Nr:Datum:Temp:Feuchte:
G-T/H 76 18-12-2019 12:32:17 11 C 76 %
77 18-12-2019 12:42:17 11.1 C 76 %
78 18-12-2019 12:52:17 11.1 C 76 %
79 18-12-2019 13:02:17 11.1 C 76 %
80 18-12-2019 13:12:17 11 C 76 %
81 18-12-2019 13:22:17 11 C 76 %
82 18-12-2019 13:32:18 11 C 76 %
83 18-12-2019 13:42:18 11 C 76 %
84 18-12-2019 13:52:17 11 C 76 %
85 18-12-2019 14:02:18 11 C 76 %
86 18-12-2019 14:12:18 11 C 75 %
87 18-12-2019 14:22:17 11 C 75 %
88 18-12-2019 14:32:17 11 C 75 %
89 18-12-2019 14:42:17 11 C 75 %
90 18-12-2019 14:52:17 10.9 C 76 %
91 18-12-2019 15:02:17 11 C 75 %
92 18-12-2019 15:12:17 11 C 75 %
93 18-12-2019 15:22:17 11 C 75 %
94 18-12-2019 15:32:17 11 C 75 %
95 18-12-2019 15:42:17 11 C 75 %
96 18-12-2019 15:52:17 10.9 C 76 %
97 18-12-2019 16:02:17 10.9 C 76 %
98 18-12-2019 16:12:17 10.9 C 76 %
99 18-12-2019 16:22:17 10.9 C 76 %
100 18-12-2019 16:32:17 10.9 C 76 %
Sensor: Nr:Datum:Temp:Feuchte:
G-T/H 101 18-12-2019 16:42:17 10.9 C 76 %
102 18-12-2019 16:52:17 10.8 C 76 %
103 18-12-2019 17:02:17 10.8 C 76 %
104 18-12-2019 17:12:17 10.8 C 75 %
105 18-12-2019 17:22:17 10.8 C 75 %
106 18-12-2019 17:32:17 10.8 C 75 %
107 18-12-2019 17:42:17 10.8 C 75 %
108 18-12-2019 17:52:18 10.8 C 75 %
109 18-12-2019 18:02:17 10.8 C 75 %
110 18-12-2019 18:12:17 10.8 C 75 %
111 18-12-2019 18:22:17 10.8 C 75 %
112 18-12-2019 18:32:17 10.8 C 75 %
113 18-12-2019 18:42:17 10.7 C 75 %
114 18-12-2019 18:52:17 10.7 C 75 %
115 18-12-2019 19:02:17 10.7 C 75 %
116 18-12-2019 19:12:17 10.7 C 75 %
117 18-12-2019 19:22:17 10.7 C 75 %
118 18-12-2019 19:32:18 10.7 C 75 %
119 18-12-2019 19:42:18 10.7 C 75 %
120 18-12-2019 19:52:17 10.7 C 75 %
121 18-12-2019 20:02:17 10.7 C 75 %
122 18-12-2019 20:12:17 10.7 C 75 %
123 18-12-2019 20:22:17 10.7 C 75 %
124 18-12-2019 20:32:17 10.7 C 75 %
125 18-12-2019 20:42:18 10.7 C 75 %
Sensor: Nr:Datum:Temp:Feuchte:
G-T/H 126 18-12-2019 20:52:17 10.7 C 75 %
127 18-12-2019 21:02:17 10.6 C 74 %
128 18-12-2019 21:12:17 10.6 C 74 %
129 18-12-2019 21:22:17 10.6 C 74 %
130 18-12-2019 21:32:17 10.6 C 74 %
131 18-12-2019 21:42:17 10.6 C 74 %
132 18-12-2019 21:52:17 10.6 C 74 %
133 18-12-2019 22:02:17 10.5 C 74 %
134 18-12-2019 22:12:17 10.5 C 74 %
135 18-12-2019 22:22:17 10.5 C 74 %
136 18-12-2019 22:32:17 10.4 C 74 %
137 18-12-2019 22:42:17 10.4 C 74 %
138 18-12-2019 22:52:17 10.4 C 74 %
139 18-12-2019 23:02:17 10.4 C 73 %
140 18-12-2019 23:12:17 10.4 C 73 %
141 18-12-2019 23:22:18 10.4 C 73 %
142 18-12-2019 23:32:17 10.3 C 73 %
143 18-12-2019 23:42:17 10.3 C 73 %
144 18-12-2019 23:52:17 10.3 C 73 %
145 19-12-2019 00:02:18 10.2 C 73 %
146 19-12-2019 00:12:18 10.2 C 73 %
147 19-12-2019 00:22:17 10.2 C 73 %
148 19-12-2019 00:32:17 10.2 C 72 %
149 19-12-2019 00:42:17 10.2 C 72 %
150 19-12-2019 00:52:18 10.2 C 72 %
Sensor: Nr:Datum:Temp:Feuchte:
G-T/H 151 19-12-2019 01:02:17 10.2 C 72 %
152 19-12-2019 01:12:17 10.2 C 72 %
153 19-12-2019 01:22:17 10.1 C 72 %
154 19-12-2019 01:32:18 10.1 C 72 %
155 19-12-2019 01:42:18 10.1 C 72 %
156 19-12-2019 01:52:17 10.1 C 72 %
157 19-12-2019 02:02:17 10.1 C 72 %
158 19-12-2019 02:12:17 10.1 C 72 %
159 19-12-2019 02:22:17 10 C 72 %
160 19-12-2019 02:32:18 10 C 72 %
161 19-12-2019 02:42:18 10 C 72 %
162 19-12-2019 02:52:17 10 C 72 %
163 19-12-2019 03:02:18 10 C 71 %
164 19-12-2019 03:12:18 10 C 71 %
165 19-12-2019 03:22:17 10 C 71 %
166 19-12-2019 03:32:17 9.9 C 72 %
167 19-12-2019 03:42:17 9.9 C 72 %
168 19-12-2019 03:52:17 9.9 C 72 %
169 19-12-2019 04:02:17 9.9 C 72 %
170 19-12-2019 04:12:17 9.9 C 72 %
171 19-12-2019 04:22:18 9.9 C 72 %
172 19-12-2019 04:32:17 9.9 C 72 %
173 19-12-2019 04:42:17 9.9 C 72 %
174 19-12-2019 04:52:18 9.9 C 72 %
175 19-12-2019 05:02:17 9.9 C 72 %
Sensor: Nr:Datum:Temp:Feuchte:
G-T/H 176 19-12-2019 05:12:17 9.9 C 73 %
177 19-12-2019 05:22:17 9.9 C 73 %
178 19-12-2019 05:32:17 9.9 C 73 %
179 19-12-2019 05:42:17 9.8 C 73 %
180 19-12-2019 05:52:17 9.8 C 73 %
181 19-12-2019 06:02:17 9.8 C 73 %
182 19-12-2019 06:12:17 9.8 C 73 %
183 19-12-2019 06:22:17 9.8 C 73 %
184 19-12-2019 06:32:17 9.8 C 73 %
185 19-12-2019 06:42:18 9.8 C 73 %
186 19-12-2019 06:52:17 9.8 C 73 %
187 19-12-2019 07:02:17 9.8 C 73 %
188 19-12-2019 07:12:17 9.8 C 73 %
189 19-12-2019 07:22:17 9.8 C 73 %
190 19-12-2019 07:32:17 9.7 C 73 %
191 19-12-2019 07:42:18 9.8 C 73 %
192 19-12-2019 07:52:17 9.8 C 73 %
193 19-12-2019 08:02:18 9.8 C 73 %
194 19-12-2019 08:12:18 9.7 C 73 %
195 19-12-2019 08:22:17 9.7 C 73 %
196 19-12-2019 08:32:18 9.7 C 73 %
197 19-12-2019 08:42:18 9.7 C 73 %
198 19-12-2019 08:52:17 9.7 C 73 %
199 19-12-2019 09:02:17 9.7 C 73 %
200 19-12-2019 09:12:17 9.7 C 73 %
Sensor: Nr:Datum:Temp:Feuchte:
G-T/H 201 19-12-2019 09:22:17 9.7 C 73 %
202 19-12-2019 09:32:17 9.7 C 73 %
203 19-12-2019 09:42:17 9.7 C 73 %
204 19-12-2019 09:52:17 9.7 C 73 %
205 19-12-2019 10:02:17 9.7 C 73 %
206 19-12-2019 10:12:17 9.7 C 73 %
207 19-12-2019 10:22:17 9.6 C 73 %
208 19-12-2019 10:32:17 9.7 C 73 %
209 19-12-2019 10:42:17 9.7 C 73 %
210 19-12-2019 10:52:18 9.6 C 73 %
211 19-12-2019 11:02:17 9.6 C 74 %
212 19-12-2019 11:12:17 9.6 C 74 %
213 19-12-2019 11:22:17 9.7 C 74 %
214 19-12-2019 11:32:17 9.7 C 74 %
215 19-12-2019 11:42:17 9.7 C 74 %
216 19-12-2019 11:52:18 9.7 C 74 %
217 19-12-2019 12:02:17 9.7 C 74 %
218 19-12-2019 12:12:17 9.6 C 74 %
219 19-12-2019 12:22:17 9.7 C 74 %
220 19-12-2019 12:32:17 9.6 C 74 %
221 19-12-2019 12:42:17 9.6 C 74 %
222 19-12-2019 12:52:17 9.6 C 74 %
223 19-12-2019 13:02:17 9.6 C 74 %
224 19-12-2019 13:12:17 9.6 C 74 %
225 19-12-2019 13:22:17 9.6 C 74 %
Sensor: Nr:Datum:Temp:Feuchte:
G-T/H 226 19-12-2019 13:32:17 9.6 C 74 %
227 19-12-2019 13:42:17 9.6 C 74 %
228 19-12-2019 13:52:17 9.6 C 74 %
229 19-12-2019 14:02:17 9.6 C 74 %
230 19-12-2019 14:12:17 9.7 C 74 %
231 19-12-2019 14:22:17 9.6 C 74 %
232 19-12-2019 14:32:17 9.7 C 74 %
233 19-12-2019 14:42:17 9.6 C 74 %
234 19-12-2019 14:52:17 9.6 C 74 %
235 19-12-2019 15:02:17 9.6 C 74 %
236 19-12-2019 15:12:17 9.7 C 74 %
237 19-12-2019 15:22:17 9.6 C 74 %
238 19-12-2019 15:32:18 9.6 C 74 %
239 19-12-2019 15:42:18 9.6 C 74 %
240 19-12-2019 15:52:17 9.7 C 75 %
241 19-12-2019 16:02:17 9.7 C 75 %
242 19-12-2019 16:12:17 9.6 C 75 %
243 19-12-2019 16:22:18 9.6 C 75 %
244 19-12-2019 16:32:17 9.7 C 75 %
245 19-12-2019 16:42:17 9.7 C 75 %
246 19-12-2019 16:52:17 9.7 C 75 %
247 19-12-2019 17:02:17 9.7 C 75 %
248 19-12-2019 17:12:17 9.7 C 75 %
249 19-12-2019 17:22:17 9.7 C 75 %
250 19-12-2019 17:32:17 9.7 C 75 %
Sensor: Nr:Datum:Temp:Feuchte:
G-T/H 251 19-12-2019 17:42:17 9.7 C 75 %
252 19-12-2019 17:52:17 9.7 C 75 %
253 19-12-2019 18:02:17 9.7 C 75 %
254 19-12-2019 18:12:18 9.7 C 75 %
255 19-12-2019 18:22:17 9.7 C 75 %
256 19-12-2019 18:32:17 9.7 C 75 %
257 19-12-2019 18:42:17 9.7 C 75 %
258 19-12-2019 18:52:18 9.7 C 75 %
259 19-12-2019 19:02:17 9.6 C 75 %
260 19-12-2019 19:12:17 9.7 C 75 %
261 19-12-2019 19:22:18 9.7 C 75 %
262 19-12-2019 19:32:17 9.7 C 75 %
263 19-12-2019 19:42:17 9.7 C 75 %
264 19-12-2019 19:52:17 9.7 C 75 %
265 19-12-2019 20:02:17 9.7 C 75 %
266 19-12-2019 20:12:17 9.7 C 75 %
267 19-12-2019 20:22:17 9.7 C 75 %
268 19-12-2019 20:32:17 9.7 C 75 %
269 19-12-2019 20:42:17 9.7 C 75 %
270 19-12-2019 20:52:17 9.7 C 75 %
271 19-12-2019 21:02:17 9.7 C 75 %
272 19-12-2019 21:12:18 9.7 C 75 %
273 19-12-2019 21:22:17 9.7 C 75 %
274 19-12-2019 21:32:17 9.7 C 75 %
275 19-12-2019 21:42:17 9.7 C 75 %
Sensor: Nr:Datum:Temp:Feuchte:
G-T/H 276 19-12-2019 21:52:17 9.7 C 75 %
277 19-12-2019 22:02:17 9.6 C 75 %
278 19-12-2019 22:12:17 9.6 C 75 %
279 19-12-2019 22:22:18 9.7 C 75 %
280 19-12-2019 22:32:18 9.7 C 75 %
281 19-12-2019 22:42:18 9.6 C 75 %
282 19-12-2019 22:52:17 9.7 C 75 %
283 19-12-2019 23:02:17 9.7 C 75 %
284 19-12-2019 23:12:17 9.7 C 75 %
285 19-12-2019 23:22:17 9.7 C 75 %
286 19-12-2019 23:32:17 9.7 C 75 %
287 19-12-2019 23:42:17 9.7 C 75 %
288 19-12-2019 23:52:17 9.6 C 75 %
289 20-12-2019 00:02:17 9.7 C 75 %
290 20-12-2019 00:12:17 9.7 C 75 %
291 20-12-2019 00:22:17 9.7 C 75 %
292 20-12-2019 00:32:17 9.6 C 75 %
293 20-12-2019 00:42:17 9.6 C 75 %
294 20-12-2019 00:52:17 9.6 C 75 %
295 20-12-2019 01:02:17 9.6 C 75 %
296 20-12-2019 01:12:17 9.6 C 75 %
297 20-12-2019 01:22:17 9.6 C 75 %
298 20-12-2019 01:32:17 9.6 C 75 %
299 20-12-2019 01:42:17 9.6 C 75 %
300 20-12-2019 01:52:17 9.7 C 74 %
Sensor: Nr:Datum:Temp:Feuchte:
G-T/H 301 20-12-2019 02:02:17 9.6 C 74 %
302 20-12-2019 02:12:17 9.6 C 74 %
303 20-12-2019 02:22:17 9.6 C 74 %
304 20-12-2019 02:32:18 9.6 C 74 %
305 20-12-2019 02:42:18 9.6 C 74 %
306 20-12-2019 02:52:17 9.6 C 74 %
307 20-12-2019 03:02:17 9.6 C 74 %
308 20-12-2019 03:12:17 9.6 C 74 %
309 20-12-2019 03:22:17 9.6 C 74 %
310 20-12-2019 03:32:17 9.6 C 74 %
311 20-12-2019 03:42:17 9.6 C 74 %
312 20-12-2019 03:52:17 9.6 C 74 %
313 20-12-2019 04:02:17 9.6 C 74 %
314 20-12-2019 04:12:17 9.5 C 74 %
315 20-12-2019 04:22:17 9.6 C 74 %
316 20-12-2019 04:32:18 9.6 C 74 %
317 20-12-2019 04:42:18 9.6 C 74 %
318 20-12-2019 04:52:17 9.6 C 74 %
319 20-12-2019 05:02:17 9.6 C 74 %
320 20-12-2019 05:12:17 9.6 C 74 %
321 20-12-2019 05:22:17 9.6 C 74 %
322 20-12-2019 05:32:17 9.5 C 74 %
323 20-12-2019 05:42:17 9.5 C 74 %
324 20-12-2019 05:52:18 9.5 C 74 %
325 20-12-2019 06:02:18 9.5 C 74 %
Sensor: Nr:Datum:Temp:Feuchte:
G-T/H 326 20-12-2019 06:12:18 9.5 C 74 %
327 20-12-2019 06:22:17 9.5 C 74 %
328 20-12-2019 06:32:17 9.5 C 74 %
329 20-12-2019 06:42:17 9.5 C 74 %
330 20-12-2019 06:52:17 9.6 C 74 %
331 20-12-2019 07:02:17 9.5 C 74 %
332 20-12-2019 07:12:17 9.6 C 74 %
333 20-12-2019 07:22:17 9.5 C 74 %
334 20-12-2019 07:32:17 9.5 C 74 %
335 20-12-2019 07:42:17 9.5 C 74 %
336 20-12-2019 07:52:17 9.5 C 74 %
337 20-12-2019 08:02:17 9.5 C 74 %
338 20-12-2019 08:12:17 9.5 C 74 %
339 20-12-2019 08:22:17 9.5 C 74 %
340 20-12-2019 08:32:18 9.5 C 75 %
341 20-12-2019 08:42:18 9.5 C 75 %
342 20-12-2019 08:52:17 9.5 C 75 %
343 20-12-2019 09:02:17 9.5 C 75 %
344 20-12-2019 09:12:17 9.5 C 75 %
345 20-12-2019 09:22:17 9.5 C 75 %
346 20-12-2019 09:32:17 9.5 C 75 %
347 20-12-2019 09:42:17 9.6 C 75 %
348 20-12-2019 09:52:17 9.5 C 75 %
349 20-12-2019 10:02:17 9.6 C 75 %
350 20-12-2019 10:12:17 9.5 C 75 %
Sensor: Nr:Datum:Temp:Feuchte:
G-T/H 351 20-12-2019 10:22:17 9.5 C 75 %
352 20-12-2019 10:32:17 9.5 C 75 %
353 20-12-2019 10:42:17 9.5 C 75 %
354 20-12-2019 10:52:17 9.6 C 75 %
355 20-12-2019 11:02:17 9.6 C 75 %
356 20-12-2019 11:12:17 9.6 C 75 %
357 20-12-2019 11:22:17 9.5 C 75 %
358 20-12-2019 11:32:17 9.6 C 75 %
359 20-12-2019 11:42:17 9.6 C 75 %
360 20-12-2019 11:52:17 9.6 C 75 %
361 20-12-2019 12:02:18 9.6 C 75 %
362 20-12-2019 12:12:18 9.5 C 75 %
363 20-12-2019 12:22:18 9.5 C 75 %
364 20-12-2019 12:32:17 9.5 C 75 %
365 20-12-2019 12:42:18 9.6 C 75 %
366 20-12-2019 12:52:17 9.6 C 75 %
367 20-12-2019 13:02:18 9.6 C 75 %
368 20-12-2019 13:12:18 9.6 C 75 %
369 20-12-2019 13:22:17 9.6 C 75 %
370 20-12-2019 13:32:17 9.6 C 75 %
371 20-12-2019 13:42:17 9.6 C 75 %
372 20-12-2019 13:52:17 9.6 C 75 %
373 20-12-2019 14:02:17 9.6 C 75 %
374 20-12-2019 14:12:17 9.6 C 76 %
375 20-12-2019 14:22:17 9.6 C 76 %
Sensor: Nr:Datum:Temp:Feuchte:
G-T/H 376 20-12-2019 14:32:17 9.7 C 76 %
377 20-12-2019 14:42:17 9.6 C 76 %
378 20-12-2019 14:52:18 9.7 C 76 %
379 20-12-2019 15:02:17 9.7 C 76 %
380 20-12-2019 15:12:17 9.7 C 76 %
381 20-12-2019 15:22:17 9.7 C 76 %
382 20-12-2019 15:32:17 9.7 C 76 %
383 20-12-2019 15:42:17 9.7 C 76 %
384 20-12-2019 15:52:17 9.7 C 76 %
385 20-12-2019 16:02:17 9.7 C 76 %
386 20-12-2019 16:12:18 9.7 C 76 %
387 20-12-2019 16:22:17 9.7 C 76 %
388 20-12-2019 16:32:17 9.7 C 76 %
389 20-12-2019 16:42:17 9.7 C 76 %
390 20-12-2019 16:52:18 9.8 C 76 %
391 20-12-2019 17:02:17 9.8 C 76 %
392 20-12-2019 17:12:18 9.8 C 76 %
393 20-12-2019 17:22:17 9.8 C 76 %
394 20-12-2019 17:32:17 9.8 C 76 %
395 20-12-2019 17:42:17 9.8 C 76 %
396 20-12-2019 17:52:18 9.8 C 76 %
397 20-12-2019 18:02:17 9.8 C 76 %
398 20-12-2019 18:12:17 9.8 C 76 %
399 20-12-2019 18:22:17 9.9 C 76 %
400 20-12-2019 18:32:17 9.8 C 76 %
Sensor: Nr:Datum:Temp:Feuchte:
G-T/H 401 20-12-2019 18:42:17 9.9 C 76 %
402 20-12-2019 18:52:18 9.9 C 76 %
403 20-12-2019 19:02:17 9.9 C 76 %
404 20-12-2019 19:12:17 9.9 C 76 %
405 20-12-2019 19:22:17 9.9 C 77 %
406 20-12-2019 19:32:17 9.9 C 77 %
407 20-12-2019 19:42:17 9.9 C 77 %
408 20-12-2019 19:52:18 9.9 C 77 %
409 20-12-2019 20:02:18 10 C 75 %
410 20-12-2019 20:12:18 9.9 C 77 %
411 20-12-2019 20:22:17 9.9 C 77 %
412 20-12-2019 20:32:18 10 C 75 %
413 20-12-2019 20:42:18 10 C 75 %
414 20-12-2019 20:52:17 10 C 75 %
415 20-12-2019 21:02:18 10 C 75 %
416 20-12-2019 21:12:18 10 C 75 %
417 20-12-2019 21:22:17 10 C 75 %
418 20-12-2019 21:32:17 10 C 75 %
419 20-12-2019 21:42:17 10 C 75 %
420 20-12-2019 21:52:17 10 C 75 %
421 20-12-2019 22:02:17 10 C 75 %
422 20-12-2019 22:12:17 10.1 C 75 %
423 20-12-2019 22:22:17 10.1 C 75 %
424 20-12-2019 22:32:17 10.1 C 75 %
425 20-12-2019 22:42:17 10.1 C 75 %
Sensor: Nr:Datum:Temp:Feuchte:
G-T/H 426 20-12-2019 22:52:17 10.1 C 75 %
427 20-12-2019 23:02:17 10.1 C 75 %
428 20-12-2019 23:12:17 10 C 75 %
429 20-12-2019 23:22:17 10.1 C 75 %
430 20-12-2019 23:32:17 10.1 C 75 %
431 20-12-2019 23:42:17 10.1 C 75 %
432 20-12-2019 23:52:18 10.1 C 75 %
433 21-12-2019 00:02:17 10.1 C 75 %
434 21-12-2019 00:12:17 10.1 C 75 %
435 21-12-2019 00:22:17 10.1 C 75 %
436 21-12-2019 00:32:17 10.1 C 75 %
437 21-12-2019 00:42:17 10.1 C 75 %
438 21-12-2019 00:52:18 10.1 C 75 %
439 21-12-2019 01:02:17 10.1 C 75 %
440 21-12-2019 01:12:17 10.1 C 75 %
441 21-12-2019 01:22:17 10.1 C 75 %
442 21-12-2019 01:32:17 10.1 C 75 %
443 21-12-2019 01:42:17 10.1 C 75 %
444 21-12-2019 01:52:17 10.1 C 75 %
445 21-12-2019 02:02:17 10.1 C 75 %
446 21-12-2019 02:12:17 10.1 C 75 %
447 21-12-2019 02:22:17 10.2 C 75 %
448 21-12-2019 02:32:18 10.2 C 75 %
449 21-12-2019 02:42:18 10.2 C 75 %
450 21-12-2019 02:52:17 10.2 C 75 %
Sensor: Nr:Datum:Temp:Feuchte:
G-T/H 451 21-12-2019 03:02:17 10.2 C 75 %
452 21-12-2019 03:12:17 10.2 C 75 %
453 21-12-2019 03:22:17 10.2 C 75 %
454 21-12-2019 03:32:18 10.2 C 75 %
455 21-12-2019 03:42:18 10.2 C 75 %
456 21-12-2019 03:52:17 10.2 C 75 %
457 21-12-2019 04:02:17 10.2 C 75 %
458 21-12-2019 04:12:17 10.2 C 75 %
459 21-12-2019 04:22:17 10.2 C 75 %
460 21-12-2019 04:32:18 10.2 C 75 %
461 21-12-2019 04:42:18 10.2 C 75 %
462 21-12-2019 04:52:17 10.2 C 75 %
463 21-12-2019 05:02:17 10.2 C 75 %
464 21-12-2019 05:12:17 10.2 C 75 %
465 21-12-2019 05:22:17 10.2 C 75 %
466 21-12-2019 05:32:18 10.2 C 75 %
467 21-12-2019 05:42:18 10.2 C 75 %
468 21-12-2019 05:52:17 10.2 C 75 %
469 21-12-2019 06:02:17 10.2 C 75 %
470 21-12-2019 06:12:17 10.2 C 75 %
471 21-12-2019 06:22:18 10.2 C 75 %
472 21-12-2019 06:32:17 10.1 C 75 %
473 21-12-2019 06:42:17 10.1 C 75 %
474 21-12-2019 06:52:18 10.2 C 75 %
475 21-12-2019 07:02:17 10.1 C 75 %
Sensor: Nr:Datum:Temp:Feuchte:
G-T/H 476 21-12-2019 07:12:18 10.1 C 75 %
477 21-12-2019 07:22:17 10.1 C 75 %
478 21-12-2019 07:32:17 10.1 C 75 %
479 21-12-2019 07:42:17 10.1 C 75 %
480 21-12-2019 07:52:17 10.1 C 75 %
481 21-12-2019 08:02:17 10.1 C 74 %
482 21-12-2019 08:12:17 10.1 C 74 %
483 21-12-2019 08:22:17 10.1 C 74 %
484 21-12-2019 08:32:17 10.1 C 74 %
485 21-12-2019 08:42:17 10.1 C 74 %
486 21-12-2019 08:52:17 10.1 C 74 %
487 21-12-2019 09:02:17 10.1 C 74 %
488 21-12-2019 09:12:17 10.1 C 74 %
489 21-12-2019 09:22:17 10.1 C 74 %
490 21-12-2019 09:32:17 10.1 C 74 %
491 21-12-2019 09:42:17 10.1 C 74 %
492 21-12-2019 09:52:17 10 C 74 %
493 21-12-2019 10:02:17 10 C 74 %
494 21-12-2019 10:12:17 10 C 74 %
495 21-12-2019 10:22:17 10 C 74 %
496 21-12-2019 10:32:17 10 C 74 %
497 21-12-2019 10:42:17 10 C 74 %
498 21-12-2019 10:52:17 10 C 74 %
499 21-12-2019 11:02:17 10 C 74 %
500 21-12-2019 11:12:17 10 C 74 %
Sensor: Nr:Datum:Temp:Feuchte:
G-T/H 501 21-12-2019 11:22:17 10 C 74 %
502 21-12-2019 11:32:17 10 C 74 %
503 21-12-2019 11:42:17 10 C 74 %
504 21-12-2019 11:52:17 10.1 C 74 %
505 21-12-2019 12:02:17 10.1 C 74 %
506 21-12-2019 12:12:17 10.2 C 74 %
507 21-12-2019 12:22:17 10.1 C 74 %
508 21-12-2019 12:32:17 10.1 C 74 %
509 21-12-2019 12:42:17 10.1 C 74 %
510 21-12-2019 12:52:17 10.1 C 74 %
511 21-12-2019 13:02:17 10.1 C 74 %
512 21-12-2019 13:12:17 10 C 74 %
513 21-12-2019 13:22:17 10 C 74 %
514 21-12-2019 13:32:17 10 C 74 %
515 21-12-2019 13:42:17 10 C 74 %
516 21-12-2019 13:52:18 10 C 74 %
517 21-12-2019 14:02:17 10 C 74 %
518 21-12-2019 14:12:17 10 C 74 %
519 21-12-2019 14:22:17 10 C 74 %
520 21-12-2019 14:32:18 10 C 74 %
521 21-12-2019 14:42:18 10 C 74 %
522 21-12-2019 14:52:17 10 C 74 %
523 21-12-2019 15:02:18 10 C 74 %
524 21-12-2019 15:12:18 10 C 74 %
525 21-12-2019 15:22:18 10 C 74 %
Sensor: Nr:Datum:Temp:Feuchte:
G-T/H 526 21-12-2019 15:32:17 10 C 74 %
527 21-12-2019 15:42:17 10 C 74 %
528 21-12-2019 15:52:17 10 C 74 %
529 21-12-2019 16:02:17 10 C 74 %
530 21-12-2019 16:12:17 10 C 74 %
531 21-12-2019 16:22:17 10 C 74 %
532 21-12-2019 16:32:17 9.9 C 76 %
533 21-12-2019 16:42:17 10 C 74 %
534 21-12-2019 16:52:17 10 C 74 %
535 21-12-2019 17:02:17 10 C 74 %
536 21-12-2019 17:12:17 10 C 75 %
537 21-12-2019 17:22:17 10 C 75 %
538 21-12-2019 17:32:17 10 C 75 %
539 21-12-2019 17:42:17 10 C 75 %
540 21-12-2019 17:52:17 10 C 75 %
541 21-12-2019 18:02:17 10 C 75 %
542 21-12-2019 18:12:17 10 C 75 %
543 21-12-2019 18:22:17 10 C 75 %
544 21-12-2019 18:32:18 10 C 75 %
545 21-12-2019 18:42:18 10 C 75 %
546 21-12-2019 18:52:17 10 C 75 %
547 21-12-2019 19:02:17 10 C 75 %
548 21-12-2019 19:12:17 10 C 75 %
549 21-12-2019 19:22:17 10 C 75 %
550 21-12-2019 19:32:17 10 C 75 %
Sensor: Nr:Datum:Temp:Feuchte:
G-T/H 551 21-12-2019 19:42:17 10 C 75 %
552 21-12-2019 19:52:17 10 C 75 %
553 21-12-2019 20:02:17 10 C 75 %
554 21-12-2019 20:12:17 10 C 75 %
555 21-12-2019 20:22:17 10 C 75 %
556 21-12-2019 20:32:17 10 C 75 %
557 21-12-2019 20:42:17 10 C 75 %
558 21-12-2019 20:52:17 10 C 75 %
559 21-12-2019 21:02:18 10 C 75 %
560 21-12-2019 21:12:18 10 C 75 %
561 21-12-2019 21:22:17 10 C 75 %
562 21-12-2019 21:32:17 10 C 75 %
563 21-12-2019 21:42:17 10 C 75 %
564 21-12-2019 21:52:18 10 C 75 %
565 21-12-2019 22:02:18 10 C 75 %
566 21-12-2019 22:12:18 10 C 75 %
567 21-12-2019 22:22:17 10 C 75 %
568 21-12-2019 22:32:17 10 C 75 %
569 21-12-2019 22:42:17 10 C 75 %
570 21-12-2019 22:52:17 10 C 74 %
571 21-12-2019 23:02:17 10 C 74 %
572 21-12-2019 23:12:17 10 C 74 %
573 21-12-2019 23:22:17 10 C 74 %
574 21-12-2019 23:32:18 10 C 74 %
575 21-12-2019 23:42:18 10 C 74 %
Sensor: Nr:Datum:Temp:Feuchte:
G-T/H 576 21-12-2019 23:52:17 10 C 74 %
577 22-12-2019 00:02:17 10 C 74 %
578 22-12-2019 00:12:17 10 C 74 %
579 22-12-2019 00:22:17 10 C 74 %
580 22-12-2019 00:32:17 10 C 74 %
581 22-12-2019 00:42:17 10 C 74 %
582 22-12-2019 00:52:17 10 C 74 %
583 22-12-2019 01:02:17 10 C 74 %
584 22-12-2019 01:12:18 10 C 74 %
585 22-12-2019 01:22:17 10 C 74 %
586 22-12-2019 01:32:17 10 C 74 %
587 22-12-2019 01:42:17 10 C 74 %
588 22-12-2019 01:52:17 10 C 74 %
589 22-12-2019 02:02:17 10 C 74 %
590 22-12-2019 02:12:18 10 C 74 %
591 22-12-2019 02:22:17 10 C 74 %
592 22-12-2019 02:32:17 10 C 74 %
593 22-12-2019 02:42:17 10 C 74 %
594 22-12-2019 02:52:18 10 C 74 %
595 22-12-2019 03:02:17 10 C 74 %
596 22-12-2019 03:12:17 10 C 74 %
597 22-12-2019 03:22:17 10 C 74 %
598 22-12-2019 03:32:17 10 C 74 %
599 22-12-2019 03:42:17 10 C 74 %
600 22-12-2019 03:52:17 10 C 74 %
Sensor: Nr:Datum:Temp:Feuchte:
G-T/H 601 22-12-2019 04:02:18 10 C 75 %
602 22-12-2019 04:12:18 10 C 74 %
603 22-12-2019 04:22:17 10 C 75 %
604 22-12-2019 04:32:17 10 C 75 %
605 22-12-2019 04:42:17 10 C 75 %
606 22-12-2019 04:52:17 10 C 75 %
607 22-12-2019 05:02:17 10 C 75 %
608 22-12-2019 05:12:17 10 C 75 %
609 22-12-2019 05:22:17 10 C 75 %
610 22-12-2019 05:32:17 10 C 75 %
611 22-12-2019 05:42:17 10 C 75 %
612 22-12-2019 05:52:17 10 C 75 %
613 22-12-2019 06:02:17 10 C 75 %
614 22-12-2019 06:12:17 10 C 75 %
615 22-12-2019 06:22:17 10 C 75 %
616 22-12-2019 06:32:17 10 C 75 %
617 22-12-2019 06:42:17 10 C 75 %
618 22-12-2019 06:52:17 10 C 75 %
619 22-12-2019 07:02:17 10 C 75 %
620 22-12-2019 07:12:17 10 C 75 %
621 22-12-2019 07:22:17 10 C 75 %
622 22-12-2019 07:32:17 10 C 75 %
623 22-12-2019 07:42:17 10 C 75 %
624 22-12-2019 07:52:17 10 C 75 %
625 22-12-2019 08:02:18 10 C 75 %
Sensor: Nr:Datum:Temp:Feuchte:
G-T/H 626 22-12-2019 08:12:18 10 C 75 %
627 22-12-2019 08:22:17 10 C 75 %
628 22-12-2019 08:32:17 10 C 75 %
629 22-12-2019 08:42:17 10 C 75 %
630 22-12-2019 08:52:18 10 C 75 %
631 22-12-2019 09:02:17 10 C 75 %
632 22-12-2019 09:12:17 10 C 75 %
633 22-12-2019 09:22:17 10 C 75 %
634 22-12-2019 09:32:17 10 C 75 %
635 22-12-2019 09:42:17 10 C 75 %
636 22-12-2019 09:52:17 10 C 75 %
637 22-12-2019 10:02:17 10 C 75 %
638 22-12-2019 10:12:17 10 C 75 %
639 22-12-2019 10:22:17 10 C 75 %
640 22-12-2019 10:32:17 10 C 75 %
641 22-12-2019 10:42:17 10 C 75 %
642 22-12-2019 10:52:17 10 C 75 %
643 22-12-2019 11:02:17 10 C 75 %
644 22-12-2019 11:12:17 10 C 75 %
645 22-12-2019 11:22:17 10 C 75 %
646 22-12-2019 11:32:18 10 C 75 %
647 22-12-2019 11:42:18 10 C 75 %
648 22-12-2019 11:52:17 10 C 75 %
649 22-12-2019 12:02:17 10 C 75 %
650 22-12-2019 12:12:17 10 C 75 %
Sensor: Nr:Datum:Temp:Feuchte:
G-T/H 651 22-12-2019 12:22:17 10 C 75 %
652 22-12-2019 12:32:17 10.1 C 75 %
653 22-12-2019 12:42:17 10.1 C 75 %
654 22-12-2019 12:52:17 10.1 C 75 %
655 22-12-2019 13:02:17 10.1 C 75 %
656 22-12-2019 13:12:17 10.1 C 75 %
657 22-12-2019 13:22:17 10.1 C 75 %
658 22-12-2019 13:32:17 10.1 C 75 %
659 22-12-2019 13:42:17 10.1 C 75 %
660 22-12-2019 13:52:17 10.1 C 75 %
661 22-12-2019 14:02:17 10.1 C 75 %
662 22-12-2019 14:12:17 10.1 C 75 %
663 22-12-2019 14:22:17 10.1 C 75 %
664 22-12-2019 14:32:17 10.1 C 75 %
665 22-12-2019 14:42:17 10.1 C 75 %
666 22-12-2019 14:52:17 10.1 C 75 %
667 22-12-2019 15:02:17 10.2 C 76 %
668 22-12-2019 15:12:17 10.2 C 76 %
669 22-12-2019 15:22:17 10.2 C 76 %
670 22-12-2019 15:32:17 10.2 C 76 %
671 22-12-2019 15:42:17 10.2 C 76 %
672 22-12-2019 15:52:18 10.2 C 76 %
673 22-12-2019 16:02:18 10.2 C 76 %
674 22-12-2019 16:12:18 10.2 C 76 %
675 22-12-2019 16:22:17 10.2 C 76 %
Sensor: Nr:Datum:Temp:Feuchte:
G-T/H 676 22-12-2019 16:32:17 10.2 C 76 %
677 22-12-2019 16:42:17 10.3 C 76 %
678 22-12-2019 16:52:17 10.3 C 76 %
679 22-12-2019 17:02:18 10.3 C 76 %
680 22-12-2019 17:12:18 10.3 C 76 %
681 22-12-2019 17:22:17 10.3 C 76 %
682 22-12-2019 17:32:17 10.3 C 76 %
683 22-12-2019 17:42:17 10.3 C 76 %
684 22-12-2019 17:52:17 10.3 C 76 %
685 22-12-2019 18:02:17 10.3 C 76 %
686 22-12-2019 18:12:17 10.3 C 76 %
687 22-12-2019 18:22:17 10.3 C 76 %
688 22-12-2019 18:32:17 10.4 C 76 %
689 22-12-2019 18:42:17 10.3 C 76 %
690 22-12-2019 18:52:17 10.3 C 76 %
691 22-12-2019 19:02:17 10.4 C 76 %
692 22-12-2019 19:12:17 10.4 C 76 %
693 22-12-2019 19:22:17 10.4 C 76 %
694 22-12-2019 19:32:17 10.4 C 76 %
695 22-12-2019 19:42:17 10.4 C 76 %
696 22-12-2019 19:52:17 10.4 C 76 %
697 22-12-2019 20:02:17 10.4 C 76 %
698 22-12-2019 20:12:17 10.4 C 76 %
699 22-12-2019 20:22:17 10.4 C 76 %
700 22-12-2019 20:32:17 10.4 C 76 %
Sensor: Nr:Datum:Temp:Feuchte:
G-T/H 701 22-12-2019 20:42:17 10.4 C 76 %
702 22-12-2019 20:52:17 10.4 C 76 %
703 22-12-2019 21:02:17 10.4 C 76 %
704 22-12-2019 21:12:17 10.4 C 76 %
705 22-12-2019 21:22:17 10.4 C 76 %
706 22-12-2019 21:32:17 10.4 C 76 %
707 22-12-2019 21:42:17 10.4 C 76 %
708 22-12-2019 21:52:17 10.4 C 76 %
709 22-12-2019 22:02:17 10.4 C 76 %
710 22-12-2019 22:12:17 10.4 C 76 %
711 22-12-2019 22:22:17 10.4 C 76 %
712 22-12-2019 22:32:17 10.4 C 76 %
713 22-12-2019 22:42:17 10.4 C 76 %
714 22-12-2019 22:52:17 10.4 C 75 %
715 22-12-2019 23:02:17 10.4 C 75 %
716 22-12-2019 23:12:17 10.4 C 75 %
717 22-12-2019 23:22:17 10.4 C 75 %
718 22-12-2019 23:32:17 10.4 C 75 %
719 22-12-2019 23:42:17 10.4 C 75 %
720 22-12-2019 23:52:17 10.4 C 75 %
721 23-12-2019 00:02:17 10.4 C 75 %
722 23-12-2019 00:12:17 10.4 C 75 %
723 23-12-2019 00:22:17 10.4 C 75 %
724 23-12-2019 00:32:17 10.4 C 75 %
725 23-12-2019 00:42:17 10.4 C 75 %
Sensor: Nr:Datum:Temp:Feuchte:
G-T/H 726 23-12-2019 00:52:17 10.4 C 75 %
727 23-12-2019 01:02:17 10.4 C 75 %
728 23-12-2019 01:12:17 10.4 C 75 %
729 23-12-2019 01:22:17 10.4 C 75 %
730 23-12-2019 01:32:17 10.4 C 75 %
731 23-12-2019 01:42:17 10.4 C 75 %
732 23-12-2019 01:52:17 10.4 C 75 %
733 23-12-2019 02:02:17 10.3 C 75 %
734 23-12-2019 02:12:17 10.3 C 75 %
735 23-12-2019 02:22:17 10.4 C 75 %
736 23-12-2019 02:32:17 10.3 C 75 %
737 23-12-2019 02:42:17 10.4 C 75 %
738 23-12-2019 02:52:17 10.3 C 75 %
739 23-12-2019 03:02:17 10.3 C 75 %
740 23-12-2019 03:12:17 10.3 C 75 %
741 23-12-2019 03:22:17 10.3 C 75 %
742 23-12-2019 03:32:17 10.3 C 75 %
743 23-12-2019 03:42:17 10.3 C 75 %
744 23-12-2019 03:52:17 10.3 C 75 %
745 23-12-2019 04:02:17 10.3 C 75 %
746 23-12-2019 04:12:17 10.3 C 75 %
747 23-12-2019 04:22:17 10.3 C 75 %
748 23-12-2019 04:32:17 10.3 C 75 %
749 23-12-2019 04:42:17 10.3 C 75 %
750 23-12-2019 04:52:17 10.3 C 75 %
Sensor: Nr:Datum:Temp:Feuchte:
G-T/H 751 23-12-2019 05:02:17 10.3 C 75 %
752 23-12-2019 05:12:17 10.3 C 75 %
753 23-12-2019 05:22:17 10.2 C 75 %
754 23-12-2019 05:32:17 10.3 C 75 %
755 23-12-2019 05:42:17 10.2 C 75 %
756 23-12-2019 05:52:17 10.2 C 75 %
757 23-12-2019 06:02:18 10.2 C 75 %
758 23-12-2019 06:12:18 10.2 C 75 %
759 23-12-2019 06:22:17 10.2 C 75 %
760 23-12-2019 06:32:18 10.2 C 75 %
761 23-12-2019 06:42:18 10.2 C 75 %
762 23-12-2019 06:52:17 10.2 C 75 %
763 23-12-2019 07:02:17 10.2 C 75 %
764 23-12-2019 07:12:17 10.2 C 75 %
765 23-12-2019 07:22:17 10.2 C 75 %
766 23-12-2019 07:32:17 10.2 C 75 %
767 23-12-2019 07:42:17 10.2 C 75 %
768 23-12-2019 07:52:17 10.2 C 75 %
769 23-12-2019 08:02:17 10.2 C 75 %
770 23-12-2019 08:12:17 10.2 C 75 %
771 23-12-2019 08:22:17 10.2 C 75 %
772 23-12-2019 08:32:18 10.2 C 75 %
773 23-12-2019 08:42:18 10.2 C 75 %
774 23-12-2019 08:52:17 10.2 C 75 %
775 23-12-2019 09:02:17 10.2 C 75 %
Sensor: Nr:Datum:Temp:Feuchte:
G-T/H 776 23-12-2019 09:12:18 10.2 C 75 %
777 23-12-2019 09:22:17 10.2 C 75 %
778 23-12-2019 09:32:18 10.2 C 75 %
779 23-12-2019 09:42:18 10.2 C 75 %
780 23-12-2019 09:52:18 10.2 C 75 %
781 23-12-2019 10:02:17 10.2 C 75 %
782 23-12-2019 10:12:18 10.2 C 75 %
783 23-12-2019 10:22:17 10.2 C 75 %
784 23-12-2019 10:32:18 10.2 C 75 %
785 23-12-2019 10:42:18 10.2 C 75 %
786 23-12-2019 10:52:17 10.2 C 75 %
787 23-12-2019 11:02:18 10.2 C 75 %
788 23-12-2019 11:12:18 10.2 C 75 %
789 23-12-2019 11:22:17 10.2 C 75 %
790 23-12-2019 11:32:18 10.2 C 75 %
791 23-12-2019 11:42:18 10.2 C 75 %
792 23-12-2019 11:52:17 10.2 C 75 %
793 23-12-2019 12:02:18 10.2 C 75 %
794 23-12-2019 12:12:18 10.2 C 75 %
795 23-12-2019 12:22:17 10.2 C 75 %
796 23-12-2019 12:32:17 10.3 C 75 %
797 23-12-2019 12:42:17 10.3 C 75 %
798 23-12-2019 12:52:17 10.2 C 75 %
799 23-12-2019 13:02:17 10.3 C 75 %
800 23-12-2019 13:12:17 10.3 C 76 %
Sensor: Nr:Datum:Temp:Feuchte:
G-T/H 801 23-12-2019 13:22:17 10.3 C 75 %
802 23-12-2019 13:32:18 10.3 C 76 %
803 23-12-2019 13:42:18 10.3 C 76 %
804 23-12-2019 13:52:17 10.3 C 76 %
805 23-12-2019 14:02:17 10.3 C 76 %
806 23-12-2019 14:12:17 10.3 C 76 %
807 23-12-2019 14:22:18 10.3 C 76 %
808 23-12-2019 14:32:17 10.3 C 76 %
809 23-12-2019 14:42:17 10.3 C 76 %
810 23-12-2019 14:52:17 10.3 C 76 %
811 23-12-2019 15:02:18 10.3 C 76 %
812 23-12-2019 15:12:18 10.3 C 76 %
813 23-12-2019 15:22:17 10.3 C 76 %
814 23-12-2019 15:32:17 10.3 C 76 %
815 23-12-2019 15:42:17 10.3 C 76 %
816 23-12-2019 15:52:17 10.3 C 76 %
817 23-12-2019 16:02:17 10.3 C 75 %
818 23-12-2019 16:12:17 10.3 C 75 %
819 23-12-2019 16:22:18 10.3 C 76 %
820 23-12-2019 16:32:17 10.4 C 76 %
821 23-12-2019 16:42:17 10.3 C 76 %
822 23-12-2019 16:52:18 10.4 C 76 %
823 23-12-2019 17:02:17 10.4 C 76 %
824 23-12-2019 17:12:17 10.4 C 76 %
825 23-12-2019 17:22:17 10.4 C 76 %
Sensor: Nr:Datum:Temp:Feuchte:
G-T/H 826 23-12-2019 17:32:17 10.4 C 76 %
827 23-12-2019 17:42:18 10.4 C 76 %
828 23-12-2019 17:52:17 10.4 C 76 %
829 23-12-2019 18:02:17 10.4 C 76 %
830 23-12-2019 18:12:17 10.4 C 76 %
831 23-12-2019 18:22:17 10.4 C 76 %
832 23-12-2019 18:32:17 10.4 C 76 %
833 23-12-2019 18:42:17 10.4 C 76 %
834 23-12-2019 18:52:17 10.4 C 76 %
835 23-12-2019 19:02:17 10.4 C 76 %
836 23-12-2019 19:12:17 10.4 C 76 %
837 23-12-2019 19:22:17 10.4 C 76 %
838 23-12-2019 19:32:17 10.4 C 76 %
839 23-12-2019 19:42:17 10.4 C 76 %
840 23-12-2019 19:52:17 10.4 C 76 %
841 23-12-2019 20:02:17 10.4 C 76 %
842 23-12-2019 20:12:17 10.4 C 76 %
843 23-12-2019 20:22:17 10.4 C 76 %
844 23-12-2019 20:32:18 10.4 C 76 %
845 23-12-2019 20:42:18 10.4 C 76 %
846 23-12-2019 20:52:17 10.4 C 76 %
847 23-12-2019 21:02:18 10.4 C 76 %
848 23-12-2019 21:12:18 10.4 C 76 %
849 23-12-2019 21:22:17 10.4 C 76 %
850 23-12-2019 21:32:17 10.4 C 76 %
Sensor: Nr:Datum:Temp:Feuchte:
G-T/H 851 23-12-2019 21:42:17 10.4 C 76 %
852 23-12-2019 21:52:17 10.4 C 76 %
853 23-12-2019 22:02:18 10.4 C 76 %
854 23-12-2019 22:12:18 10.4 C 76 %
855 23-12-2019 22:22:17 10.3 C 76 %
856 23-12-2019 22:32:17 10.3 C 75 %
857 23-12-2019 22:42:17 10.3 C 75 %
858 23-12-2019 22:52:17 10.3 C 75 %
859 23-12-2019 23:02:17 10.3 C 75 %
860 23-12-2019 23:12:17 10.4 C 75 %
861 23-12-2019 23:22:18 10.3 C 75 %
862 23-12-2019 23:32:17 10.3 C 75 %
863 23-12-2019 23:42:17 10.3 C 75 %
864 23-12-2019 23:52:17 10.3 C 75 %
865 24-12-2019 00:02:17 10.3 C 75 %
866 24-12-2019 00:12:17 10.3 C 75 %
867 24-12-2019 00:22:17 10.3 C 75 %
868 24-12-2019 00:32:18 10.3 C 75 %
869 24-12-2019 00:42:18 10.3 C 75 %
870 24-12-2019 00:52:17 10.3 C 75 %
871 24-12-2019 01:02:17 10.3 C 75 %
872 24-12-2019 01:12:17 10.3 C 75 %
873 24-12-2019 01:22:17 10.3 C 75 %
874 24-12-2019 01:32:17 10.3 C 75 %
875 24-12-2019 01:42:17 10.2 C 75 %
Sensor: Nr:Datum:Temp:Feuchte:
G-T/H 876 24-12-2019 01:52:17 10.2 C 75 %
877 24-12-2019 02:02:17 10.2 C 75 %
878 24-12-2019 02:12:17 10.2 C 75 %
879 24-12-2019 02:22:17 10.2 C 75 %
880 24-12-2019 02:32:18 10.2 C 75 %
881 24-12-2019 02:42:18 10.2 C 75 %
882 24-12-2019 02:52:17 10.2 C 75 %
883 24-12-2019 03:02:18 10.2 C 75 %
884 24-12-2019 03:12:18 10.2 C 75 %
885 24-12-2019 03:22:17 10.2 C 75 %
886 24-12-2019 03:32:17 10.2 C 75 %
887 24-12-2019 03:42:17 10.2 C 75 %
888 24-12-2019 03:52:17 10.2 C 75 %
889 24-12-2019 04:02:17 10.2 C 75 %
890 24-12-2019 04:12:17 10.2 C 75 %
891 24-12-2019 04:22:17 10.2 C 75 %
892 24-12-2019 04:32:17 10.2 C 75 %
893 24-12-2019 04:42:17 10.1 C 75 %
894 24-12-2019 04:52:17 10.2 C 75 %
895 24-12-2019 05:02:18 10.2 C 75 %
896 24-12-2019 05:12:18 10.1 C 75 %
897 24-12-2019 05:22:17 10.1 C 75 %
898 24-12-2019 05:32:18 10.1 C 75 %
899 24-12-2019 05:42:18 10.1 C 75 %
900 24-12-2019 05:52:17 10.1 C 75 %
Sensor: Nr:Datum:Temp:Feuchte:
G-T/H 901 24-12-2019 06:02:18 10.1 C 75 %
902 24-12-2019 06:12:18 10.1 C 75 %
903 24-12-2019 06:22:17 10.1 C 75 %
904 24-12-2019 06:32:17 10.1 C 75 %
905 24-12-2019 06:42:17 10.1 C 74 %
906 24-12-2019 06:52:17 10 C 74 %
907 24-12-2019 07:02:17 10.1 C 74 %
908 24-12-2019 07:12:17 10.1 C 74 %
909 24-12-2019 07:22:17 10.1 C 74 %
910 24-12-2019 07:32:17 10.1 C 74 %
911 24-12-2019 07:42:17 10.1 C 74 %
912 24-12-2019 07:52:17 10.1 C 74 %
913 24-12-2019 08:02:17 10.1 C 74 %
914 24-12-2019 08:12:17 10.1 C 74 %
915 24-12-2019 08:22:17 10 C 74 %
916 24-12-2019 08:32:17 10 C 74 %
917 24-12-2019 08:42:17 10 C 74 %
918 24-12-2019 08:52:18 10 C 74 %
919 24-12-2019 09:02:17 10 C 74 %
920 24-12-2019 09:12:17 10 C 74 %
921 24-12-2019 09:22:17 10 C 75 %
922 24-12-2019 09:32:17 10 C 74 %
923 24-12-2019 09:42:17 10 C 75 %
924 24-12-2019 09:52:17 10 C 75 %
925 24-12-2019 10:02:17 10 C 75 %
Sensor: Nr:Datum:Temp:Feuchte:
G-T/H 926 24-12-2019 10:12:17 10 C 75 %
927 24-12-2019 10:22:17 10 C 75 %
928 24-12-2019 10:32:17 10 C 75 %
929 24-12-2019 10:42:17 10 C 75 %
930 24-12-2019 10:52:17 10 C 75 %
931 24-12-2019 11:02:17 10 C 75 %
932 24-12-2019 11:12:17 10 C 75 %
933 24-12-2019 11:22:17 10 C 75 %
934 24-12-2019 11:32:17 10 C 75 %
935 24-12-2019 11:42:17 10 C 75 %
936 24-12-2019 11:52:18 10 C 75 %
937 24-12-2019 12:02:17 10 C 75 %
938 24-12-2019 12:12:17 10 C 75 %
939 24-12-2019 12:22:17 10 C 75 %
940 24-12-2019 12:32:17 10 C 75 %
941 24-12-2019 12:42:17 10 C 75 %
942 24-12-2019 12:52:18 10 C 75 %
943 24-12-2019 13:02:17 10 C 75 %
944 24-12-2019 13:12:17 10 C 75 %
945 24-12-2019 13:22:17 10 C 75 %
946 24-12-2019 13:32:17 10.1 C 75 %
947 24-12-2019 13:42:17 10.1 C 75 %
948 24-12-2019 13:52:17 10 C 75 %
949 24-12-2019 14:02:18 10 C 75 %
950 24-12-2019 14:12:18 10.1 C 75 %
Sensor: Nr:Datum:Temp:Feuchte:
G-T/H 951 24-12-2019 14:22:17 10 C 75 %
952 24-12-2019 14:32:18 10.1 C 75 %
953 24-12-2019 14:42:18 10.1 C 75 %
954 24-12-2019 14:52:17 10.1 C 75 %
955 24-12-2019 15:02:18 10 C 75 %
956 24-12-2019 15:12:18 10.1 C 75 %
957 24-12-2019 15:22:17 10.1 C 75 %
958 24-12-2019 15:32:17 10.1 C 75 %
959 24-12-2019 15:42:17 10.1 C 75 %
960 24-12-2019 15:52:17 10.1 C 75 %
961 24-12-2019 16:02:17 10.1 C 75 %
962 24-12-2019 16:12:17 10.1 C 75 %
963 24-12-2019 16:22:17 10.1 C 75 %
964 24-12-2019 16:32:17 10.1 C 75 %
965 24-12-2019 16:42:17 10.1 C 75 %
966 24-12-2019 16:52:17 10.1 C 75 %
967 24-12-2019 17:02:17 10.1 C 75 %
968 24-12-2019 17:12:17 10.1 C 75 %
969 24-12-2019 17:22:18 10.1 C 75 %
970 24-12-2019 17:32:17 10.1 C 75 %
971 24-12-2019 17:42:17 10.1 C 75 %
972 24-12-2019 17:52:17 10.2 C 75 %
973 24-12-2019 18:02:17 10.2 C 75 %
974 24-12-2019 18:12:17 10.2 C 75 %
975 24-12-2019 18:22:17 10.2 C 75 %
Sensor: Nr:Datum:Temp:Feuchte:
G-T/H 976 24-12-2019 18:32:17 10.2 C 75 %
977 24-12-2019 18:42:17 10.2 C 75 %
978 24-12-2019 18:52:17 10.2 C 75 %
979 24-12-2019 19:02:17 10.2 C 75 %
980 24-12-2019 19:12:17 10.2 C 75 %
981 24-12-2019 19:22:17 10.2 C 75 %
982 24-12-2019 19:32:17 10.2 C 75 %
983 24-12-2019 19:42:17 10.2 C 75 %
984 24-12-2019 19:52:17 10.2 C 76 %
985 24-12-2019 20:02:17 10.2 C 75 %
986 24-12-2019 20:12:17 10.2 C 75 %
987 24-12-2019 20:22:17 10.1 C 75 %
988 24-12-2019 20:32:18 10.1 C 75 %
989 24-12-2019 20:42:18 10.2 C 75 %
990 24-12-2019 20:52:17 10.2 C 75 %
991 24-12-2019 21:02:17 10.2 C 75 %
992 24-12-2019 21:12:17 10.2 C 75 %
993 24-12-2019 21:22:17 10.2 C 75 %
994 24-12-2019 21:32:17 10.2 C 75 %
995 24-12-2019 21:42:17 10.2 C 75 %
996 24-12-2019 21:52:17 10.2 C 75 %
997 24-12-2019 22:02:17 10.2 C 75 %
998 24-12-2019 22:12:17 10.2 C 75 %
999 24-12-2019 22:22:17 10.1 C 75 %
1000 24-12-2019 22:32:17 10.2 C 75 %
Sensor: Nr:Datum:Temp:Feuchte:
G-T/H 1001 24-12-2019 22:42:17 10.2 C 75 %
1002 24-12-2019 22:52:17 10.2 C 76 %
1003 24-12-2019 23:02:17 10.2 C 76 %
1004 24-12-2019 23:12:17 10.2 C 76 %
1005 24-12-2019 23:22:17 10.2 C 76 %
1006 24-12-2019 23:32:17 10.2 C 76 %
1007 24-12-2019 23:42:17 10.2 C 76 %
1008 24-12-2019 23:52:17 10.2 C 76 %
1009 25-12-2019 00:02:17 10.2 C 76 %
1010 25-12-2019 00:12:17 10.2 C 76 %
1011 25-12-2019 00:22:17 10.2 C 76 %
1012 25-12-2019 00:32:17 10.2 C 76 %
1013 25-12-2019 00:42:18 10.2 C 76 %
1014 25-12-2019 00:52:17 10.2 C 76 %
1015 25-12-2019 01:02:17 10.2 C 76 %
1016 25-12-2019 01:12:17 10.2 C 76 %
1017 25-12-2019 01:22:17 10.2 C 76 %
1018 25-12-2019 01:32:18 10.2 C 76 %
1019 25-12-2019 01:42:18 10.2 C 76 %
1020 25-12-2019 01:52:17 10.2 C 76 %
1021 25-12-2019 02:02:17 10.2 C 76 %
1022 25-12-2019 02:12:17 10.2 C 76 %
1023 25-12-2019 02:22:17 10.2 C 76 %
1024 25-12-2019 02:32:18 10.2 C 76 %
1025 25-12-2019 02:42:18 10.2 C 76 %
Sensor: Nr:Datum:Temp:Feuchte:
G-T/H 1026 25-12-2019 02:52:17 10.2 C 76 %
1027 25-12-2019 03:02:17 10.2 C 76 %
1028 25-12-2019 03:12:17 10.2 C 76 %
1029 25-12-2019 03:22:17 10.2 C 76 %
1030 25-12-2019 03:32:17 10.2 C 76 %
1031 25-12-2019 03:42:17 10.2 C 76 %
1032 25-12-2019 03:52:18 10.2 C 76 %
1033 25-12-2019 04:02:17 10.2 C 76 %
1034 25-12-2019 04:12:17 10.2 C 76 %
1035 25-12-2019 04:22:18 10.2 C 76 %
1036 25-12-2019 04:32:17 10.2 C 76 %
1037 25-12-2019 04:42:17 10.2 C 76 %
1038 25-12-2019 04:52:17 10.2 C 76 %
1039 25-12-2019 05:02:17 10.2 C 76 %
1040 25-12-2019 05:12:17 10.2 C 76 %
1041 25-12-2019 05:22:18 10.2 C 76 %
1042 25-12-2019 05:32:17 10.2 C 76 %
1043 25-12-2019 05:42:17 10.2 C 76 %
1044 25-12-2019 05:52:17 10.2 C 76 %
1045 25-12-2019 06:02:18 10.2 C 76 %
1046 25-12-2019 06:12:18 10.2 C 76 %
1047 25-12-2019 06:22:17 10.2 C 76 %
1048 25-12-2019 06:32:18 10.2 C 76 %
1049 25-12-2019 06:42:18 10.2 C 76 %
1050 25-12-2019 06:52:17 10.2 C 76 %
Sensor: Nr:Datum:Temp:Feuchte:
G-T/H 1051 25-12-2019 07:02:18 10.2 C 76 %
1052 25-12-2019 07:12:18 10.2 C 76 %
1053 25-12-2019 07:22:17 10.2 C 76 %
1054 25-12-2019 07:32:18 10.2 C 76 %
1055 25-12-2019 07:42:18 10.2 C 76 %
1056 25-12-2019 07:52:17 10.2 C 76 %
1057 25-12-2019 08:02:18 10.2 C 76 %
1058 25-12-2019 08:12:18 10.2 C 76 %
1059 25-12-2019 08:22:17 10.2 C 76 %
1060 25-12-2019 08:32:17 10.2 C 76 %
1061 25-12-2019 08:42:17 10.2 C 76 %
1062 25-12-2019 08:52:17 10.2 C 76 %
1063 25-12-2019 09:02:17 10.2 C 76 %
1064 25-12-2019 09:12:17 10.2 C 76 %
1065 25-12-2019 09:22:18 10.2 C 76 %
1066 25-12-2019 09:32:17 10.2 C 76 %
1067 25-12-2019 09:42:17 10.2 C 76 %
1068 25-12-2019 09:52:17 10.2 C 76 %
1069 25-12-2019 10:02:17 10.2 C 76 %
1070 25-12-2019 10:12:17 10.2 C 76 %
1071 25-12-2019 10:22:18 10.2 C 76 %
1072 25-12-2019 10:32:17 10.2 C 76 %
1073 25-12-2019 10:42:17 10.2 C 76 %
1074 25-12-2019 10:52:17 10.3 C 76 %
1075 25-12-2019 11:02:17 10.3 C 76 %
Sensor: Nr:Datum:Temp:Feuchte:
G-T/H 1076 25-12-2019 11:12:17 10.3 C 76 %
1077 25-12-2019 11:22:17 10.2 C 76 %
1078 25-12-2019 11:32:17 10.3 C 76 %
1079 25-12-2019 11:42:17 10.2 C 76 %
1080 25-12-2019 11:52:18 10.3 C 76 %
1081 25-12-2019 12:02:17 10.2 C 76 %
1082 25-12-2019 12:12:17 10.2 C 76 %
1083 25-12-2019 12:22:17 10.3 C 76 %
1084 25-12-2019 12:32:17 10.3 C 76 %
1085 25-12-2019 12:42:17 10.3 C 76 %
1086 25-12-2019 12:52:18 10.3 C 76 %
1087 25-12-2019 13:02:17 10.3 C 76 %
1088 25-12-2019 13:12:17 10.2 C 76 %
1089 25-12-2019 13:22:18 10.3 C 76 %
1090 25-12-2019 13:32:17 10.3 C 76 %
1091 25-12-2019 13:42:17 10.2 C 76 %
1092 25-12-2019 13:52:17 10.2 C 76 %
1093 25-12-2019 14:02:17 10.3 C 76 %
1094 25-12-2019 14:12:17 10.3 C 76 %
1095 25-12-2019 14:22:18 10.3 C 76 %
1096 25-12-2019 14:32:17 10.3 C 76 %
1097 25-12-2019 14:42:17 10.3 C 76 %
1098 25-12-2019 14:52:17 10.3 C 76 %
1099 25-12-2019 15:02:17 10.2 C 76 %
1100 25-12-2019 15:12:17 10.3 C 76 %
Sensor: Nr:Datum:Temp:Feuchte:
G-T/H 1101 25-12-2019 15:22:18 10.3 C 76 %
1102 25-12-2019 15:32:17 10.3 C 76 %
1103 25-12-2019 15:42:17 10.3 C 76 %
1104 25-12-2019 15:52:17 10.3 C 76 %
1105 25-12-2019 16:02:17 10.3 C 76 %
1106 25-12-2019 16:12:17 10.3 C 76 %
1107 25-12-2019 16:22:17 10.3 C 76 %
1108 25-12-2019 16:32:17 10.3 C 76 %
1109 25-12-2019 16:42:17 10.3 C 76 %
1110 25-12-2019 16:52:17 10.3 C 76 %
1111 25-12-2019 17:02:17 10.3 C 76 %
1112 25-12-2019 17:12:17 10.3 C 76 %
1113 25-12-2019 17:22:18 10.3 C 76 %
1114 25-12-2019 17:32:17 10.3 C 76 %
1115 25-12-2019 17:42:17 10.3 C 76 %
1116 25-12-2019 17:52:18 10.3 C 76 %
1117 25-12-2019 18:02:17 10.3 C 76 %
1118 25-12-2019 18:12:17 10.3 C 76 %
1119 25-12-2019 18:22:17 10.3 C 76 %
1120 25-12-2019 18:32:17 10.3 C 76 %
1121 25-12-2019 18:42:17 10.3 C 76 %
1122 25-12-2019 18:52:17 10.3 C 76 %
1123 25-12-2019 19:02:17 10.3 C 76 %
1124 25-12-2019 19:12:17 10.3 C 76 %
1125 25-12-2019 19:22:17 10.3 C 76 %
Sensor: Nr:Datum:Temp:Feuchte:
G-T/H 1126 25-12-2019 19:32:18 10.3 C 76 %
1127 25-12-2019 19:42:18 10.3 C 76 %
1128 25-12-2019 19:52:17 10.3 C 76 %
1129 25-12-2019 20:02:17 10.3 C 76 %
1130 25-12-2019 20:12:17 10.3 C 76 %
1131 25-12-2019 20:22:18 10.3 C 76 %
1132 25-12-2019 20:32:17 10.3 C 76 %
1133 25-12-2019 20:42:17 10.3 C 76 %
1134 25-12-2019 20:52:17 10.3 C 76 %
1135 25-12-2019 21:02:18 10.3 C 76 %
1136 25-12-2019 21:12:18 10.3 C 76 %
1137 25-12-2019 21:22:17 10.3 C 76 %
1138 25-12-2019 21:32:17 10.3 C 76 %
1139 25-12-2019 21:42:17 10.3 C 76 %
1140 25-12-2019 21:52:17 10.2 C 76 %
1141 25-12-2019 22:02:18 10.3 C 76 %
1142 25-12-2019 22:12:18 10.3 C 76 %
1143 25-12-2019 22:22:17 10.3 C 76 %
1144 25-12-2019 22:32:18 10.3 C 76 %
1145 25-12-2019 22:42:18 10.3 C 76 %
1146 25-12-2019 22:52:17 10.2 C 76 %
1147 25-12-2019 23:02:18 10.2 C 76 %
1148 25-12-2019 23:12:18 10.3 C 75 %
1149 25-12-2019 23:22:17 10.2 C 75 %
1150 25-12-2019 23:32:17 10.2 C 75 %
Sensor: Nr:Datum:Temp:Feuchte:
G-T/H 1151 25-12-2019 23:42:17 10.2 C 75 %
1152 25-12-2019 23:52:17 10.2 C 75 %
1153 26-12-2019 00:02:17 10.2 C 75 %
1154 26-12-2019 00:12:18 10.2 C 75 %
1155 26-12-2019 00:22:17 10.2 C 75 %
1156 26-12-2019 00:32:18 10.2 C 75 %
1157 26-12-2019 00:42:18 10.2 C 75 %
1158 26-12-2019 00:52:17 10.2 C 75 %
1159 26-12-2019 01:02:18 10.2 C 75 %
1160 26-12-2019 01:12:18 10.2 C 75 %
1161 26-12-2019 01:22:17 10.2 C 75 %
1162 26-12-2019 01:32:17 10.2 C 75 %
1163 26-12-2019 01:42:17 10.2 C 75 %
1164 26-12-2019 01:52:17 10.2 C 75 %
1165 26-12-2019 02:02:18 10.2 C 75 %
1166 26-12-2019 02:12:18 10.1 C 75 %
1167 26-12-2019 02:22:17 10.1 C 75 %
1168 26-12-2019 02:32:17 10.2 C 75 %
1169 26-12-2019 02:42:17 10.2 C 75 %
1170 26-12-2019 02:52:17 10.1 C 75 %
1171 26-12-2019 03:02:18 10.1 C 75 %
1172 26-12-2019 03:12:18 10.2 C 75 %
1173 26-12-2019 03:22:17 10.2 C 75 %
1174 26-12-2019 03:32:17 10.2 C 75 %
1175 26-12-2019 03:42:17 10.1 C 75 %
Sensor: Nr:Datum:Temp:Feuchte:
G-T/H 1176 26-12-2019 03:52:17 10.1 C 75 %
1177 26-12-2019 04:02:17 10.1 C 75 %
1178 26-12-2019 04:12:17 10.1 C 75 %
1179 26-12-2019 04:22:18 10.1 C 75 %
1180 26-12-2019 04:32:17 10.1 C 75 %
1181 26-12-2019 04:42:17 10.1 C 75 %
1182 26-12-2019 04:52:17 10 C 75 %
1183 26-12-2019 05:02:17 10 C 75 %
1184 26-12-2019 05:12:17 10.1 C 74 %
1185 26-12-2019 05:22:17 10 C 74 %
1186 26-12-2019 05:32:18 10 C 74 %
1187 26-12-2019 05:42:18 10 C 74 %
1188 26-12-2019 05:52:17 10 C 74 %
1189 26-12-2019 06:02:17 10 C 74 %
1190 26-12-2019 06:12:18 10 C 74 %
1191 26-12-2019 06:22:17 10 C 74 %
1192 26-12-2019 06:32:18 10 C 74 %
1193 26-12-2019 06:42:18 10 C 74 %
1194 26-12-2019 06:52:17 10 C 74 %
1195 26-12-2019 07:02:18 10 C 74 %
1196 26-12-2019 07:12:18 10 C 74 %
1197 26-12-2019 07:22:17 10 C 74 %
1198 26-12-2019 07:32:17 10 C 74 %
1199 26-12-2019 07:42:17 10 C 74 %
1200 26-12-2019 07:52:17 10 C 74 %
Sensor: Nr:Datum:Temp:Feuchte:
G-T/H 1201 26-12-2019 08:02:18 9.9 C 75 %
1202 26-12-2019 08:12:18 9.9 C 75 %
1203 26-12-2019 08:22:17 9.9 C 75 %
1204 26-12-2019 08:32:17 9.9 C 75 %
1205 26-12-2019 08:42:17 9.9 C 75 %
1206 26-12-2019 08:52:17 9.9 C 75 %
1207 26-12-2019 09:02:17 9.9 C 75 %
1208 26-12-2019 09:12:17 9.9 C 75 %
1209 26-12-2019 09:22:17 9.9 C 75 %
1210 26-12-2019 09:32:17 9.9 C 75 %
1211 26-12-2019 09:42:17 9.9 C 75 %
1212 26-12-2019 09:52:18 9.9 C 75 %
1213 26-12-2019 10:02:17 9.9 C 75 %
1214 26-12-2019 10:12:17 9.9 C 75 %
1215 26-12-2019 10:22:18 9.9 C 75 %
1216 26-12-2019 10:32:17 9.9 C 75 %
1217 26-12-2019 10:42:17 9.9 C 75 %
1218 26-12-2019 10:52:18 9.9 C 75 %
1219 26-12-2019 11:02:17 9.9 C 75 %
1220 26-12-2019 11:12:17 9.9 C 75 %
1221 26-12-2019 11:22:17 9.9 C 75 %
1222 26-12-2019 11:32:17 9.9 C 75 %
1223 26-12-2019 11:42:17 9.9 C 75 %
1224 26-12-2019 11:52:17 9.9 C 75 %
1225 26-12-2019 12:02:17 9.9 C 75 %
Sensor: Nr:Datum:Temp:Feuchte:
G-T/H 1226 26-12-2019 12:12:17 9.9 C 75 %
1227 26-12-2019 12:22:17 9.9 C 75 %
1228 26-12-2019 12:32:18 9.9 C 75 %
1229 26-12-2019 12:42:18 9.9 C 76 %
1230 26-12-2019 12:52:17 9.9 C 76 %
1231 26-12-2019 13:02:18 9.9 C 76 %
1232 26-12-2019 13:12:18 9.9 C 76 %
1233 26-12-2019 13:22:17 9.9 C 76 %
1234 26-12-2019 13:32:18 9.8 C 76 %
1235 26-12-2019 13:42:18 9.9 C 76 %
1236 26-12-2019 13:52:17 9.8 C 76 %
1237 26-12-2019 14:02:18 9.9 C 76 %
1238 26-12-2019 14:12:18 9.8 C 76 %
1239 26-12-2019 14:22:17 9.8 C 76 %
1240 26-12-2019 14:32:17 9.9 C 76 %
1241 26-12-2019 14:42:17 9.9 C 76 %
1242 26-12-2019 14:52:17 9.9 C 76 %
1243 26-12-2019 15:02:17 9.9 C 76 %
1244 26-12-2019 15:12:17 9.9 C 76 %
1245 26-12-2019 15:22:17 9.9 C 76 %
1246 26-12-2019 15:32:17 9.8 C 76 %
1247 26-12-2019 15:42:17 9.8 C 76 %
1248 26-12-2019 15:52:18 9.8 C 76 %
1249 26-12-2019 16:02:17 9.8 C 76 %
1250 26-12-2019 16:12:17 9.9 C 76 %
Sensor: Nr:Datum:Temp:Feuchte:
G-T/H 1251 26-12-2019 16:22:17 9.8 C 76 %
1252 26-12-2019 16:32:17 9.8 C 76 %
1253 26-12-2019 16:42:18 9.8 C 76 %
1254 26-12-2019 16:53:17 9.8 C 76 %
1255 26-12-2019 17:02:17 9.8 C 76 %
1256 26-12-2019 17:12:17 9.8 C 76 %
1257 26-12-2019 17:22:17 9.8 C 76 %
1258 26-12-2019 17:32:17 9.8 C 76 %
1259 26-12-2019 17:42:17 9.8 C 76 %
1260 26-12-2019 17:52:17 9.8 C 76 %
1261 26-12-2019 18:02:17 9.8 C 76 %
1262 26-12-2019 18:12:17 9.8 C 76 %
1263 26-12-2019 18:22:17 9.8 C 76 %
1264 26-12-2019 18:32:17 9.8 C 76 %
1265 26-12-2019 18:42:18 9.8 C 76 %
1266 26-12-2019 18:53:17 9.8 C 76 %
1267 26-12-2019 19:02:17 9.8 C 76 %
1268 26-12-2019 19:12:17 9.8 C 76 %
1269 26-12-2019 19:23:17 9.8 C 76 %
1270 26-12-2019 19:32:17 9.8 C 76 %
1271 26-12-2019 19:42:17 9.8 C 76 %
1272 26-12-2019 19:53:17 9.8 C 76 %
1273 26-12-2019 20:02:17 9.8 C 76 %
1274 26-12-2019 20:12:17 9.8 C 76 %
1275 26-12-2019 20:23:17 9.8 C 76 %
Sensor: Nr:Datum:Temp:Feuchte:
G-T/H 1276 26-12-2019 20:32:17 9.8 C 76 %
1277 26-12-2019 20:42:17 9.8 C 76 %
1278 26-12-2019 20:53:17 9.8 C 76 %
1279 26-12-2019 21:02:17 9.8 C 76 %
1280 26-12-2019 21:12:17 9.8 C 76 %
1281 26-12-2019 21:23:17 9.8 C 76 %
1282 26-12-2019 21:32:18 9.8 C 76 %
1283 26-12-2019 21:42:18 9.8 C 75 %
1284 26-12-2019 21:52:17 9.8 C 75 %
1285 26-12-2019 22:02:18 9.8 C 75 %
1286 26-12-2019 22:12:18 9.8 C 75 %
1287 26-12-2019 22:22:17 9.8 C 75 %
1288 26-12-2019 22:33:17 9.8 C 75 %
1289 26-12-2019 22:43:17 9.8 C 75 %
1290 26-12-2019 22:52:17 9.8 C 75 %
1291 26-12-2019 23:03:17 9.8 C 75 %
1292 26-12-2019 23:13:17 9.8 C 75 %
1293 26-12-2019 23:23:17 9.8 C 75 %
1294 26-12-2019 23:32:17 9.7 C 75 %
1295 26-12-2019 23:42:17 9.7 C 75 %
1296 26-12-2019 23:53:17 9.7 C 75 %
1297 27-12-2019 00:02:17 9.7 C 75 %
1298 27-12-2019 00:12:17 9.7 C 75 %
1299 27-12-2019 00:23:17 9.7 C 75 %
1300 27-12-2019 00:32:17 9.7 C 75 %
Sensor: Nr:Datum:Temp:Feuchte:
G-T/H 1301 27-12-2019 00:42:18 9.7 C 75 %
1302 27-12-2019 00:53:17 9.7 C 75 %
1303 27-12-2019 01:03:18 9.7 C 75 %
1304 27-12-2019 01:13:18 9.7 C 75 %
1305 27-12-2019 01:23:17 9.7 C 75 %
1306 27-12-2019 01:33:17 9.7 C 75 %
1307 27-12-2019 01:43:17 9.7 C 75 %
1308 27-12-2019 01:53:18 9.7 C 75 %
1309 27-12-2019 02:03:17 9.7 C 75 %
1310 27-12-2019 02:13:17 9.7 C 75 %
1311 27-12-2019 02:23:17 9.7 C 75 %
1312 27-12-2019 02:33:18 9.8 C 75 %
1313 27-12-2019 02:43:19 9.7 C 75 %
1314 27-12-2019 02:53:17 9.7 C 75 %
1315 27-12-2019 03:03:17 9.7 C 75 %
1316 27-12-2019 03:13:17 9.7 C 75 %
1317 27-12-2019 03:23:17 9.7 C 75 %
1318 27-12-2019 03:33:17 9.7 C 75 %
1319 27-12-2019 03:43:18 9.7 C 75 %
1320 27-12-2019 03:53:17 9.7 C 75 %
1321 27-12-2019 04:03:17 9.7 C 75 %
1322 27-12-2019 04:13:17 9.7 C 75 %
1323 27-12-2019 04:23:17 9.7 C 75 %
1324 27-12-2019 04:33:17 9.7 C 75 %
1325 27-12-2019 04:43:17 9.7 C 75 %
Sensor: Nr:Datum:Temp:Feuchte:
G-T/H 1326 27-12-2019 04:53:18 9.7 C 75 %
1327 27-12-2019 05:03:17 9.7 C 75 %
1328 27-12-2019 05:13:17 9.7 C 75 %
1329 27-12-2019 05:23:17 9.7 C 75 %
1330 27-12-2019 05:33:17 9.7 C 75 %
1331 27-12-2019 05:43:17 9.7 C 75 %
1332 27-12-2019 05:53:17 9.7 C 75 %
1333 27-12-2019 06:03:17 9.7 C 75 %
1334 27-12-2019 06:13:17 9.7 C 75 %
1335 27-12-2019 06:23:17 9.7 C 75 %
1336 27-12-2019 06:33:17 9.7 C 76 %
1337 27-12-2019 06:43:17 9.7 C 76 %
1338 27-12-2019 06:53:17 9.7 C 76 %
1339 27-12-2019 07:03:17 9.7 C 76 %
1340 27-12-2019 07:13:17 9.7 C 76 %
1341 27-12-2019 07:23:18 9.7 C 76 %
1342 27-12-2019 07:33:17 9.7 C 76 %
1343 27-12-2019 07:43:17 9.7 C 76 %
1344 27-12-2019 07:53:17 9.7 C 76 %
1345 27-12-2019 08:03:17 9.7 C 76 %
1346 27-12-2019 08:13:17 9.7 C 76 %
1347 27-12-2019 08:23:17 9.7 C 76 %
1348 27-12-2019 08:33:17 9.7 C 76 %
1349 27-12-2019 08:43:17 9.7 C 76 %
1350 27-12-2019 08:53:18 9.7 C 76 %
Sensor: Nr:Datum:Temp:Feuchte:
G-T/H 1351 27-12-2019 09:03:17 9.7 C 76 %
1352 27-12-2019 09:13:17 9.7 C 76 %
1353 27-12-2019 09:23:17 9.7 C 76 %
1354 27-12-2019 09:33:17 9.7 C 76 %
1355 27-12-2019 09:43:17 9.7 C 76 %
1356 27-12-2019 09:53:17 9.7 C 76 %
1357 27-12-2019 10:03:17 9.7 C 76 %
1358 27-12-2019 10:13:17 9.6 C 76 %
1359 27-12-2019 10:23:17 9.7 C 76 %
1360 27-12-2019 10:33:18 9.7 C 76 %
1361 27-12-2019 10:43:18 9.7 C 76 %
1362 27-12-2019 10:53:17 9.7 C 76 %
1363 27-12-2019 11:03:18 9.7 C 76 %
1364 27-12-2019 11:13:18 9.7 C 76 %
1365 27-12-2019 11:23:17 9.7 C 76 %
1366 27-12-2019 11:33:17 9.7 C 76 %
1367 27-12-2019 11:43:17 9.6 C 76 %
1368 27-12-2019 11:53:17 9.7 C 76 %
1369 27-12-2019 12:03:17 9.7 C 76 %
1370 27-12-2019 12:13:17 9.7 C 76 %
1371 27-12-2019 12:23:17 9.7 C 76 %
1372 27-12-2019 12:33:17 9.7 C 76 %
1373 27-12-2019 12:43:17 9.7 C 76 %
1374 27-12-2019 12:53:17 9.7 C 76 %
1375 27-12-2019 13:03:17 9.7 C 76 %
Sensor: Nr:Datum:Temp:Feuchte:
G-T/H 1376 27-12-2019 13:13:17 9.6 C 76 %
1377 27-12-2019 13:23:17 9.7 C 76 %
1378 27-12-2019 13:33:17 9.7 C 76 %
1379 27-12-2019 13:43:17 9.7 C 76 %
1380 27-12-2019 13:53:17 9.7 C 76 %
1381 27-12-2019 14:03:18 9.7 C 76 %
1382 27-12-2019 14:13:18 9.7 C 76 %
1383 27-12-2019 14:23:18 9.7 C 76 %
1384 27-12-2019 14:33:17 9.7 C 76 %
1385 27-12-2019 14:43:17 9.7 C 76 %
1386 27-12-2019 14:53:18 9.7 C 76 %
1387 27-12-2019 15:03:17 9.7 C 76 %
1388 27-12-2019 15:13:17 9.7 C 76 %
1389 27-12-2019 15:23:18 9.7 C 76 %
1390 27-12-2019 15:33:17 9.7 C 76 %
1391 27-12-2019 15:43:17 9.7 C 76 %
1392 27-12-2019 15:53:17 9.7 C 76 %
1393 27-12-2019 16:03:17 9.7 C 76 %
1394 27-12-2019 16:13:17 9.7 C 76 %
1395 27-12-2019 16:23:17 9.7 C 76 %
1396 27-12-2019 16:33:17 9.7 C 76 %
1397 27-12-2019 16:43:17 9.7 C 76 %
1398 27-12-2019 16:53:17 9.7 C 76 %
1399 27-12-2019 17:03:17 9.7 C 76 %
1400 27-12-2019 17:13:17 9.7 C 76 %
Sensor: Nr:Datum:Temp:Feuchte:
G-T/H 1401 27-12-2019 17:23:17 9.7 C 76 %
1402 27-12-2019 17:33:18 9.7 C 76 %
1403 27-12-2019 17:43:18 9.7 C 76 %
1404 27-12-2019 17:53:17 9.7 C 76 %
1405 27-12-2019 18:03:18 9.7 C 76 %
1406 27-12-2019 18:13:18 9.7 C 76 %
1407 27-12-2019 18:23:17 9.7 C 76 %
1408 27-12-2019 18:33:18 9.7 C 76 %
1409 27-12-2019 18:43:18 9.7 C 76 %
1410 27-12-2019 18:53:17 9.7 C 76 %
1411 27-12-2019 19:03:17 9.7 C 76 %
1412 27-12-2019 19:13:17 9.7 C 76 %
1413 27-12-2019 19:23:17 9.7 C 76 %
1414 27-12-2019 19:33:17 9.7 C 76 %
1415 27-12-2019 19:43:17 9.7 C 76 %
1416 27-12-2019 19:53:18 9.7 C 76 %
1417 27-12-2019 20:03:17 9.7 C 76 %
1418 27-12-2019 20:13:17 9.7 C 76 %
1419 27-12-2019 20:23:17 9.7 C 76 %
1420 27-12-2019 20:33:18 9.7 C 76 %
1421 27-12-2019 20:43:18 9.7 C 75 %
1422 27-12-2019 20:53:17 9.7 C 75 %
1423 27-12-2019 21:03:18 9.7 C 75 %
1424 27-12-2019 21:13:18 9.7 C 75 %
1425 27-12-2019 21:23:17 9.7 C 75 %
Sensor: Nr:Datum:Temp:Feuchte:
G-T/H 1426 27-12-2019 21:33:18 9.7 C 75 %
1427 27-12-2019 21:43:18 9.7 C 75 %
1428 27-12-2019 21:53:17 9.7 C 75 %
1429 27-12-2019 22:03:17 9.7 C 75 %
1430 27-12-2019 22:13:17 9.7 C 75 %
1431 27-12-2019 22:23:17 9.7 C 75 %
1432 27-12-2019 22:33:17 9.7 C 75 %
1433 27-12-2019 22:43:17 9.7 C 75 %
1434 27-12-2019 22:53:17 9.7 C 75 %
1435 27-12-2019 23:03:18 9.6 C 75 %
1436 27-12-2019 23:13:18 9.6 C 75 %
1437 27-12-2019 23:23:17 9.6 C 75 %
1438 27-12-2019 23:33:17 9.6 C 75 %
1439 27-12-2019 23:43:17 9.6 C 75 %
1440 27-12-2019 23:53:17 9.6 C 74 %
1441 28-12-2019 00:03:17 9.6 C 74 %
1442 28-12-2019 00:13:17 9.6 C 74 %
1443 28-12-2019 00:23:18 9.6 C 74 %
1444 28-12-2019 00:33:17 9.6 C 74 %
1445 28-12-2019 00:43:17 9.6 C 74 %
1446 28-12-2019 00:53:17 9.5 C 74 %
1447 28-12-2019 01:03:17 9.6 C 74 %
1448 28-12-2019 01:13:17 9.5 C 74 %
1449 28-12-2019 01:23:17 9.5 C 74 %
1450 28-12-2019 01:33:17 9.5 C 74 %
Sensor: Nr:Datum:Temp:Feuchte:
G-T/H 1451 28-12-2019 01:43:17 9.5 C 74 %
1452 28-12-2019 01:53:17 9.5 C 74 %
1453 28-12-2019 02:03:17 9.4 C 73 %
1454 28-12-2019 02:13:17 9.4 C 73 %
1455 28-12-2019 02:23:17 9.5 C 73 %
1456 28-12-2019 02:33:18 9.3 C 73 %
1457 28-12-2019 02:43:18 9.4 C 73 %
1458 28-12-2019 02:53:17 9.3 C 73 %
1459 28-12-2019 03:03:17 9.3 C 73 %
1460 28-12-2019 03:13:18 9.3 C 73 %
1461 28-12-2019 03:23:17 9.3 C 73 %
1462 28-12-2019 03:33:17 9.2 C 73 %
1463 28-12-2019 03:43:17 9.3 C 73 %
1464 28-12-2019 03:53:18 9.3 C 73 %
1465 28-12-2019 04:03:17 9.2 C 73 %
1466 28-12-2019 04:13:17 9.2 C 72 %
1467 28-12-2019 04:23:17 9.2 C 72 %
1468 28-12-2019 04:33:17 9.2 C 72 %
1469 28-12-2019 04:43:18 9.2 C 72 %
1470 28-12-2019 04:53:17 9.1 C 72 %
1471 28-12-2019 05:03:18 9.1 C 72 %
1472 28-12-2019 05:13:18 9.1 C 72 %
1473 28-12-2019 05:23:17 9 C 72 %
1474 28-12-2019 05:33:18 9.1 C 72 %
1475 28-12-2019 05:43:18 9 C 72 %
Sensor: Nr:Datum:Temp:Feuchte:
G-T/H 1476 28-12-2019 05:53:17 9.1 C 72 %
1477 28-12-2019 06:03:17 9 C 72 %
1478 28-12-2019 06:13:18 9 C 72 %
1479 28-12-2019 06:23:17 9 C 72 %
1480 28-12-2019 06:33:17 9 C 72 %
1481 28-12-2019 06:43:18 9 C 71 %
1482 28-12-2019 06:53:17 8.9 C 72 %
1483 28-12-2019 07:03:18 8.8 C 72 %
1484 28-12-2019 07:13:18 8.9 C 72 %
1485 28-12-2019 07:23:17 8.9 C 72 %
1486 28-12-2019 07:33:17 8.9 C 72 %
1487 28-12-2019 07:43:17 8.8 C 72 %
1488 28-12-2019 07:53:17 8.8 C 72 %
1489 28-12-2019 08:03:17 8.8 C 72 %
1490 28-12-2019 08:13:17 8.8 C 72 %
1491 28-12-2019 08:23:18 8.7 C 72 %
1492 28-12-2019 08:33:17 8.7 C 72 %
1493 28-12-2019 08:43:17 8.7 C 72 %
1494 28-12-2019 08:53:17 8.7 C 72 %
1495 28-12-2019 09:03:18 8.7 C 72 %
1496 28-12-2019 09:13:18 8.7 C 72 %
1497 28-12-2019 09:23:17 8.6 C 72 %
1498 28-12-2019 09:33:17 8.6 C 72 %
1499 28-12-2019 09:43:17 6.6 C 62 %
1500 28-12-2019 09:53:17 5.6 C 61 %
Sensor: Nr:Datum:Temp:Feuchte:
G-T/H 1501 28-12-2019 10:03:17 5.2 C 61 %
1502 28-12-2019 10:13:17 5.1 C 61 %
1503 28-12-2019 10:23:17 5.4 C 61 %
1504 28-12-2019 10:33:18 7.2 C 62 %
1505 28-12-2019 10:43:18 8 C 62 %
1506 28-12-2019 10:53:17 8.2 C 63 %
1507 28-12-2019 11:03:18 8.2 C 64 %
1508 28-12-2019 11:13:18 8.2 C 64 %
1509 28-12-2019 11:23:17 8.2 C 65 %
1510 28-12-2019 11:33:17 8.2 C 65 %
1511 28-12-2019 11:43:18 8.2 C 66 %
1512 28-12-2019 11:53:17 8.3 C 67 %
1513 28-12-2019 12:03:17 8.4 C 67 %
1514 28-12-2019 12:13:17 8.4 C 67 %
1515 28-12-2019 12:23:17 8.3 C 68 %
1516 28-12-2019 12:33:17 8.3 C 68 %
1517 28-12-2019 12:43:18 8.2 C 68 %
1518 28-12-2019 12:53:17 8.2 C 68 %
1519 28-12-2019 13:03:18 8.2 C 69 %
1520 28-12-2019 13:13:18 8.2 C 69 %
1521 28-12-2019 13:23:17 8.2 C 69 %
1522 28-12-2019 13:33:17 8.2 C 69 %
1523 28-12-2019 13:43:17 8.2 C 69 %
1524 28-12-2019 13:53:17 8.2 C 69 %
1525 28-12-2019 14:03:17 8.2 C 69 %
Sensor: Nr:Datum:Temp:Feuchte:
G-T/H 1526 28-12-2019 14:13:17 8.1 C 70 %
1527 28-12-2019 14:23:17 8.2 C 70 %
1528 28-12-2019 14:33:17 8.2 C 70 %
1529 28-12-2019 14:43:17 8.2 C 70 %
1530 28-12-2019 14:53:17 8.1 C 70 %
1531 28-12-2019 15:03:17 8.1 C 70 %
1532 28-12-2019 15:13:18 8.1 C 70 %
1533 28-12-2019 15:23:17 8.1 C 70 %
1534 28-12-2019 15:33:17 8.1 C 70 %
1535 28-12-2019 15:43:17 8 C 70 %
1536 28-12-2019 15:53:18 8.1 C 70 %
1537 28-12-2019 16:03:17 7.8 C 69 %
1538 28-12-2019 16:13:17 7.9 C 69 %
1539 28-12-2019 16:23:17 8 C 68 %
1540 28-12-2019 16:33:17 8 C 69 %
1541 28-12-2019 16:43:17 8 C 69 %
1542 28-12-2019 16:53:17 8 C 69 %
1543 28-12-2019 17:03:17 8 C 69 %
1544 28-12-2019 17:13:17 8 C 69 %
1545 28-12-2019 17:23:17 8 C 69 %
1546 28-12-2019 17:33:18 8 C 69 %
1547 28-12-2019 17:43:18 8 C 69 %
1548 28-12-2019 17:53:17 8 C 69 %
1549 28-12-2019 18:03:17 7.9 C 70 %
1550 28-12-2019 18:13:17 8 C 69 %
Sensor: Nr:Datum:Temp:Feuchte:
G-T/H 1551 28-12-2019 18:23:17 8 C 69 %
1552 28-12-2019 18:33:17 7.9 C 70 %
1553 28-12-2019 18:43:17 8 C 70 %
1554 28-12-2019 18:53:17 8 C 70 %
1555 28-12-2019 19:03:17 8 C 70 %
1556 28-12-2019 19:13:18 7.9 C 71 %
1557 28-12-2019 19:23:17 7.9 C 71 %
1558 28-12-2019 19:33:18 7.9 C 71 %
1559 28-12-2019 19:43:18 7.9 C 71 %
1560 28-12-2019 19:53:17 7.9 C 71 %
1561 28-12-2019 20:03:17 7.9 C 71 %
1562 28-12-2019 20:13:17 7.9 C 71 %
1563 28-12-2019 20:23:17 7.9 C 71 %
1564 28-12-2019 20:33:18 7.9 C 71 %
1565 28-12-2019 20:43:18 7.9 C 71 %
1566 28-12-2019 20:53:18 7.9 C 71 %
1567 28-12-2019 21:03:17 7.9 C 71 %
1568 28-12-2019 21:13:17 7.9 C 71 %
1569 28-12-2019 21:23:17 7.9 C 71 %
1570 28-12-2019 21:33:17 7.9 C 71 %
1571 28-12-2019 21:43:18 7.8 C 71 %
1572 28-12-2019 21:53:17 7.8 C 71 %
1573 28-12-2019 22:03:18 7.8 C 71 %
1574 28-12-2019 22:13:18 7.8 C 71 %
1575 28-12-2019 22:23:17 7.8 C 71 %
Sensor: Nr:Datum:Temp:Feuchte:
G-T/H 1576 28-12-2019 22:33:17 7.8 C 71 %
1577 28-12-2019 22:43:17 7.8 C 71 %
1578 28-12-2019 22:53:17 7.8 C 71 %
1579 28-12-2019 23:03:17 7.8 C 71 %
1580 28-12-2019 23:13:17 7.8 C 71 %
1581 28-12-2019 23:23:17 7.8 C 71 %
1582 28-12-2019 23:33:17 7.8 C 70 %
1583 28-12-2019 23:43:17 7.7 C 70 %
1584 28-12-2019 23:53:17 7.7 C 70 %
1585 29-12-2019 00:03:18 7.7 C 70 %
1586 29-12-2019 00:13:18 7.7 C 70 %
1587 29-12-2019 00:23:17 7.7 C 70 %
1588 29-12-2019 00:33:17 7.7 C 70 %
1589 29-12-2019 00:43:17 7.7 C 70 %
1590 29-12-2019 00:53:17 7.7 C 70 %
1591 29-12-2019 01:03:17 7.6 C 70 %
1592 29-12-2019 01:13:17 7.6 C 70 %
1593 29-12-2019 01:23:17 7.6 C 70 %
1594 29-12-2019 01:33:17 7.6 C 70 %
1595 29-12-2019 01:43:17 7.6 C 70 %
1596 29-12-2019 01:53:17 7.6 C 70 %
1597 29-12-2019 02:03:17 7.6 C 70 %
1598 29-12-2019 02:13:17 7.5 C 70 %
1599 29-12-2019 02:23:17 7.5 C 70 %
1600 29-12-2019 02:33:17 7.5 C 70 %
Sensor: Nr:Datum:Temp:Feuchte:
G-T/H 1601 29-12-2019 02:43:17 7.5 C 70 %
1602 29-12-2019 02:53:18 7.5 C 70 %
1603 29-12-2019 03:03:17 7.5 C 70 %
1604 29-12-2019 03:13:17 7.5 C 70 %
1605 29-12-2019 03:23:17 7.5 C 70 %
1606 29-12-2019 03:33:17 7.5 C 70 %
1607 29-12-2019 03:43:17 7.5 C 70 %
1608 29-12-2019 03:53:18 7.5 C 70 %
1609 29-12-2019 04:03:17 7.5 C 70 %
1610 29-12-2019 04:13:17 7.4 C 70 %
1611 29-12-2019 04:23:17 7.4 C 70 %
1612 29-12-2019 04:33:17 7.4 C 70 %
1613 29-12-2019 04:43:17 7.4 C 70 %
1614 29-12-2019 04:53:17 7.4 C 69 %
1615 29-12-2019 05:03:17 7.4 C 69 %
1616 29-12-2019 05:13:17 7.4 C 69 %
1617 29-12-2019 05:23:17 7.4 C 69 %
1618 29-12-2019 05:33:18 7.4 C 69 %
1619 29-12-2019 05:43:18 7.3 C 69 %
1620 29-12-2019 05:53:17 7.3 C 69 %
1621 29-12-2019 06:03:17 7.3 C 69 %
1622 29-12-2019 06:13:17 7.3 C 69 %
1623 29-12-2019 06:23:17 7.3 C 69 %
1624 29-12-2019 06:33:17 7.3 C 69 %
1625 29-12-2019 06:43:17 7.3 C 69 %
Sensor: Nr:Datum:Temp:Feuchte:
G-T/H 1626 29-12-2019 06:53:17 7.3 C 69 %
1627 29-12-2019 07:03:17 7.3 C 69 %
1628 29-12-2019 07:13:17 7.3 C 69 %
1629 29-12-2019 07:23:17 7.2 C 69 %
1630 29-12-2019 07:33:17 7.2 C 69 %
1631 29-12-2019 07:43:17 7.2 C 69 %
1632 29-12-2019 07:53:17 7.2 C 69 %
1633 29-12-2019 08:03:17 7.2 C 69 %
1634 29-12-2019 08:13:17 7.2 C 69 %
1635 29-12-2019 08:23:18 7.1 C 69 %
1636 29-12-2019 08:33:17 7.2 C 69 %
1637 29-12-2019 08:43:17 7.1 C 69 %
1638 29-12-2019 08:53:17 7.1 C 69 %
1639 29-12-2019 09:03:17 7.1 C 69 %
1640 29-12-2019 09:13:17 7.1 C 69 %
1641 29-12-2019 09:23:18 7.1 C 69 %
1642 29-12-2019 09:33:17 7.1 C 69 %
1643 29-12-2019 09:43:17 7.3 C 69 %
1644 29-12-2019 09:53:17 7.4 C 69 %
1645 29-12-2019 10:03:18 7.4 C 69 %
1646 29-12-2019 10:13:18 7.4 C 69 %
1647 29-12-2019 10:23:17 7.4 C 69 %
1648 29-12-2019 10:33:17 7.3 C 69 %
1649 29-12-2019 10:43:17 7.3 C 69 %
1650 29-12-2019 10:53:17 7.3 C 69 %
Sensor: Nr:Datum:Temp:Feuchte:
G-T/H 1651 29-12-2019 11:03:17 7.3 C 69 %
1652 29-12-2019 11:13:17 7.3 C 69 %
1653 29-12-2019 11:23:17 7.2 C 69 %
1654 29-12-2019 11:33:17 7.2 C 69 %
1655 29-12-2019 11:43:18 7.2 C 69 %
1656 29-12-2019 11:53:17 7.2 C 69 %
1657 29-12-2019 12:03:18 7.2 C 69 %
1658 29-12-2019 12:13:18 7.2 C 69 %
1659 29-12-2019 12:23:17 7.2 C 69 %
1660 29-12-2019 12:33:17 7.2 C 69 %
1661 29-12-2019 12:43:17 7.2 C 69 %
1662 29-12-2019 12:53:17 7.2 C 70 %
1663 29-12-2019 13:03:17 7.1 C 70 %
1664 29-12-2019 13:13:17 7.1 C 70 %
1665 29-12-2019 13:23:17 7.1 C 70 %
1666 29-12-2019 13:33:18 7.1 C 70 %
1667 29-12-2019 13:43:18 7.1 C 70 %
1668 29-12-2019 13:53:17 7.1 C 70 %
1669 29-12-2019 14:03:17 7.1 C 70 %
1670 29-12-2019 14:13:17 7.1 C 70 %
1671 29-12-2019 14:23:17 7.1 C 70 %
1672 29-12-2019 14:33:18 7.1 C 70 %
1673 29-12-2019 14:43:18 7.1 C 70 %
1674 29-12-2019 14:53:17 7.1 C 70 %
1675 29-12-2019 15:03:17 7.1 C 70 %
Sensor: Nr:Datum:Temp:Feuchte:
G-T/H 1676 29-12-2019 15:13:18 7.1 C 70 %
1677 29-12-2019 15:23:17 7.1 C 70 %
1678 29-12-2019 15:33:17 7.1 C 70 %
1679 29-12-2019 15:43:17 7.1 C 70 %
1680 29-12-2019 15:53:18 7.1 C 70 %
1681 29-12-2019 16:03:17 7.1 C 70 %
1682 29-12-2019 16:13:17 7.1 C 70 %
1683 29-12-2019 16:23:17 7.1 C 70 %
1684 29-12-2019 16:33:18 7.1 C 70 %
1685 29-12-2019 16:43:18 7.1 C 70 %
1686 29-12-2019 16:53:17 7.1 C 70 %
1687 29-12-2019 17:03:17 7.1 C 70 %
1688 29-12-2019 17:13:17 7 C 70 %
1689 29-12-2019 17:23:17 7 C 70 %
1690 29-12-2019 17:33:17 7 C 70 %
1691 29-12-2019 17:43:17 7 C 70 %
1692 29-12-2019 17:53:17 7 C 70 %
1693 29-12-2019 18:03:17 7 C 70 %
1694 29-12-2019 18:13:17 7 C 70 %
1695 29-12-2019 18:23:17 7.1 C 70 %
1696 29-12-2019 18:33:17 7 C 70 %
1697 29-12-2019 18:43:17 7 C 70 %
1698 29-12-2019 18:53:17 7 C 70 %
1699 29-12-2019 19:03:17 7 C 70 %
1700 29-12-2019 19:13:17 7 C 70 %
Sensor: Nr:Datum:Temp:Feuchte:
G-T/H 1701 29-12-2019 19:23:18 7 C 70 %
1702 29-12-2019 19:33:18 7 C 70 %
1703 29-12-2019 19:43:18 7 C 70 %
1704 29-12-2019 19:53:17 7 C 70 %
1705 29-12-2019 20:03:18 7 C 70 %
1706 29-12-2019 20:13:18 7 C 70 %
1707 29-12-2019 20:23:17 7 C 70 %
1708 29-12-2019 20:33:17 7 C 70 %
1709 29-12-2019 20:43:17 7 C 70 %
1710 29-12-2019 20:53:17 7 C 70 %
1711 29-12-2019 21:03:17 7 C 70 %
1712 29-12-2019 21:13:17 7 C 70 %
1713 29-12-2019 21:23:17 7 C 70 %
1714 29-12-2019 21:33:18 7 C 70 %
1715 29-12-2019 21:43:18 7 C 70 %
1716 29-12-2019 21:53:17 7 C 70 %
1717 29-12-2019 22:03:17 6.8 C 71 %
1718 29-12-2019 22:13:17 7 C 70 %
1719 29-12-2019 22:23:17 7 C 70 %
1720 29-12-2019 22:33:17 7 C 70 %
1721 29-12-2019 22:43:18 7 C 70 %
1722 29-12-2019 22:53:17 7 C 70 %
1723 29-12-2019 23:03:17 6.9 C 71 %
1724 29-12-2019 23:13:17 6.9 C 71 %
1725 29-12-2019 23:23:17 7 C 70 %
Sensor: Nr:Datum:Temp:Feuchte:
G-T/H 1726 29-12-2019 23:33:18 7.1 C 70 %
1727 29-12-2019 23:43:18 7.1 C 70 %
1728 29-12-2019 23:53:17 7.1 C 70 %
1729 30-12-2019 00:03:17 7.1 C 70 %
1730 30-12-2019 00:13:17 7.1 C 70 %
1731 30-12-2019 00:23:17 7.1 C 70 %
1732 30-12-2019 00:33:17 7.1 C 70 %
1733 30-12-2019 00:43:17 7 C 70 %
1734 30-12-2019 00:53:17 7 C 70 %
1735 30-12-2019 01:03:17 7 C 70 %
1736 30-12-2019 01:13:18 7 C 70 %
1737 30-12-2019 01:23:17 7 C 70 %
1738 30-12-2019 01:33:18 7 C 70 %
1739 30-12-2019 01:43:18 7 C 70 %
1740 30-12-2019 01:53:17 7 C 70 %
1741 30-12-2019 02:03:17 7 C 70 %
1742 30-12-2019 02:13:17 7 C 70 %
1743 30-12-2019 02:23:17 7 C 70 %
1744 30-12-2019 02:33:18 6.9 C 71 %
1745 30-12-2019 02:43:18 6.9 C 71 %
1746 30-12-2019 02:53:17 7 C 70 %
1747 30-12-2019 03:03:17 7.1 C 70 %
1748 30-12-2019 03:13:17 7.1 C 70 %
1749 30-12-2019 03:23:17 7.1 C 69 %
1750 30-12-2019 03:33:18 7.1 C 69 %
Sensor: Nr:Datum:Temp:Feuchte:
G-T/H 1751 30-12-2019 03:43:18 7 C 69 %
1752 30-12-2019 03:53:17 7 C 69 %
1753 30-12-2019 04:03:17 7 C 69 %
1754 30-12-2019 04:13:17 7 C 69 %
1755 30-12-2019 04:23:17 7 C 69 %
1756 30-12-2019 04:33:17 6.9 C 70 %
1757 30-12-2019 04:43:17 7 C 69 %
1758 30-12-2019 04:53:17 6.9 C 70 %
1759 30-12-2019 05:03:17 6.9 C 70 %
1760 30-12-2019 05:13:17 6.9 C 70 %
1761 30-12-2019 05:23:17 6.9 C 70 %
1762 30-12-2019 05:33:17 6.9 C 70 %
1763 30-12-2019 05:43:17 7 C 69 %
1764 30-12-2019 05:53:18 7.2 C 69 %
1765 30-12-2019 06:03:17 7.2 C 69 %
1766 30-12-2019 06:13:17 7.2 C 69 %
1767 30-12-2019 06:23:17 7.1 C 69 %
1768 30-12-2019 06:33:17 7.1 C 69 %
1769 30-12-2019 06:43:17 7 C 69 %
1770 30-12-2019 06:53:17 7 C 69 %
1771 30-12-2019 07:03:17 7 C 69 %
1772 30-12-2019 07:13:17 6.9 C 70 %
1773 30-12-2019 07:23:17 6.9 C 70 %
1774 30-12-2019 07:33:18 6.9 C 70 %
1775 30-12-2019 07:43:18 6.9 C 70 %
Sensor: Nr:Datum:Temp:Feuchte:
G-T/H 1776 30-12-2019 07:53:17 6.9 C 70 %
1777 30-12-2019 08:03:17 6.9 C 70 %
1778 30-12-2019 08:13:17 6.9 C 70 %
1779 30-12-2019 08:23:17 6.9 C 70 %
1780 30-12-2019 08:33:17 6.8 C 70 %
1781 30-12-2019 08:43:17 6.8 C 70 %
1782 30-12-2019 08:53:17 6.8 C 70 %
1783 30-12-2019 09:03:18 6.9 C 70 %
1784 30-12-2019 09:13:18 7.2 C 69 %
1785 30-12-2019 09:23:17 7.2 C 68 %
1786 30-12-2019 09:33:17 7.2 C 68 %
1787 30-12-2019 09:43:17 7.1 C 68 %
1788 30-12-2019 09:53:17 7.1 C 68 %
1789 30-12-2019 10:03:17 7 C 68 %
1790 30-12-2019 10:13:17 7 C 68 %
1791 30-12-2019 10:23:17 7 C 68 %
1792 30-12-2019 10:33:17 6.9 C 69 %
1793 30-12-2019 10:43:17 6.9 C 69 %
1794 30-12-2019 10:53:17 6.9 C 69 %
1795 30-12-2019 11:03:17 6.8 C 69 %
1796 30-12-2019 11:13:17 6.9 C 69 %
1797 30-12-2019 11:23:17 6.8 C 69 %
1798 30-12-2019 11:33:17 6.9 C 69 %
1799 30-12-2019 11:43:17 6.8 C 69 %
1800 30-12-2019 11:53:18 6.8 C 69 %
Sensor: Nr:Datum:Temp:Feuchte:
G-T/H 1801 30-12-2019 12:03:17 6.8 C 69 %
1802 30-12-2019 12:13:17 7 C 69 %
1803 30-12-2019 12:23:17 7.2 C 69 %
1804 30-12-2019 12:33:17 7.2 C 69 %
1805 30-12-2019 12:43:17 7.2 C 68 %
1806 30-12-2019 12:53:17 7 C 68 %
1807 30-12-2019 13:03:17 7 C 68 %
1808 30-12-2019 13:13:17 7 C 68 %
1809 30-12-2019 13:23:17 7 C 68 %
1810 30-12-2019 13:33:17 7 C 68 %
1811 30-12-2019 13:43:17 7 C 68 %
1812 30-12-2019 13:53:17 6.9 C 69 %
1813 30-12-2019 14:03:17 6.9 C 69 %
1814 30-12-2019 14:13:17 6.9 C 69 %
1815 30-12-2019 14:23:17 6.8 C 69 %
1816 30-12-2019 14:33:17 6.8 C 69 %
1817 30-12-2019 14:43:17 6.9 C 70 %
1818 30-12-2019 14:53:17 6.9 C 70 %
1819 30-12-2019 15:03:17 6.9 C 70 %
1820 30-12-2019 15:13:17 6.8 C 70 %
1821 30-12-2019 15:23:17 6.8 C 70 %
1822 30-12-2019 15:33:18 6.8 C 70 %
1823 30-12-2019 15:43:18 6.9 C 70 %
1824 30-12-2019 15:53:17 7.2 C 69 %
1825 30-12-2019 16:03:18 7.2 C 69 %
Sensor: Nr:Datum:Temp:Feuchte:
G-T/H 1826 30-12-2019 16:13:18 7.1 C 69 %
1827 30-12-2019 16:23:18 7.3 C 69 %
1828 30-12-2019 16:33:17 7.6 C 69 %
1829 30-12-2019 16:43:17 7.7 C 69 %
1830 30-12-2019 16:53:17 7.8 C 69 %
1831 30-12-2019 17:03:17 7.8 C 69 %
1832 30-12-2019 17:13:17 7.9 C 69 %
1833 30-12-2019 17:23:18 7.8 C 69 %
1834 30-12-2019 17:33:17 7.9 C 69 %
1835 30-12-2019 17:43:17 7.9 C 69 %
1836 30-12-2019 17:53:17 7.9 C 69 %
1837 30-12-2019 18:03:17 7.9 C 69 %
1838 30-12-2019 18:13:17 7.9 C 69 %
1839 30-12-2019 18:23:18 7.9 C 69 %
1840 30-12-2019 18:33:18 7.9 C 69 %
1841 30-12-2019 18:43:18 7.9 C 69 %
1842 30-12-2019 18:53:17 7.9 C 69 %
1843 30-12-2019 19:03:17 7.9 C 69 %
1844 30-12-2019 19:13:17 7.9 C 69 %
1845 30-12-2019 19:23:18 7.8 C 69 %
1846 30-12-2019 19:33:17 7.8 C 68 %
1847 30-12-2019 19:43:17 7.7 C 68 %
1848 30-12-2019 19:53:18 7.7 C 68 %
1849 30-12-2019 20:03:17 7.7 C 68 %
1850 30-12-2019 20:13:17 7.6 C 68 %
Sensor: Nr:Datum:Temp:Feuchte:
G-T/H 1851 30-12-2019 20:23:17 7.5 C 68 %
1852 30-12-2019 20:33:17 7.5 C 68 %
1853 30-12-2019 20:43:17 7.5 C 68 %
1854 30-12-2019 20:53:17 7.4 C 68 %
1855 30-12-2019 21:03:17 7.4 C 68 %
1856 30-12-2019 21:13:17 7.4 C 68 %
1857 30-12-2019 21:23:17 7.4 C 68 %
1858 30-12-2019 21:33:17 7.4 C 68 %
1859 30-12-2019 21:43:17 7.3 C 68 %
1860 30-12-2019 21:53:17 7.4 C 68 %
1861 30-12-2019 22:03:17 7.3 C 68 %
1862 30-12-2019 22:13:17 7.3 C 68 %
1863 30-12-2019 22:23:17 7.3 C 68 %
1864 30-12-2019 22:33:17 7.3 C 68 %
1865 30-12-2019 22:43:17 7.3 C 68 %
1866 30-12-2019 22:53:17 7.3 C 68 %
1867 30-12-2019 23:03:17 7.3 C 68 %
1868 30-12-2019 23:13:17 7.2 C 68 %
1869 30-12-2019 23:23:17 7.2 C 68 %
1870 30-12-2019 23:33:17 7.2 C 68 %
1871 30-12-2019 23:43:17 7.2 C 68 %
1872 30-12-2019 23:53:17 7.2 C 69 %
1873 31-12-2019 00:03:17 7.2 C 69 %
1874 31-12-2019 00:13:18 7.1 C 69 %
1875 31-12-2019 00:23:17 7.1 C 69 %
Sensor: Nr:Datum:Temp:Feuchte:
G-T/H 1876 31-12-2019 00:33:18 7.1 C 69 %
1877 31-12-2019 00:43:18 7.1 C 69 %
1878 31-12-2019 00:53:17 7.1 C 69 %
1879 31-12-2019 01:03:17 7.1 C 69 %
1880 31-12-2019 01:13:17 7.1 C 69 %
1881 31-12-2019 01:23:18 7 C 69 %
1882 31-12-2019 01:33:17 7 C 69 %
1883 31-12-2019 01:43:17 7 C 69 %
1884 31-12-2019 01:53:17 7 C 69 %
1885 31-12-2019 02:03:17 7 C 69 %
1886 31-12-2019 02:13:17 7 C 69 %
1887 31-12-2019 02:23:18 7 C 69 %
1888 31-12-2019 02:33:17 6.9 C 70 %
1889 31-12-2019 02:43:17 6.9 C 70 %
1890 31-12-2019 02:53:17 6.9 C 70 %
1891 31-12-2019 03:03:17 6.9 C 70 %
1892 31-12-2019 03:13:18 6.9 C 70 %
1893 31-12-2019 03:23:17 6.9 C 70 %
1894 31-12-2019 03:33:18 6.9 C 70 %
1895 31-12-2019 03:43:18 6.8 C 70 %
1896 31-12-2019 03:53:17 6.8 C 70 %
1897 31-12-2019 04:03:17 6.8 C 70 %
1898 31-12-2019 04:13:17 6.9 C 70 %
1899 31-12-2019 04:23:17 7 C 69 %
1900 31-12-2019 04:33:17 7 C 69 %
Sensor: Nr:Datum:Temp:Feuchte:
G-T/H 1901 31-12-2019 04:43:18 7 C 69 %
1902 31-12-2019 04:53:17 7 C 69 %
1903 31-12-2019 05:03:17 7 C 69 %
1904 31-12-2019 05:13:17 6.9 C 69 %
1905 31-12-2019 05:23:17 6.9 C 69 %
1906 31-12-2019 05:33:17 6.9 C 69 %
1907 31-12-2019 05:43:17 6.8 C 69 %
1908 31-12-2019 05:53:17 6.8 C 70 %
1909 31-12-2019 06:03:17 6.8 C 70 %
1910 31-12-2019 06:13:17 6.8 C 70 %
1911 31-12-2019 06:23:17 6.8 C 70 %
1912 31-12-2019 06:33:17 6.8 C 70 %
1913 31-12-2019 06:43:17 6.8 C 70 %
1914 31-12-2019 06:53:18 6.8 C 70 %
1915 31-12-2019 07:03:17 6.7 C 70 %
1916 31-12-2019 07:13:17 6.7 C 70 %
1917 31-12-2019 07:23:17 6.7 C 70 %
1918 31-12-2019 07:33:17 6.7 C 70 %
1919 31-12-2019 07:43:17 6.7 C 70 %
1920 31-12-2019 07:53:18 6.7 C 70 %
1921 31-12-2019 08:03:17 6.7 C 70 %
1922 31-12-2019 08:13:17 6.7 C 70 %
1923 31-12-2019 08:23:17 6.7 C 70 %
1924 31-12-2019 08:33:17 6.7 C 70 %
1925 31-12-2019 08:43:17 6.6 C 70 %
Sensor: Nr:Datum:Temp:Feuchte:
G-T/H 1926 31-12-2019 08:53:17 6.9 C 70 %
1927 31-12-2019 09:03:17 7.2 C 69 %
1928 31-12-2019 09:13:17 7.3 C 69 %
1929 31-12-2019 09:23:17 7.3 C 69 %
1930 31-12-2019 09:33:17 7.3 C 68 %
1931 31-12-2019 09:43:17 7.3 C 68 %
1932 31-12-2019 09:53:17 7.2 C 68 %
1933 31-12-2019 10:03:17 7.2 C 68 %
1934 31-12-2019 10:13:17 7.1 C 68 %
1935 31-12-2019 10:23:17 7.1 C 69 %
1936 31-12-2019 10:33:17 7.1 C 69 %
1937 31-12-2019 10:43:17 6.9 C 69 %
1938 31-12-2019 10:53:18 6.9 C 69 %
1939 31-12-2019 11:03:17 6.9 C 69 %
1940 31-12-2019 11:13:17 6.9 C 69 %
1941 31-12-2019 11:23:17 6.9 C 69 %
1942 31-12-2019 11:33:17 6.9 C 70 %
1943 31-12-2019 11:43:17 6.9 C 70 %
1944 31-12-2019 11:53:17 6.9 C 70 %
1945 31-12-2019 12:03:18 6.9 C 70 %
1946 31-12-2019 12:13:18 6.9 C 70 %
1947 31-12-2019 12:23:17 6.9 C 70 %
1948 31-12-2019 12:33:18 6.9 C 70 %
1949 31-12-2019 12:43:18 6.9 C 70 %
1950 31-12-2019 12:53:17 6.9 C 70 %
Sensor: Nr:Datum:Temp:Feuchte:
G-T/H 1951 31-12-2019 13:03:18 6.9 C 70 %
1952 31-12-2019 13:13:18 6.8 C 70 %
1953 31-12-2019 13:23:17 6.8 C 71 %
1954 31-12-2019 13:33:17 6.9 C 71 %
1955 31-12-2019 13:43:17 6.9 C 71 %
1956 31-12-2019 13:53:17 6.9 C 71 %
1957 31-12-2019 14:03:18 6.9 C 71 %
1958 31-12-2019 14:13:18 6.9 C 71 %
1959 31-12-2019 14:23:17 6.8 C 71 %
1960 31-12-2019 14:33:17 6.8 C 71 %
1961 31-12-2019 14:43:17 6.8 C 71 %
1962 31-12-2019 14:53:17 6.8 C 71 %
1963 31-12-2019 15:03:17 6.9 C 71 %
1964 31-12-2019 15:13:17 6.8 C 71 %
1965 31-12-2019 15:23:18 6.9 C 71 %
1966 31-12-2019 15:33:17 6.9 C 71 %
1967 31-12-2019 15:43:17 6.9 C 71 %
1968 31-12-2019 15:53:17 6.9 C 71 %
1969 31-12-2019 16:03:17 6.9 C 71 %
1970 31-12-2019 16:13:17 6.9 C 71 %
1971 31-12-2019 16:23:18 6.8 C 71 %
1972 31-12-2019 16:33:17 6.9 C 71 %
1973 31-12-2019 16:43:17 6.9 C 71 %
1974 31-12-2019 16:53:18 6.9 C 71 %
1975 31-12-2019 17:03:17 6.9 C 71 %
Sensor: Nr:Datum:Temp:Feuchte:
G-T/H 1976 31-12-2019 17:13:17 6.9 C 71 %
1977 31-12-2019 17:23:17 6.8 C 71 %
1978 31-12-2019 17:33:17 6.9 C 71 %
1979 31-12-2019 17:43:17 6.8 C 71 %
1980 31-12-2019 17:53:18 6.8 C 71 %
1981 31-12-2019 18:03:17 6.7 C 71 %
1982 31-12-2019 18:13:17 6.4 C 69 %
1983 31-12-2019 18:23:17 6.7 C 69 %
1984 31-12-2019 18:33:17 7.1 C 69 %
1985 31-12-2019 18:43:17 7.2 C 69 %
1986 31-12-2019 18:53:18 7.2 C 69 %
1987 31-12-2019 19:03:17 7.2 C 69 %
1988 31-12-2019 19:13:17 7.2 C 69 %
1989 31-12-2019 19:23:18 7.1 C 69 %
1990 31-12-2019 19:33:17 7.1 C 69 %
1991 31-12-2019 19:43:17 7.1 C 69 %
1992 31-12-2019 19:53:17 7.1 C 70 %
1993 31-12-2019 20:03:18 7.1 C 70 %
1994 31-12-2019 20:13:18 7 C 70 %
1995 31-12-2019 20:23:17 7 C 70 %
1996 31-12-2019 20:33:17 7 C 70 %
1997 31-12-2019 20:43:17 7 C 70 %
1998 31-12-2019 20:53:17 7 C 70 %
1999 31-12-2019 21:03:17 7 C 70 %
2000 31-12-2019 21:13:17 7 C 70 %
Sensor: Nr:Datum:Temp:Feuchte:
G-T/H 2001 31-12-2019 21:23:18 7 C 70 %
2002 31-12-2019 21:33:17 7 C 70 %
2003 31-12-2019 21:43:17 7 C 71 %
2004 31-12-2019 21:53:17 7 C 71 %
2005 31-12-2019 22:03:17 7 C 71 %
2006 31-12-2019 22:13:17 7 C 71 %
2007 31-12-2019 22:23:18 7 C 71 %
2008 31-12-2019 22:33:17 7 C 71 %
2009 31-12-2019 22:43:17 7 C 71 %
2010 31-12-2019 22:53:17 6.9 C 72 %
2011 31-12-2019 23:03:17 6.9 C 72 %
2012 31-12-2019 23:13:17 6.9 C 72 %
2013 31-12-2019 23:23:18 6.9 C 72 %
2014 31-12-2019 23:33:17 6.9 C 72 %
2015 31-12-2019 23:43:17 6.9 C 72 %
2016 31-12-2019 23:53:18 6.9 C 72 %

Legende:
   Min
   Max


Maximal/Minimal-Werte vom 18.12.2019 - 31.12.2019

Sensor Min Max Avg
Temp
(Aussen-T/F)
-5 °C
29-12-2019  07:23:17
11.3 °C
18-12-2019  02:32:17
4.06 °C
Feuchte
(Aussen-T/F)
20 %
24-12-2019  15:42:17
46 %
31-12-2019  18:43:17
36.23 %
Temp
(G-T/H)
5.1 °C
28-12-2019  10:13:17
11.1 °C
18-12-2019  02:22:17
9.33 °C
Feuchte
(G-T/H)
61 %
28-12-2019  09:53:17
77 %
20-12-2019  19:22:17
73.57 %

Die Daten stammen von einer Davis Vantage Pro 2 Wetter-Station und werden unter Linux mit der Software wview2wettercgi und aufbereitet. Alle Angaben erfolgen ohne Gewähr für ihre Vollständigkeit oder Richtigkeit.
Kontakt: Rainer Krienke krienke@uni-koblenz.de . Meine Webseiten an der Uni Koblenz oder privat.
Version: $Revision: 0.78 $